     2              OBSERVATION DATA    MIXED               RINEX VERSION / TYPE
GEOTRACER GPS Decoder Ver. 2.2 29-Apr-2004, 00:01           PGM / RUN BY / DATE
OHI3                                                        MARKER NAME
66008M006                                                   MARKER NUMBER
AUTOMATIC BKG-WETTZELL                                      OBSERVER / AGENCY
AFLQXTM48W0 JPS E_GGD 2.3 Oct,17,2003 p3                    REC # / TYPE / VERS
CRL 2199911002 ASH701941.B SNOW                             ANT # / TYPE
  1525809.7478 -2432478.7092 -5676166.6599                  APPROX POSITION XYZ
        0.0050       -0.0000        0.0000                  ANTENNA: DELTA H/E/N
     1     1     0                                          WAVELENGTH FACT L1/2
     7    C1    P1    P2    L1    L2    D1    D2            # / TYPES OF OBSERV
    30                                                      INTERVAL
  2004     4    28    23     0    0.000000                  TIME OF FIRST OBS
  2004     4    28    23    59   30.000000                  TIME OF LAST OBS
    17                                                      # OF SATELLITES
   G01    54    54    54    54    54    54    54            PRN / # OF OBS
   G06   120   120   120   120   120   120   120            PRN / # OF OBS
   G10   120   120   120   120   120   120   120            PRN / # OF OBS
   G13   120   120   120   120   120   120   120            PRN / # OF OBS
   G15    19    19    19    19    19    19    19            PRN / # OF OBS
   G16   120   120   120   120   120   120   120            PRN / # OF OBS
   G17   120   120   120   120   120   120   120            PRN / # OF OBS
   G21   120   120   120   120   120   120   120            PRN / # OF OBS
   G24    73    73    73    73    73    73    73            PRN / # OF OBS
   G25   115   115   115   115   115   115   115            PRN / # OF OBS
   G30   120   120   120   120   120   120   120            PRN / # OF OBS
   R03    32    32    32    32    32    32    32            PRN / # OF OBS
   R04   120   120   120   120   120   120   120            PRN / # OF OBS
   R05   120   120   120   120   120   120   120            PRN / # OF OBS
   R06    90    90    90    90    90    90    90            PRN / # OF OBS
   R21   120   120   120   120   120   120   120            PRN / # OF OBS
   R22    82    82    82    82    82    82    82            PRN / # OF OBS
                                                            END OF HEADER
 04  4 28 23  0  0.0000000  0 14G01G06G10G13G16G17G21G24G25G30R03R04
                                R05R21
  24461586.39805  24461585.09405  24461590.05905   2717389.96305   3697123.78405
     -1859.166       -1448.700
  20345250.15009  20345249.65909  20345253.98209   2057410.04809   3618640.10509
      -512.759        -399.551
  22637122.98707  22637121.66507  22637126.60207  -2675939.90607    420564.17607
      1546.618        1205.150
  24272650.63805  24272645.43305  24272648.66505   1724498.93705  -1270857.60105
       478.068         372.534
  23678566.94007  23678566.14307  23678569.29707  -5591694.60207  -3703481.90707
      3470.819        2704.524
  21358137.23809  21358136.63609  21358141.89709   3185870.19109   3571939.79609
     -2002.969       -1560.754
  23079408.14607  23079407.48407  23079411.58207  -4545979.79407  -1962652.68207
      3638.499        2835.190
  23615858.47305  23615857.36405  23615862.46105   6661665.24705   8622622.86305
     -3446.993       -2685.975
  23154094.39806  23154094.20606  23154099.01206   8429376.37906   6731775.47306
     -2637.386       -2055.108
  22217652.51609  22217652.22509  22217656.29409   7702646.76709   7091506.99709
     -2805.788       -2186.333
  23478991.25805  23478992.19305  23478993.49705   8552716.88405   5720097.69705
     -3921.778       -3050.267
  20889468.65809  20889469.96209  20889472.16809   2810258.18709   3117854.49909
      -616.533        -479.526
  21477050.18408  21477051.30808  21477048.81608  -6787369.85508  -2948863.36908
      3512.632        2732.046
  20698292.69209  20698294.15209  20698296.99709  -2446606.89909  -1902885.68009
      3010.906        2341.817
 04  4 28 23  0 30.0000000  0 14G01G06G10G13G16G17G21G24G25G30R03R04
                                R05R21
  24472243.24105  24472242.47605  24472249.04505   2773399.19905   3740767.33805
     -1874.563       -1460.712
  20348222.78109  20348222.09209  20348226.74209   2073031.51209   3630812.68109
      -528.425        -411.759
  22628342.27308  22628340.96008  22628346.26008  -2722080.31308    384610.62108
      1529.622        1191.912
  24269973.36805  24269968.56805  24269973.23605   1710436.52205  -1281815.37005
       459.663         358.186
  23658770.72107  23658770.20807  23658774.50107  -5695717.48807  -3784538.65407
      3464.248        2699.395
  21369618.12009  21369617.08909  21369622.28409   3246200.27109   3618950.25009
     -2018.798       -1573.086
  23058656.17707  23058656.20607  23058660.88607  -4655027.78607  -2047625.08907
      3631.596        2829.813
  23635555.79405  23635554.95205  23635560.91205   6765181.93905   8703285.22005
     -3453.895       -2691.342
  23169187.76106  23169187.18206  23169192.54306   8508690.19506   6793578.43506
     -2649.959       -2064.898
  22233698.50309  22233698.25709  22233702.49609   7786968.39609   7157212.15109
     -2815.427       -2193.841
  23500946.43505  23500946.30005  23500946.54305   8670525.59205   5811726.74805
     -3931.876       -3058.115
  20892995.42809  20892996.28309  20892998.75009   2829141.79109   3132541.74509
      -642.153        -499.456
  21457390.58307  21457391.68007  21457388.88007  -6892499.99607  -3030631.23207
      3496.221        2719.283
  20681451.80309  20681453.36509  20681455.15209  -2536762.43809  -1973006.63609
      2999.679        2333.084
 04  4 28 23  1  0.0000000  0 14G01G06G10G13G16G17G21G24G25G30R03R04
                                R05R21
  24482987.41605  24482986.94505  24482992.73105   2829860.33905   3784763.00305
     -1889.322       -1472.228
  20351282.88609  20351282.55609  20351287.01709   2089113.41609   3643344.04109
      -543.496        -423.504
  22619657.39907  22619656.70107  22619661.54807  -2767717.58307    349049.12407
      1513.029        1178.986
  24267397.50605  24267397.28405  24267401.23005   1696920.20905  -1292347.58005
       441.611         344.103
  23639013.04006  23639012.14906  23639016.52306  -5799549.44306  -3865446.62006
      3458.035        2694.573
  21381187.37809  21381186.18509  21381191.37109   3306996.93109   3666324.27409
     -2034.117       -1585.026
  23037944.71207  23037943.34207  23037947.46407  -4763875.72807  -2132441.61507
      3625.098        2824.750
  23655290.58005  23655292.80505  23655297.17605   6868896.64905   8784101.91705
     -3460.298       -2696.326
  23184350.97907  23184350.13607  23184355.20907   8588373.24207   6855669.10507
     -2662.019       -2074.299
  22249797.81608  22249797.92108  22249801.58508   7871570.97908   7223136.23008
     -2824.554       -2200.951
  23522949.68204  23522955.07504  23522957.70404   8788627.67004   5903583.95004
     -3941.415       -3065.558
  20896663.10709  20896664.78909  20896666.78309   2848785.39009   3147820.10509
      -667.219        -518.949
  21437821.37508  21437822.85608  21437820.30508  -6997142.77708  -3112020.02708
      3480.114        2706.752
  20664671.15709  20664672.44309  20664674.93409  -2626588.57909  -2042871.39709
      2988.865        2324.670
 04  4 28 23  1 30.0000000  0 14G01G06G10G13G16G17G21G24G25G30R03R04
                                R05R21
  24493819.91505  24493819.64005  24493825.78805   2886784.00305   3829119.08005
     -1905.076       -1484.457
  20354433.14709  20354432.70309  20354437.38909   2105668.18709   3656243.86809
      -559.610        -436.059
  22611071.65808  22611070.77308  22611075.41108  -2812837.06608    313891.10608
      1495.425        1165.267
  24264933.54505  24264933.07405  24264936.14405   1683963.45205  -1302443.71105
       422.668         329.353
  23619293.55507  23619293.27107  23619297.11407  -5903175.18807  -3946193.88607
      3450.807        2688.934
  21392847.28409  21392846.26209  21392851.19009   3368270.71909   3714070.08909
     -2050.288       -1597.627
  23017273.17907  23017271.50107  23017275.52107  -4872508.14507  -2217090.18507
      3617.544        2818.858
  23675066.89005  23675068.21505  23675073.30905   6972819.49805   8865080.72105
     -3467.424       -2701.860
  23199585.74207  23199585.19307  23199590.54507   8668435.14007   6918054.98807
     -2674.919       -2084.353
  22265952.61009  22265952.86809  22265956.79509   7956465.42909   7289287.74209
     -2834.557       -2208.752
  23545020.75904  23545020.13004  23545021.81204   8907031.77304   5995676.00704
     -3951.574       -3073.423
  20900475.79309  20900477.20209  20900479.91809   2869200.92309   3163698.85409
      -693.209        -539.164
  21418347.24408  21418348.56308  21418345.66708  -7101281.54608  -3193016.81408
      3462.951        2693.401
  20647955.42509  20647956.86109  20647959.16009  -2716069.59309  -2112467.71109
      2977.107        2315.529
 04  4 28 23  2  0.0000000  0 14G01G06G10G13G16G17G21G24G25G30R03R04
                                R05R21
  24504741.01605  24504740.87505  24504745.80305   2944175.14505   3873839.41305
     -1920.669       -1496.616
  20357675.14509  20357674.45509  20357678.86209   2122702.76509   3669517.57509
      -575.751        -448.638
  22602586.16707  22602585.17507  22602589.78907  -2857429.81107    279143.52507
      1477.703        1151.464
  24262572.58404  24262574.12104  24262578.60604   1671573.83904  -1312097.96404
       403.654         314.540
  23599615.60107  23599614.72607  23599619.10007  -6006584.49007  -4026772.52207
      3443.408        2683.167
  21404599.06709  21404598.11109  21404603.24109   3430026.52609   3762191.50409
     -2066.464       -1610.234
  22996642.95207  22996642.04107  22996645.88407  -4980915.09107  -2301563.06607
      3609.886        2812.899
  23694885.91206  23694884.50306  23694890.07606   7076955.31106   8946225.52106
     -3474.617       -2707.482
  23214894.22707  23214893.72607  23214898.69707   8748880.74507   6980739.84707
     -2687.797       -2094.390
  22282164.54608  22282164.12708  22282168.39308   8041657.28108   7355670.99608
     -2844.586       -2216.557
  23567141.85705  23567141.30305  23567141.09605   9025741.09905   6088005.50805
     -3961.897       -3081.537
  20904433.83609  20904434.79509  20904437.25009   2890394.64509   3180182.87009
      -719.307        -559.465
  21398969.63708  21398970.41908  21398967.45708  -7204904.60608  -3273612.50108
      3445.529        2679.855
  20631305.39809  20631307.12209  20631309.44309  -2805197.10309  -2181789.08909
      2965.079        2306.171
 04  4 28 23  2 30.0000000  0 14G01G06G10G13G16G17G21G24G25G30R03R04
                                R05R21
  24515751.81705  24515750.74405  24515754.36505   3002031.55605   3918922.36005
     -1936.361       -1508.831
  20361007.51209  20361007.04709  20361011.69409   2140216.47009   3683164.62409
      -591.807        -461.149
  22594200.72908  22594199.72208  22594205.06408  -2901493.97908    244807.82708
      1459.925        1137.601
  24260326.01405  24260326.11605  24260330.15705   1659752.11905  -1321309.67605
       384.529         299.625
  23579978.57506  23579978.23006  23579982.25606  -6109774.97906  -4107180.65706
      3435.967        2677.371
  21416442.03608  21416441.18108  21416446.41908   3492261.96708   3810686.66008
     -2082.528       -1622.751
  22976055.97007  22976055.73707  22976060.78207  -5089094.34207  -2385858.54007
      3602.120        2806.842
  23714741.51706  23714741.67606  23714747.02406   7181301.39906   9027534.17906
     -3481.757       -2713.054
  23230274.97406  23230274.42006  23230279.23406   8829706.95406   7043721.29706
     -2700.573       -2104.340
  22298432.35308  22298432.26008  22298436.37008   8127144.85808   7422284.68008
     -2854.542       -2224.316
  23589316.56405  23589318.43805  23589320.85405   9144752.21905   6180569.70305
     -3972.084       -3089.403
  20908536.63909  20908537.99409  20908540.26409   2912365.49209   3197271.30809
      -745.466        -579.805
  21379689.10508  21379689.70208  21379686.44308  -7308007.66608  -3353803.74308
      3428.009        2666.232
  20614721.96809  20614723.74609  20614726.12009  -2893967.66409  -2250832.83209
      2953.003        2296.779
 04  4 28 23  3  0.0000000  0 14G01G06G10G13G16G17G21G24G25G30R03R04
                                R05R21
  24526848.97105  24526846.60805  24526852.87705   3060347.75805   3964363.57805
     -1951.584       -1520.715
  20364430.65909  20364430.36809  20364434.90109   2158206.10309   3697182.52209
      -607.677        -473.518
  22585915.79708  22585914.99308  22585920.08708  -2945031.22608    210882.71908
      1442.336        1123.887
  24258183.60405  24258182.50705  24258186.30805   1648495.58005  -1330081.03505
       365.667         284.942
  23560383.91206  23560383.15606  23560387.86306  -6212747.32706  -4187418.82406
      3428.633        2671.672
  21428374.53108  21428374.02108  21428379.56208   3554971.66408   3859551.36008
     -2098.319       -1635.054
  22955514.05307  22955513.50207  22955517.39007  -5197046.85207  -2469977.35007
      3594.519        2800.928
  23734638.14606  23734636.29606  23734641.92006   7285852.12406   9109002.28906
     -3488.543       -2718.336
  23245727.30907  23245727.22507  23245731.95007   8910908.05007   7106994.86107
     -2713.027       -2114.042
  22314755.65608  22314755.50908  22314759.42808   8212923.01608   7489124.80408
     -2864.211       -2231.857
  23611550.78304  23611550.78304  23611551.94904   9264057.42804   6273362.67604
     -3981.870       -3097.038
  20912783.76309  20912784.81809  20912787.42409   2935108.68009   3214960.45809
      -771.159        -599.789
  21360505.31108  21360506.07508  21360503.23908  -7410590.20308  -3433590.13308
      3410.568        2652.665
  20598205.76909  20598207.33409  20598209.59109  -2982383.49109  -2319600.67209
      2941.160        2287.569
 04  4 28 23  3 30.0000000  0 14G01G06G10G13G16G17G21G24G25G30R03R04
                                R05R21
  24538033.17205  24538033.00405  24538038.46605   3119124.13605   4010163.32505
     -1967.043       -1532.791
  20367945.06009  20367944.61609  20367949.20609   2176673.66909   3711572.84009
      -623.721        -486.015
  22577732.80308  22577731.37908  22577736.41508  -2988036.89508    177371.81908
      1424.490        1109.995
  24256151.20906  24256150.53406  24256151.54806   1637807.27206  -1338409.55006
       346.655         270.109
  23540831.53706  23540831.14506  23540834.78106  -6315496.23206  -4267482.84906
      3421.067        2665.762
  21440398.04608  21440397.58208  21440402.98708   3618155.80608   3908785.75908
     -2114.167       -1647.404
  22935015.78607  22935014.65007  22935018.61307  -5304767.58607  -2553915.52207
      3586.687        2794.822
  23754572.39305  23754570.73505  23754576.46405   7390607.89605   9190630.14505
     -3495.382       -2723.669
  23261251.32407  23261249.65107  23261254.94507   8992483.44007   7170560.07807
     -2725.550       -2123.804
  22331133.98108  22331133.95408  22331138.23808   8298992.64108   7556192.02608
     -2873.989       -2239.468
  23633838.76905  23633839.17105  23633839.92905   9383655.97405   6366383.81005
     -3991.648       -3104.600
  20917175.48309  20917176.71509  20917179.20009   2958626.52209   3233252.11709
      -797.120        -619.984
  21341420.20508  21341420.84108  21341418.62508  -7512645.40008  -3512966.38008
      3392.827        2638.865
  20581755.79409  20581757.17609  20581759.72109  -3070439.53509  -2388088.67409
      2928.988        2278.097
 04  4 28 23  4  0.0000000  0 14G01G06G10G13G16G17G21G24G25G30R03R04
                                R05R21
  24549305.86905  24549304.75705  24549310.93605   3178359.51305   4056320.71605
     -1982.048       -1544.431
  20371550.19909  20371549.87209  20371554.40809   2195619.99009   3726336.20909
      -639.384        -498.221
  22569650.48507  22569649.26807  22569654.23807  -3030508.33507    144277.20307
      1406.937        1096.319
  24254224.27205  24254223.75905  24254229.08705   1627688.79205  -1346294.10605
       327.904         255.540
  23521321.60207  23521320.62207  23521325.22307  -6418017.71207  -4347369.65207
      3413.711        2660.041
  21452511.97609  21452511.30409  21452516.20609   3681813.14309   3958388.88709
     -2129.638       -1659.459
  22914562.33207  22914561.39907  22914565.07207  -5412253.12807  -2637670.44107
      3579.021        2788.847
  23774545.28005  23774544.91105  23774548.52705   7495566.99705   9272416.44405
     -3501.836       -2728.703
  23276844.46807  23276843.83807  23276849.09407   9074431.47807   7234415.67407
     -2737.631       -2133.224
  22347567.40108  22347567.48808  22347572.16208   8385353.04508   7623485.83508
     -2883.367       -2246.784
  23656180.20805  23656180.61905  23656181.61105   9503544.29505   6459630.29205
     -4000.867       -3111.766
  20921711.43009  20921712.87809  20921715.60309   2982917.91709   3252145.42609
      -822.606        -639.807
  21322434.76908  21322435.92308  21322433.56608  -7614167.96808  -3591928.35008
      3375.276        2625.213
  20565374.57609  20565375.85709  20565378.46209  -3158130.39509  -2456292.64409
      2917.061        2268.823
 04  4 28 23  4 30.0000000  0 14G01G06G10G13G16G17G21G24G25G30R03R04
                                R05R21
  24560662.17503  24560661.84003  24560669.24703   3238050.17603   4102832.89503
     -1997.246       -1556.281
  20375246.63109  20375246.20009  20375250.56509   2215042.92809   3741470.97209
      -655.290        -510.616
  22561670.01308  22561668.66708  22561673.72708  -3072445.37708    111599.00708
      1389.032        1082.364
  24252403.45805  24252406.92705  24252409.54405   1618139.28605  -1353735.26205
       308.919         240.690
  23501856.45206  23501855.55306  23501859.55806  -6520310.88606  -4427078.55406
      3405.970        2653.993
  21464714.86609  21464714.18909  21464719.26109   3745940.21209   4008358.04309
     -2145.308       -1671.671
  22894152.41007  22894152.06507  22894155.94507  -5519502.20807  -2721241.10907
      3571.055        2782.630
  23794553.17105  23794554.09105  23794560.04805   7600725.59005   9354358.20505
     -3508.511       -2733.900
  23292509.29206  23292508.47406  23292513.60606   9156747.84906   7298558.27106
     -2749.918       -2142.798
  22364056.25608  22364056.05508  22364060.10508   8472001.09508   7691003.77208
     -2892.969       -2254.263
  23678569.90804  23678572.78904  23678575.44804   9623716.95604   6553097.98004
     -4010.484       -3119.224
  20926391.89109  20926393.19809  20926395.86409   3007980.68509   3271638.69909
      -848.016        -659.565
  21303549.89108  21303550.70108  21303548.02708  -7715155.49308  -3670474.18508
      3357.352        2611.275
  20549061.54409  20549062.85109  20549065.08109  -3245456.96709  -2524213.27809
      2904.823        2259.307
 04  4 28 23  5  0.0000000  0 14G01G06G10G13G16G17G21G24G25G30R03R04
                                R05R21
  24572109.72005  24572108.06005  24572112.89205   3298192.04505   4149696.68205
     -2012.278       -1567.977
  20379032.85409  20379032.45509  20379037.11109   2234940.42909   3756975.52109
      -671.173        -522.993
  22553791.14308  22553790.02808  22553795.06508  -3113847.96808     79337.26308
      1371.142        1068.420
  24250698.31706  24250698.41306  24250699.95106   1609157.52706  -1360734.04606
       289.898         225.885
  23482434.01706  23482432.94706  23482437.04506  -6622374.52806  -4506608.60206
      3398.237        2647.974
  21477006.91509  21477005.86509  21477010.96809   3810532.74409   4058689.88909
     -2160.831       -1683.765
  22873789.69707  22873788.18307  22873792.14607  -5626514.36207  -2804627.17707
      3563.067        2776.414
  23814601.82105  23814603.00505  23814608.00305   7706079.54505   9436452.22605
     -3515.057       -2738.979
  23308242.14607  23308241.90007  23308247.38907   9239428.14307   7362984.45307
     -2762.083       -2152.269
  22380597.99408  22380598.42608  22380602.85108   8558933.20408   7758743.06608
     -2902.480       -2261.676
  23701020.32505  23701020.54105  23701022.14805   9744168.84705   6646782.85205
     -4019.689       -3126.356
  20931215.63909  20931217.09009  20931219.26909   3033812.07109   3291729.78009
      -873.979        -679.764
  21284764.94708  21284766.38608  21284763.10908  -7815605.60508  -3748602.02708
      3339.307        2597.242
  20532815.55709  20532817.37609  20532820.00209  -3332417.75409  -2591849.41909
      2892.602        2249.801
 04  4 28 23  5 30.0000000  0 14G01G06G10G13G16G17G21G24G25G30R03R04
                                R05R21
  24583639.01604  24583638.72204  24583644.66704   3358787.45404   4196913.83404
     -2027.441       -1579.800
  20382910.54409  20382909.95309  20382914.39909   2255316.71709   3772853.15209
      -687.269        -535.537
  22546016.07408  22546014.44308  22546019.44108  -3154709.50008     47497.11708
      1352.907        1054.207
  24249095.53005  24249097.45805  24249101.09505   1600748.61405  -1367286.44205
       270.667         210.894
  23463056.81807  23463056.21207  23463059.85507  -6724201.13007  -4585953.94607
      3390.139        2641.661
  21489387.04509  21489386.33409  21489391.56609   3875592.93709   4109386.14309
     -2176.553       -1696.014
  22853472.12307  22853471.12207  22853475.14507  -5733282.27507  -2887822.91007
      3554.731        2769.916
  23834687.65805  23834688.72505  23834693.37805   7811630.82005   9518700.00205
     -3521.756       -2744.231
  23324046.07407  23324045.48307  23324049.68307   9322474.01407   7427695.50207
     -2774.364       -2161.834
  22397195.37108  22397195.69208  22397200.15008   8646152.23308   7826705.92708
     -2912.173       -2269.229
  23723517.77005  23723518.45405  23723518.97305   9864899.99805   6740684.92805
     -4029.146       -3133.764
  20936183.91309  20936185.22709  20936187.58609   3060414.90509   3312420.86809
      -899.722        -699.782
  21266082.93008  21266083.57208  21266080.87408  -7915509.41208  -3826304.96608
      3320.881        2582.903
  20516640.72809  20516642.14309  20516644.19109  -3419006.81909  -2659196.43809
      2879.975        2239.977
 04  4 28 23  6  0.0000000  0 14G01G06G10G13G16G17G21G24G25G30R03R04
                                R05R21
  24595254.39704  24595255.16404  24595259.59804   3419828.91204   4244478.58604
     -2042.069       -1591.207
  20386877.82309  20386877.39109  20386881.86409   2276166.30409   3789099.58709
      -702.801        -547.636
  22538341.78908  22538341.16508  22538345.74308  -3195033.84808     16075.55508
      1335.231        1040.436
  24247609.37506  24247605.34006  24247608.11906   1592907.75406  -1373396.20206
       251.933         196.333
  23443724.91707  23443723.96407  23443728.27507  -6825793.45607  -4665116.73507
      3382.536        2635.746
  21501855.81809  21501854.71809  21501859.73909   3941113.53609   4160441.15809
     -2191.606       -1707.741
  22833199.96907  22833199.44707  22833203.48807  -5839808.80207  -2970830.55307
      3546.889        2763.810
  23854810.71105  23854810.98705  23854814.84805   7917372.25605   9601095.94905
     -3527.817       -2748.977
  23339917.10507  23339916.16907  23339920.92407   9405877.48307   7492685.21207
     -2785.971       -2170.899
  22413846.23708  22413846.07508  22413850.35908   8733651.30808   7894887.00508
     -2921.223       -2276.280
  23746063.88705  23746066.56105  23746068.39305   9985902.01005   6834797.63205
     -4037.827       -3140.521
  20941294.31109  20941295.77709  20941298.37009   3087782.22909   3333706.56509
      -924.935        -719.395
  21247502.09008  21247503.22108  21247500.01308  -8014868.56108  -3903584.28008
      3302.917        2568.936
  20500533.86609  20500535.39809  20500537.67909  -3505226.87309  -2726256.45609
      2867.865        2230.561
 04  4 28 23  6 30.0000000  0 14G01G06G10G13G16G17G21G24G25G30R03R04
                                R05R21
  24606956.17204  24606955.12504  24606960.55504   3481314.34004   4292389.28604
     -2057.094       -1602.907
  20390935.41809  20390935.01309  20390939.54009   2297488.75209   3805714.48809
      -718.782        -560.091
  22530771.27407  22530770.25707  22530775.12007  -3234818.89807    -14925.77107
      1316.999        1026.223
  24246217.16005  24246222.02305  24246224.97905   1585635.41105  -1379062.97905
       232.755         181.358
  23424436.60907  23424436.53107  23424440.83307  -6927148.54507  -4744094.64607
      3374.360        2629.366
  21514411.32409  21514410.22409  21514415.27209   4007092.41509   4211853.28109
     -2207.075       -1719.801
  22812974.96507  22812974.76407  22812978.94607  -5946091.51807  -3053648.21707
      3538.499        2757.265
  23874968.22205  23874967.97405  23874973.28305   8023301.64305   9683638.31605
     -3534.258       -2753.948
  23355855.99607  23355854.65607  23355860.06807   9489635.52907   7557951.18007
     -2798.000       -2180.271
  22430549.06308  22430549.55508  22430553.85108   8821428.69208   7963284.95408
     -2930.709       -2283.670
  23768667.08105  23768667.28805  23768668.39105  10107170.62805   6929117.71505
     -4046.806       -3147.560
  20946547.65209  20946549.00709  20946551.43209   3115913.33509   3355586.32509
      -950.683        -739.419
  21229023.61808  21229025.07508  21229021.92108  -8113678.46208  -3980436.40608
      3284.287        2554.444
  20484496.83709  20484498.31509  20484500.45509  -3591075.19409  -2793027.34209
      2855.207        2220.718
 04  4 28 23  7  0.0000000  0 14G01G06G10G13G16G17G21G24G25G30R03R04
                                R05R21
  24618739.79004  24618740.79704  24618746.82004   3543251.54004   4340651.98704
     -2071.628       -1614.234
  20395084.61509  20395084.26409  20395088.89909   2319293.66709   3822705.33309
      -734.561        -572.383
  22523305.23308  22523304.09408  22523309.31308  -3274053.13508    -45497.89308
      1298.946        1012.162
  24244950.83406  24244947.14306  24244951.16706   1578942.02906  -1384278.56306
       213.788         166.589
  23405197.50907  23405197.49107  23405200.18007  -7028253.70307  -4822877.83107
      3366.306        2623.094
  21527055.29009  21527053.87209  21527059.33709   4073537.13509   4263628.38309
     -2222.202       -1731.585
  22792800.15907  22792798.66007  22792802.72807  -6052117.19307  -3136265.57307
      3530.232        2750.823
  23895164.83305  23895164.08605  23895169.45505   8129426.32405   9766332.88705
     -3540.375       -2758.744
  23371863.27107  23371862.25407  23371867.50107   9573755.50007   7623499.17307
     -2809.650       -2189.345
  22447307.76408  22447307.59308  22447311.89808   8909492.84308   8031906.35508
     -2939.886       -2290.826
  23791312.63005  23791315.09405  23791316.94705  10228712.40705   7023650.23305
     -4055.569       -3154.335
  20951945.20209  20951946.68909  20951948.95309   3144817.47909   3378067.33209
      -975.972        -759.089
  21210651.36508  21210652.43808  21210649.53908  -8211925.09708  -4056850.42908
      3265.776        2540.048
  20468531.60509  20468532.91009  20468535.03809  -3676539.25809  -2859499.36609
      2842.716        2211.001
 04  4 28 23  7 30.0000000  0 14G01G06G10G13G16G17G21G24G25G30R03R04
                                R05R21
  24630610.79504  24630611.70304  24630616.89004   3605632.25304   4389260.31904
     -2086.811       -1626.045
  20399324.73209  20399324.35209  20399328.66609   2341574.90709   3840067.34409
      -750.752        -585.000
  22515943.52108  22515942.35408  22515947.20808  -3312740.88108    -75644.17408
      1280.359         997.680
  24243782.69805  24243784.20305  24243786.52105   1572822.22205  -1389047.27105
       194.329         151.423
  23386004.79307  23386004.04907  23386008.28807  -7129112.24007  -4901468.83807
      3357.694        2616.384
  21539785.80609  21539784.76209  21539790.33809   4140439.25609   4315759.90309
     -2237.781       -1743.730
  22772671.01707  22772671.08607  22772674.97107  -6157890.09307  -3218685.97307
      3521.427        2743.964
  23915394.91805  23915394.29105  23915398.47605   8235737.83205   9849172.99605
     -3546.913       -2763.842
  23387937.75906  23387937.11406  23387942.34806   9658228.59906   7689322.32806
     -2821.731       -2198.748
  22464118.51208  22464118.96208  22464122.60508   8997835.76708   8100744.98208
     -2949.500       -2298.319
  23814013.99105  23814014.87305  23814015.29805  10350517.25605   7118387.34205
     -4064.647       -3161.364
  20957486.00809  20957487.29709  20957489.66309   3174487.46909   3401143.99309
     -1001.977        -779.319
  21192383.33408  21192384.39608  21192381.50008  -8309610.23908  -4132827.73708
      3246.675        2525.189
  20452637.25709  20452638.33909  20452640.72809  -3761622.24309  -2925674.99409
      2829.586        2200.788
 04  4 28 23  8  0.0000000  0 14G01G06G10G13G16G17G21G24G25G30R03R04
                                R05R21
  24642568.22104  24642567.02204  24642574.30104   3668460.23804   4438217.16804
     -2101.768       -1637.739
  20403656.42809  20403656.06509  20403660.27709   2364337.65809   3857804.56009
      -766.750        -597.469
  22508686.13007  22508685.53907  22508690.27307  -3350874.51707   -105358.68107
      1261.879         983.284
  24242734.51606  24242730.41206  24242730.11506   1567282.33706  -1393364.04306
       174.969         136.359
  23366860.07007  23366859.54907  23366864.27607  -7229715.16107  -4979860.68807
      3349.144        2609.735
  21552604.63408  21552603.95408  21552608.95708   4207803.01108   4368251.14508
     -2253.115       -1755.673
  22752592.15607  22752592.37807  22752596.67707  -6263401.37307  -3300902.52107
      3512.667        2737.143
  23935657.85405  23935660.80405  23935665.66305   8342240.11705   9932161.77805
     -3553.246       -2768.739
  23404079.13606  23404079.59506  23404085.09006   9743058.25406   7755423.31806
     -2833.558       -2207.964
  22480984.04508  22480983.88008  22480987.43808   9086462.04908   8169804.40508
     -2958.902       -2305.632
  23836756.99404  23836759.13104  23836763.79904  10472586.57004   7213330.13704
     -4073.449       -3168.187
  20963170.49309  20963171.66809  20963174.04609   3204926.88909   3424819.09709
     -1027.415        -799.100
  21174222.39008  21174223.63108  21174220.86108  -8406723.93708  -4208360.59208
      3227.565        2510.328
  20436815.65609  20436817.24209  20436819.44209  -3846316.20109  -2991548.05209
      2816.594        2190.684
 04  4 28 23  8 30.0000000  0 14G01G06G10G13G16G17G21G24G25G30R03R04
                                R05R21
  24654605.62603  24654606.05403  24654612.58703   3731728.18803   4487516.84303
     -2115.999       -1648.831
  20408078.33609  20408078.13809  20408082.68609   2387577.14109   3875913.25109
      -782.417        -609.676
  22501534.94108  22501534.15508  22501538.67008  -3388457.04608   -134643.75208
      1243.728         969.136
  24241785.55006  24241784.00606  24241788.44306   1562317.94906  -1397232.41406
       156.049         121.581
  23347764.74507  23347764.50807  23347768.51907  -7330064.48607  -5058054.92307
      3340.902        2603.299
  21565510.16908  21565509.19508  21565514.49208   4275621.04708   4421096.36608
     -2267.960       -1767.241
  22732563.18107  22732563.46307  22732567.78907  -6368653.52607  -3382917.15007
      3504.250        2730.577
  23955961.69105  23955962.10505  23955967.82505   8448926.01905  10015293.65005
     -3559.066       -2773.298
  23420289.80507  23420288.21007  23420293.47107   9828236.82107   7821796.18707
     -2844.845       -2216.768
  22497902.69408  22497901.88808  22497905.65008   9175365.08508   8239079.48508
     -2967.825       -2312.586
  23859556.02705  23859558.05105  23859559.34605  10594913.14005   7308473.00905
     -4081.593       -3174.582
  20968997.07609  20968998.46709  20969000.89009   3236129.21709   3449087.58509
     -1052.600        -818.693
  21156168.46808  21156169.82908  21156166.67608  -8503266.92508  -4283449.56208
      3208.699        2495.653
  20421066.26009  20421067.74409  20421069.59709  -3930623.19909  -3057120.13309
      2803.979        2180.872
 04  4 28 23  9  0.0000000  0 14G01G06G10G13G16G17G21G24G25G30R03R04
                                R05R21
  24666732.40104  24666729.51404  24666735.45604   3795435.79904   4537159.16204
     -2130.900       -1660.431
  20412591.91009  20412591.52909  20412596.01709   2411294.42209   3894394.25409
      -798.580        -622.269
  22494488.79508  22494487.54508  22494492.57308  -3425485.08308   -163496.76008
      1224.981         954.536
  24240955.30807  24240948.85307  24240953.43707   1557931.39707  -1400650.48107
       136.560         106.426
  23328718.15307  23328717.48807  23328721.26207  -7430155.57307  -5136047.92907
      3332.016        2596.377
  21578501.59109  21578500.99509  21578505.95909   4343892.74509   4474295.10209
     -2283.288       -1779.187
  22712585.77907  22712585.26907  22712588.63907  -6473642.27407  -3464726.52507
      3495.179        2723.520
  23976295.97505  23976299.03905  23976304.96205   8555795.34405  10098568.45805
     -3565.386       -2778.199
  23436564.52407  23436563.60107  23436568.96107   9913763.16907   7888440.03107
     -2856.688       -2225.990
  22514872.29008  22514872.52108  22514875.77408   9264544.86708   8308570.22108
     -2977.264       -2319.944
  23882399.46605  23882401.23505  23882402.59305  10717494.46205   7403814.08405
     -4090.235       -3181.293
  20974966.96109  20974968.34309  20974970.21609   3268095.98209   3473950.63309
     -1078.342        -838.707
  21138222.38508  21138223.60208  21138220.65808  -8599233.41908  -4358090.14408
      3189.217        2480.499
  20405389.85809  20405391.19509  20405393.91109  -4014539.43509  -3122388.29609
      2790.606        2170.467
 04  4 28 23  9 30.0000000  0 14G01G06G10G13G16G17G21G24G25G30R03R04
                                R05R21
  24678939.45004  24678937.86104  24678944.14104   3859585.53504   4587145.92404
     -2145.683       -1672.002
  20417196.92609  20417196.47009  20417201.03009   2435494.16909   3913251.20409
      -814.702        -634.833
  22487548.97508  22487548.11108  22487553.28908  -3461952.03008   -191912.55108
      1206.216         939.908
  24240224.83405  24240226.13805  24240229.78605   1554127.86205  -1403614.28705
       117.081          91.221
  23309721.57407  23309721.21107  23309725.54307  -7529980.70107  -5213833.70707
      3323.078        2589.414
  21591579.65308  21591579.51308  21591584.58208   4412621.21708   4527849.75408
     -2298.506       -1791.045
  22692658.88607  22692657.66907  22692661.76707  -6578360.28507  -3546324.92907
      3486.076        2716.423
  23996668.43705  23996671.45305  23996676.34005   8662850.39705  10181987.98905
     -3571.571       -2783.042
  23452906.13606  23452905.38606  23452911.41506   9999639.56506   7955356.65306
     -2868.299       -2235.041
  22531896.52708  22531896.31108  22531899.53108   9354004.84708   8378279.27908
     -2986.627       -2327.247
  23905289.11205  23905291.27905  23905294.55905  10840331.87705   7499354.32505
     -4098.813       -3187.934
  20981080.00809  20981081.02409  20981083.06809   3300829.55809   3499410.08309
     -1103.969        -858.642
  21120386.16108  21120387.06608  21120384.25408  -8694614.29808  -4432275.25208
      3169.578        2465.223
  20389788.45409  20389789.91109  20389791.86009  -4098056.16709  -3187345.73409
      2777.288        2160.113
 04  4 28 23 10  0.0000000  0 14G01G06G10G13G16G17G21G24G25G30R03R04
                                R05R21
  24691228.76404  24691227.65504  24691235.08704   3924176.60204   4637476.64804
     -2160.537       -1683.573
  20421894.14309  20421893.73809  20421898.02209   2460177.49709   3932484.97609
      -831.033        -647.558
  22480716.94808  22480715.85308  22480721.10008  -3497854.86008   -219888.76608
      1187.147         925.046
  24239610.43005  24239613.85405  24239615.76605   1550909.07505  -1406122.47505
        97.372          75.857
  23290776.64807  23290776.45907  23290779.94907  -7629535.75707  -5291409.03907
      3313.772        2582.144
  21604745.45309  21604744.84709  21604749.87509   4481805.39509   4581759.50809
     -2313.899       -1803.041
  22672783.60907  22672782.81107  22672787.02907  -6682802.99807  -3627708.82807
      3476.631        2709.064
  24017076.69505  24017077.62405  24017082.19605   8770090.48105  10265551.68605
     -3577.929       -2787.990
  23469314.59907  23469313.72007  23469319.99807  10085864.43707   8022544.80607
     -2880.136       -2244.252
  22548973.05908  22548973.00808  22548976.84208   9443744.65208   8448206.38908
     -2996.152       -2334.660
  23928229.76405  23928229.82105  23928231.20005  10963422.73105   7595091.71505
     -4107.386       -3194.623
  20987335.72009  20987336.97309  20987339.11009   3334330.69209   3525466.52109
     -1129.613        -878.588
  21102659.62808  21102660.68908  21102657.61008  -8789404.21008  -4506000.71708
      3149.563        2449.656
  20374261.13909  20374262.87409  20374265.33309  -4181171.84809  -3251991.24609
      2763.597        2149.464
 04  4 28 23 10 30.0000000  0 14G01G06G10G13G16G17G21G24G25G30R03R04
                                R05R21
  24703605.02105  24703603.52505  24703609.25405   3989210.08505   4688152.01705
     -2175.002       -1694.792
  20426683.51309  20426683.17409  20426687.77009   2485347.36909   3952097.87109
      -846.905        -659.926
  22473993.12108  22473992.26108  22473997.16308  -3533188.69108   -247421.61408
      1168.472         910.506
  24239113.56005  24239112.65705  24239116.18305   1548278.73805  -1408172.04205
        78.037          60.796
  23271885.08207  23271884.67407  23271888.33207  -7728814.30607  -5368768.90707
      3304.826        2575.192
  21617997.68608  21617996.91508  21618001.82608   4551446.22708   4636025.09108
     -2328.764       -1814.614
  22652962.05107  22652961.62807  22652965.63607  -6786964.80907  -3708873.85407
      3467.519        2701.972
  24037519.76705  24037519.68605  24037525.59505   8877516.40905  10349260.20905
     -3583.759       -2792.527
  23485788.05007  23485788.17607  23485793.53307  10172438.37507   8090004.96707
     -2891.406       -2253.045
  22566104.15609  22566103.47609  22566107.00709   9533765.93509   8518352.83609
     -3005.216       -2341.730
  23951214.25505  23951214.70505  23951216.17705  11086767.04105   7691026.26105
     -4115.497       -3200.931
  20993735.35009  20993736.90309  20993739.04409   3368601.06209   3552121.25209
     -1154.965        -898.313
  21085045.14508  21085046.25708  21085043.45408  -8883595.71508  -4579260.75808
      3129.903        2434.368
  20358811.45109  20358812.57509  20358815.04009  -4263878.00809  -3316318.23709
      2750.158        2139.012
 04  4 28 23 11  0.0000000  0 14G01G06G10G13G16G17G21G24G25G30R03R04
                                R05R21
  24716063.47805  24716061.97605  24716069.84905   4054677.88005   4739165.87005
     -2189.096       -1705.771
  20431564.87509  20431564.29609  20431568.63409   2510997.33309   3972084.86009
      -862.604        -672.157
  22467376.78007  22467375.78107  22467380.86607  -3567957.82307   -274514.43907
      1149.956         896.073
  24238727.44807  24238723.58707  24238726.40507   1546231.55907  -1409767.31107
        58.894          45.911
  23253045.03907  23253044.63407  23253048.38807  -7827819.24507  -5445915.56407
      3295.991        2568.297
  21631335.12809  21631334.47509  21631339.93109   4621535.81809   4690640.35909
     -2343.364       -1826.000
  22633193.19007  22633193.08507  22633197.01307  -6890849.01207  -3789822.53607
      3458.547        2694.967
  24057993.77204  24057995.24104  24058002.47204   8985120.58104  10433107.60404
     -3589.332       -2796.844
  23502327.47106  23502327.72306  23502332.80806  10259353.15406   8157730.73106
     -2902.396       -2261.606
  22583285.38207  22583285.73607  22583289.87907   9624061.27607   8588712.82807
     -3013.962       -2348.548
  23974245.85005  23974246.53905  23974246.78505  11210354.90905   7787150.23405
     -4123.193       -3206.966
  21000277.58309  21000278.75309  21000281.19309   3403633.10509   3579368.40809
     -1180.113        -917.868
  21067542.64108  21067543.92708  21067540.92008  -8977190.30608  -4652056.52908
      3110.258        2419.086
  20343436.38209  20343438.21409  20343440.67809  -4346179.50109  -3380330.49809
      2737.052        2128.821
 04  4 28 23 11 30.0000000  0 14G01G06G10G13G16G17G21G24G25G30R03R04
                                R05R21
  24728601.99805  24728602.86105  24728609.32205   4120575.10505   4790514.34605
     -2203.541       -1717.052
  20436536.53409  20436536.12309  20436540.48209   2537124.64609   3992443.80809
      -878.731        -684.726
  22460867.68908  22460866.59508  22460872.07208  -3602163.14308   -301167.92108
      1130.904         881.221
  24238442.72305  24238443.77005  24238447.85305   1544765.18705  -1410909.96405
        39.324          30.651
  23234257.24607  23234256.68607  23234260.52307  -7926550.50207  -5522848.95207
      3286.588        2560.967
  21644757.17508  21644756.86708  21644761.90008   4692069.42908   4745601.61708
     -2358.363       -1837.684
  22613477.53407  22613477.13607  22613481.19807  -6994455.84507  -3870555.09107
      3449.084        2687.587
  24078505.80304  24078507.43704  24078509.97904   9092898.14404  10517090.15704
     -3595.295       -2801.529
  23518931.59006  23518930.73906  23518935.96106  10346603.19406   8225717.72506
     -2913.755       -2270.461
  22600520.82508  22600520.00708  22600523.40908   9714626.27208   8659282.95208
     -3023.176       -2355.722
  23997318.07204  23997320.69304  23997322.01204  11334180.72004   7883459.26804
     -4131.347       -3213.293
  21006961.06009  21006962.54409  21006964.65209   3439423.01609   3607205.01409
     -1205.458        -937.582
  21050152.01908  21050152.89108  21050149.92308  -9070187.28508  -4724387.49408
      3090.035        2403.362
  20328137.84109  20328139.16909  20328141.62409  -4428075.85909  -3444027.64709
      2723.233        2118.071
 04  4 28 23 12  0.0000000  0 14G01G06G10G13G16G17G21G24G25G30R03R04
                                R05R21
  24741225.89605  24741225.45805  24741232.03505   4186909.71905   4842203.59805
     -2218.518       -1728.708
  20441600.82309  20441600.73609  20441605.17009   2563739.08309   4013182.33709
      -895.374        -697.694
  22454468.61908  22454467.20708  22454471.90208  -3635792.70708   -327372.76508
      1111.252         865.909
  24238275.84705  24238278.52405  24238281.40205   1543890.01905  -1411591.88805
        19.227          14.976
  23215523.63507  23215522.85307  23215526.70807  -8024994.81507  -5599558.73007
      3276.556        2553.154
  21658265.57508  21658264.99608  21658270.00308   4763055.02008   4800915.07008
     -2373.803       -1849.713
  22593817.85508  22593816.81808  22593820.57408  -7097772.60808  -3951061.61908
      3438.877        2679.647
  24099048.72504  24099049.48604  24099056.54304   9200857.18104  10601214.03804
     -3601.717       -2806.499
  23535600.46207  23535598.95407  23535604.25707  10434196.10307   8293971.91307
     -2925.563       -2279.649
  22617805.67107  22617805.97707  22617810.76407   9805469.69907   8730070.01207
     -3032.854       -2363.256
  24020439.13404  24020441.05904  24020441.46604  11458250.39104   7979958.07104
     -4139.741       -3219.823
  21013787.68009  21013789.00209  21013791.17809   3475979.01209   3635637.45609
     -1231.372        -957.734
  21032875.52808  21032876.73608  21032873.39108  -9162571.85308  -4796242.13708
      3069.140        2387.103
  20312917.30309  20312918.58609  20312920.82009  -4509554.16809  -3507399.65109
      2708.852        2106.886
 04  4 28 23 12 30.0000000  0 14G01G06G10G13G16G17G21G24G25G30R03R04
                                R05R21
  24753930.86305  24753931.40905  24753937.17105   4253679.46105   4894231.93905
     -2232.518       -1739.614
  20446758.64809  20446757.80209  20446762.45809   2590840.27109   4034300.15109
      -911.125        -709.971
  22448178.40908  22448177.42008  22448182.98108  -3668844.92408   -353127.73908
      1092.461         851.269
  24238228.00906  24238223.78206  24238226.11106   1543606.56606  -1411812.74706
         -.038           -.041
  23196845.63307  23196844.93707  23196849.15507  -8123149.16807  -5676042.57507
      3267.308        2545.961
  21671859.24708  21671858.60808  21671863.81308   4834490.27308   4856578.90608
     -2388.278       -1860.995
  22574213.03007  22574212.26507  22574215.77607  -7200796.05307  -4031339.57907
      3429.580        2672.391
  24119631.97705  24119627.39605  24119632.78405   9308995.20905  10685477.42505
     -3607.151       -2810.779
  23552333.69607  23552332.56507  23552336.95707  10522129.02307   8362491.04907
     -2936.356       -2288.058
  22635146.33208  22635146.14608  22635150.37608   9896589.80908   8801072.69308
     -3041.563       -2370.052
  24043605.60203  24043606.96903  24043607.05003  11582560.35603   8076643.61103
     -4147.174       -3225.593
  21020756.84109  21020758.10609  21020760.33009   3513299.83909   3664664.76609
     -1256.320        -977.139
  21015714.15508  21015715.35408  21015711.97808  -9254340.01408  -4867617.35408
      3049.015        2371.457
  20297774.83709  20297776.16209  20297778.48209  -4590611.77309  -3570444.43809
      2695.156        2096.234
 04  4 28 23 13  0.0000000  0 14G01G06G10G13G16G17G21G24G25G30R03R04
                                R05R21
  24766719.69805  24766719.35305  24766725.06705   4320881.38305   4946597.04505
     -2247.420       -1751.249
  20452007.54909  20452007.36309  20452011.85409   2618427.13209   4055796.40209
      -927.800        -722.955
  22441997.79207  22441997.43207  22442003.16407  -3701318.86307   -378432.09107
      1072.656         835.840
  24238286.36706  24238282.54706  24238285.65006   1543914.32906  -1411572.94306
       -20.302         -15.833
  23178222.41207  23178222.31307  23178226.03607  -8221011.39907  -5752298.79907
      3257.003        2537.928
  21685538.10809  21685537.11309  21685542.63809   4906372.50109   4912591.03109
     -2403.677       -1872.992
  22554663.26707  22554663.24007  22554667.46407  -7303524.90207  -4111388.00107
      3419.165        2664.285
  24140237.49804  24140237.88804  24140245.73404   9417309.67904  10769878.33704
     -3613.581       -2815.756
  23569130.60806  23569129.66406  23569133.99606  10610398.45406   8431272.41306
     -2948.041       -2297.174
  22652538.22208  22652537.92208  22652542.15808   9987984.30808   8872289.16008
     -3051.229       -2377.589
  24066816.44003  24066815.89403  24066816.93703  11707106.57103   8173512.89603
     -4155.553       -3232.097
  21027868.28109  21027869.53409  21027872.16909   3551383.07609   3694285.06109
     -1282.348        -997.381
  20998668.30909  20998670.13809  20998667.05309  -9345488.58109  -4938510.66909
      3027.741        2354.909
  20282711.21009  20282712.60409  20282715.21809  -4671247.26409  -3633160.91609
      2680.629        2084.934
 04  4 28 23 13 30.0000000  0 14G01G06G10G13G16G17G21G24G25G30R03R04
                                R05R21
  24779589.30805  24779589.56605  24779595.02505   4388510.30505   4999294.87505
     -2261.557       -1762.274
  20457349.63209  20457348.97209  20457353.28309   2646496.42609   4077668.59409
      -943.809        -735.435
  22435929.40808  22435927.87908  22435933.11108  -3733215.95408   -403286.96008
      1053.463         820.880
  24238452.77205  24238452.52005  24238456.00705   1544810.75205  -1410874.43105
       -39.886         -31.085
  23159655.59307  23159654.88007  23159659.05607  -8318581.36707  -5828327.27607
      3247.275        2530.346
  21699301.12109  21699300.15609  21699305.03409   4978696.32809   4968947.26409
     -2418.277       -1884.372
  22535171.08807  22535170.41307  22535174.34607  -7405959.01807  -4191206.76407
      3409.391        2656.673
  24160884.01004  24160882.95204  24160888.09904   9525795.43304  10854412.68504
     -3619.204       -2820.200
  23585990.46306  23585989.84806  23585994.07506  10698998.91106   8500311.69706
     -2958.969       -2305.683
  22669981.41807  22669981.37307  22669985.80707  10079648.71807   8943715.95507
     -3060.114       -2384.502
  24090066.66404  24090068.39404  24090068.73504  11831882.31104   8270560.77004
     -4163.140       -3238.011
  21035122.38309  21035123.51909  21035125.39009   3590224.20509   3724494.83309
     -1307.449       -1016.904
  20981739.74009  20981741.03509  20981737.69509  -9436016.42509  -5008921.19509
      3007.044        2338.808
  20267727.01409  20267728.28509  20267730.32909  -4751462.14409  -3695550.25509
      2666.563        2073.995
 04  4 28 23 14  0.0000000  0 14G01G06G10G13G16G17G21G24G25G30R03R04
                                R05R21
  24792538.80804  24792539.67404  24792547.99604   4456568.99304   5052327.54204
     -2275.388       -1773.045
  20462782.92609  20462782.79409  20462787.35109   2675052.49609   4099920.07209
      -959.602        -747.742
  22429970.71208  22429969.32108  22429974.70908  -3764529.49308   -427687.10908
      1034.420         806.042
  24238735.71905  24238736.84105  24238739.46405   1546301.22505  -1409713.05605
       -59.202         -46.146
  23141146.18207  23141145.47707  23141149.44707  -8415851.05907  -5904121.77007
      3237.667        2522.857
  21713148.55908  21713147.33308  21713152.59108   5051464.92708   5025650.06808
     -2432.634       -1895.561
  22515736.42408  22515735.54608  22515739.47608  -7508091.03108  -4270790.11108
      3399.721        2649.127
  24181562.06304  24181559.29304  24181567.75604   9634455.75304  10939083.02304
     -3624.488       -2824.255
  23602913.24906  23602912.90406  23602918.03406  10787932.86906   8569610.87006
     -2969.601       -2313.984
  22687475.81908  22687476.11008  22687480.09408  10171586.47108   9015355.72808
     -3068.746       -2391.227
  24113361.12204  24113362.56704  24113364.45004  11956888.80504   8367788.02104
     -4170.349       -3243.627
  21042517.11809  21042518.97609  21042521.16209   3629826.98809   3755296.99909
     -1332.332       -1036.258
  20964928.66209  20964929.93009  20964926.86609  -9525914.31409  -5078841.76309
      2986.452        2322.795
  20252821.58109  20252822.93009  20252825.71009  -4831247.65409  -3757605.63209
      2652.721        2063.227
 04  4 28 23 14 30.0000000  0 14G01G06G10G13G16G17G21G24G25G30R03R04
                                R05R21
  24805571.02004  24805571.15704  24805577.84904   4525047.56704   5105687.41604
     -2289.796       -1784.260
  20468308.90209  20468308.23309  20468312.49009   2704087.79109   4122544.98209
      -975.964        -760.492
  22424121.60907  22424120.68807  22424125.74007  -3795265.57807   -451637.29807
      1014.731         790.701
  24239131.63105  24239130.65705  24239136.43705   1548378.36905  -1408094.50605
       -79.200         -61.711
  23122692.83507  23122691.78307  23122695.34707  -8512825.04407  -5979685.86407
      3227.349        2514.820
  21727078.60708  21727077.63308  21727083.01708   5124668.58908   5082691.88708
     -2447.515       -1907.157
  22496357.82207  22496356.95807  22496361.33807  -7609925.66607  -4350141.74407
      3389.354        2641.056
  24202271.76805  24202269.84005  24202275.80605   9743280.84305  11023881.85405
     -3630.403       -2828.902
  23619898.49505  23619897.85305  23619902.76105  10877189.99805   8639161.83605
     -2980.774       -2322.669
  22705022.27907  22705022.10207  22705026.34107  10263788.41407   9087201.40107
     -3077.946       -2398.395
  24136697.87605  24136699.31205  24136700.41505  12082115.70905   8465186.85405
     -4177.992       -3249.551
  21050053.15609  21050054.59209  21050057.01809   3670181.64509   3786683.95509
     -1357.915       -1056.159
  20948234.05309  20948234.98609  20948232.20109  -9615186.04409  -5148275.30909
      2965.085        2306.175
  20237996.89209  20237998.27709  20238000.40609  -4910608.72009  -3819330.89209
      2638.148        2051.893
 04  4 28 23 15  0.0000000  0 15G01G06G10G13G16G17G21G24G25G30R03R04
                                R05R06R21
  24818682.56604  24818681.45004  24818688.22904   4593947.25504   5159375.46404
     -2303.670       -1795.050
  20473925.74109  20473925.16309  20473929.62609   2733605.33609   4145545.66809
      -991.949        -772.943
  22418383.38907  22418382.43607  22418387.40607  -3825419.39807   -475133.76907
       995.432         775.653
  24239638.03206  24239639.83106  24239642.21106   1551045.83406  -1406015.98506
       -98.755         -76.943
  23104296.20607  23104295.91807  23104299.11407  -8609497.00407  -6055014.61407
      3217.357        2507.037
  21741091.81808  21741090.82908  21741095.85708   5198307.99908   5140073.25808
     -2461.863       -1918.338
  22477037.24108  22477036.20108  22477040.46708  -7711456.76908  -4429256.85308
      3379.309        2633.226
  24223006.27203  24223009.80903  24223015.63103   9852272.12103  11108810.15703
     -3635.877       -2833.152
  23636946.19606  23636944.63106  23636950.48606  10966770.93006   8708965.11306
     -2991.396       -2330.950
  22722617.51507  22722617.41907  22722622.53107  10356256.39807   9159254.34207
     -3086.659       -2405.194
  24160075.19105  24160075.32305  24160078.03005  12207562.62405   8562756.68905
     -4185.127       -3255.115
  21057730.19709  21057731.11109  21057733.19209   3711289.73009   3818656.91509
     -1382.785       -1075.498
  20931658.19609  20931659.59009  20931656.83509  -9703824.28909  -5217216.15209
      2944.015        2289.788
          .00005          .00005          .00005    432802.70715   1734808.24115
      4779.221        3717.150
  20223251.84309  20223253.24309  20223255.35409  -4989538.70209  -3880720.86009
      2623.816        2040.744
 04  4 28 23 15 30.0000000  0 15G01G06G10G13G16G17G21G24G25G30R03R04
                                R05R06R21
  24831872.73804  24831872.66304  24831876.80604   4663261.82204   5213386.78904
     -2317.553       -1805.852
  20479633.52309  20479633.08209  20479637.65109   2763600.72109   4168918.69709
     -1007.953        -785.421
  22412756.22807  22412754.85207  22412759.84007  -3854993.20607   -498178.28507
       975.954         760.482
  24240259.37606  24240258.31406  24240262.54406   1554299.98206  -1403480.27706
      -118.397         -92.249
  23085957.55607  23085956.83707  23085960.87207  -8705867.86307  -6130108.75307
      3207.165        2499.097
  21755186.21608  21755185.60108  21755191.02808   5272377.88108   5197790.04708
     -2476.296       -1929.578
  22457773.42008  22457773.14408  22457776.60108  -7812685.79908  -4508136.58408
      3369.082        2625.260
  24243775.89303  24243779.86803  24243785.72603   9961423.71903  11193863.34503
     -3641.299       -2837.337
  23654053.00706  23654051.89206  23654057.05406  11056669.05006   8779015.56006
     -3002.009       -2339.227
  22740263.59908  22740263.59908  22740267.93408  10448984.86308   9231510.28908
     -3095.428       -2412.032
  24183491.40405  24183492.59105  24183493.92005  12333221.94905   8660491.74205
     -4192.283       -3260.663
  21065547.25509  21065547.97209  21065549.83309   3753146.36809   3851212.08409
     -1407.801       -1094.958
  20915201.22609  20915202.21909  20915199.47909  -9791828.77209  -5285664.06109
      2922.724        2273.231
          .00003          .00003          .00003    289434.94013   1623300.01913
      4778.503        3716.591
  20208587.21909  20208588.56209  20208590.92209  -5068039.83409  -3941777.28109
      2609.324        2029.473
 04  4 28 23 16  0.0000000  0 14G01G06G10G13G16G17G21G24G25G30R04R05
                                R06R21
  24845141.79503  24845142.15203  24845149.41003   4732995.88103   5267724.89603
     -2331.288       -1816.536
  20485433.73609  20485433.24509  20485437.52609   2794080.19409   4192668.94009
     -1023.975        -797.903
  22407240.14808  22407238.79008  22407244.08808  -3883978.71508   -520764.38508
       956.431         745.266
  24240988.19205  24240990.29105  24240994.24205   1558147.58305  -1400482.15805
      -138.092        -107.604
  23067678.44007  23067677.29407  23067681.28807  -8801927.81607  -6204960.62107
      3196.845        2491.039
  21769363.78508  21769363.06308  21769368.73508   5346882.23708   5255845.38908
     -2490.636       -1940.759
  22438569.87508  22438569.04808  22438572.97808  -7913603.53608  -4586773.74508
      3358.772        2617.230
  24264579.66703  24264582.35903  24264588.67603  10070739.93103  11279044.85003
     -3646.620       -2841.526
  23671222.04007  23671220.11207  23671225.79607  11146888.18607   8849316.13807
     -3012.557       -2347.451
  22757959.77207  22757959.23607  22757964.82707  10541978.95607   9303973.19507
     -3104.144       -2418.821
  21073503.92109  21073505.07509  21073507.02709   3795755.72809   3884352.69109
     -1432.755       -1114.366
  20898864.01008  20898864.89108  20898862.62708  -9879189.16108  -5353611.01308
      2901.281        2256.550
          .00003          .00003          .00003    146095.77713   1511814.12813
      4777.604        3715.935
  20194004.33409  20194005.58109  20194007.82609  -5146103.03709  -4002493.09009
      2594.897        2018.254
 04  4 28 23 16 30.0000000  0 14G01G06G10G13G16G17G21G24G25G30R04R05
                                R06R21
  24858493.73004  24858493.18104  24858498.42204   4803148.80404   5322389.46204
     -2345.811       -1827.919
  20491325.77009  20491325.47409  20491330.00009   2825045.30109   4216797.59509
     -1040.583        -810.844
  22401836.98608  22401835.82908  22401840.79308  -3912372.63208   -542889.50508
       936.254         729.546
  24241840.10006  24241835.93606  24241839.87806   1562591.03706  -1397019.73306
      -158.388        -123.433
  23049458.21707  23049457.75807  23049461.86007  -8897671.91607  -6279566.38707
      3185.853        2482.487
  21783624.31608  21783623.53608  21783628.94108   5421820.85108   5314239.11308
     -2505.489       -1952.329
  22419426.17208  22419425.46808  22419429.06508  -8014205.53808  -4665164.88308
      3347.780        2608.657
  24285412.88404  24285416.20504  24285419.31404  10180220.65804  11364354.49804
     -3652.470       -2846.092
  23688449.40406  23688449.07706  23688454.52106  11237427.64606   8919866.31506
     -3023.629       -2356.062
  22775706.41007  22775706.44607  22775710.84307  10635238.80207   9376643.20807
     -3113.396       -2426.024
  21081601.13809  21081602.22009  21081604.69109   3839118.75509   3918079.49009
     -1458.226       -1134.180
  20882649.17709  20882649.91709  20882646.82909  -9965899.66309  -5421052.49109
      2879.148        2239.335
          .00004          .00004          .00004      2791.54114   1400355.19714
      4775.896        3714.550
  20179503.78009  20179505.45909  20179507.59409  -5223724.24809  -4062865.12909
      2579.649        2006.394
 04  4 28 23 17  0.0000000  0 14G01G06G10G13G16G17G21G24G25G30R04R05
                                R06R21
  24871922.64804  24871921.51504  24871925.95204   4873714.79304   5377375.87504
     -2358.965       -1838.139
  20497310.16709  20497309.83209  20497314.31709   2856492.30509   4241301.75809
     -1056.287        -823.080
  22396545.61607  22396544.76807  22396549.76807  -3940176.99907   -564555.23907
       916.952         714.512
  24242795.03206  24242794.69606  24242798.66306   1567626.69806  -1393095.85706
      -177.726        -138.480
  23031299.41607  23031297.87207  23031302.24607  -8993100.89907  -6353926.58707
      3175.649        2474.528
  21797966.78908  21797965.79908  21797970.64408   5497188.17408   5372966.90308
     -2519.401       -1963.169
  22400342.04108  22400341.32708  22400344.75408  -8114492.27108  -4743310.35808
      3337.590        2600.721
  24306279.43405  24306280.32705  24306287.53105  10289860.68705  11449788.24105
     -3657.325       -2849.852
  23705738.53105  23705738.65705  23705743.45905  11328281.64105   8990661.60805
     -3033.680       -2363.915
  22793502.22507  22793502.74907  22793507.78007  10728759.58807   9449516.51307
     -3121.704       -2432.498
  21089838.09209  21089839.85509  21089841.95909   3883228.97209   3952387.44209
     -1482.831       -1153.312
  20866555.01109  20866556.28809  20866553.41909 -10051959.59409  -5487987.98309
      2857.762        2222.703
          .00006          .00006          .00006   -140477.39316   1288924.02116
      4774.936        3713.817
  20165086.18809  20165087.59409  20165089.94809  -5300902.85709  -4122892.91709
      2565.191        1995.147
 04  4 28 23 17 30.0000000  0 14G01G06G10G13G16G17G21G24G25G30R04R05
                                R06R21
  24885426.98203  24885427.43503  24885431.36203   4944696.81503   5432686.51903
     -2372.972       -1849.049
  20503386.88609  20503386.47209  20503390.91209   2888425.59809   4266184.84209
     -1072.551        -835.755
  22391368.42808  22391367.12108  22391372.17908  -3967385.41908   -585756.59708
       896.998         698.964
  24243866.04105  24243866.42205  24243870.73905   1573259.74505  -1388706.49005
      -197.700        -154.065
  23013200.94008  23013200.01308  23013204.26708  -9088206.47108  -6428034.79708
      3164.771        2466.053
  21812390.79909  21812389.87609  21812394.75909   5572986.98309   5432030.91709
     -2533.773       -1974.368
  22381319.73308  22381319.06408  22381322.19408  -8214456.33508  -4821204.39908
      3326.739        2592.263
  24327176.91405  24327174.70405  24327182.16305  10399662.92205  11535348.46205
     -3662.723       -2854.064
  23723086.66306  23723087.79006  23723093.09006  11419452.24706   9061703.60206
     -3044.264       -2372.154
  22811350.38108  22811350.10208  22811355.12608  10822544.53608   9522595.68408
     -3130.544       -2439.390
  21098215.81309  21098217.24609  21098219.67709   3928090.46209   3987279.71309
     -1507.870       -1172.791
  20850585.15909  20850586.25909  20850583.24109 -10137360.11309  -5554410.58809
      2835.659        2205.512
          .00005          .00005          .00005   -283701.52115   1177527.49315
      4773.325        3712.570
  20150752.23309  20150753.92609  20150756.45709  -5377631.60709  -4182570.82209
      2550.056        1983.376
 04  4 28 23 18  0.0000000  0 14G01G06G10G13G16G17G21G24G25G30R04R05
                                R06R21
  24899012.47903  24899013.24103  24899019.67703   5016085.08103   5488313.69703
     -2386.330       -1859.483
  20509554.67509  20509554.28209  20509558.41909   2920837.53309   4291440.89909
     -1088.277        -848.009
  22386302.97008  22386302.22608  22386306.74408  -3994003.68008   -606498.09208
       877.512         683.775
  24245051.81305  24245050.91105  24245054.23805   1579483.06705  -1383857.13205
      -217.199        -169.249
  22995163.66807  22995162.85307  22995166.56407  -9182993.04907  -6501894.42907
      3154.310        2457.902
  21826894.81208  21826893.95208  21826899.39008   5649207.54208   5491423.56308
     -2547.607       -1985.151
  22362356.80808  22362356.40008  22362360.41408  -8314102.37908  -4898850.63708
      3316.311        2584.139
  24348098.85705  24348097.80805  24348101.53405  10509618.10605  11621027.82405
     -3667.602       -2857.882
  23740494.76205  23740494.90305  23740500.72805  11510929.17805   9132984.28605
     -3054.209       -2379.906
  22829244.69307  22829244.68407  22829249.55207  10916584.78707   9595873.76307
     -3138.812       -2445.828
  21106732.39209  21106733.44409  21106736.23309   3973693.62609   4022748.84609
     -1532.399       -1191.866
  20834737.19509  20834738.59809  20834735.11409 -10222104.79209  -5620323.09509
      2813.950        2188.629
          .00006          .00006          .00006   -426884.40416   1066163.06516
      4772.087        3711.665
  20136502.49409  20136503.77509  20136506.04409  -5453915.40709  -4241902.65309
      2535.453        1972.018
 04  4 28 23 18 30.0000000  0 14G01G06G10G13G16G17G21G24G25G30R04R05
                                R06R21
  24912675.00803  24912673.94103  24912678.67403   5087874.69403   5544253.51803
     -2399.714       -1869.881
  20515812.99809  20515812.57809  20515817.06909   2953725.24409   4317067.69109
     -1104.279        -860.477
  22381349.79308  22381348.77108  22381353.82208  -4020032.91008   -626780.60508
       857.718         668.351
  24246346.91606  24246347.64506  24246350.76306   1586294.74606  -1378549.32206
      -236.988        -184.660
  22977186.69807  22977186.37107  22977190.01907  -9277460.06407  -6575505.06007
      3143.440        2449.441
  21841478.81009  21841477.62909  21841483.08209   5725845.81009   5551141.68709
     -2561.654       -1996.092
  22343455.68208  22343455.20208  22343459.11708  -8413430.23408  -4976248.92808
      3305.493        2575.703
  24369051.78105  24369051.31605  24369056.02905  10619721.54905  11706822.71105
     -3672.676       -2861.854
  23757960.15806  23757959.48706  23757965.47406  11602707.36706   9204499.71806
     -3064.391       -2387.839
  22847189.04008  22847188.42608  22847193.00308  11010876.29008   9669347.65508
     -3147.302       -2452.439
  21115385.72809  21115387.04109  21115389.69109   4020034.21509   4058791.52009
     -1557.086       -1211.069
  20819012.64509  20819013.51509  20819010.72109 -10306192.32209  -5685724.49909
      2791.826        2171.420
          .00006          .00006          .00006   -570024.37516    954832.04716
      4770.451        3710.338
  20122334.77109  20122336.14709  20122338.55409  -5529754.70809  -4300888.76309
      2520.456        1960.355
 04  4 28 23 19  0.0000000  0 15G01G06G10G13G16G17G21G24G25G30R04R05
                                R06R21R22
  24926414.03804  24926412.25404  24926417.40704   5160070.95304   5600510.28304
     -2413.231       -1880.447
  20522163.36409  20522162.81209  20522167.30009   2987095.79809   4343070.71609
     -1120.355        -872.999
  22376510.66909  22376509.41909  22376514.42509  -4045464.18209   -646597.17509
       837.794         652.828
  24247757.13405  24247757.51505  24247759.43005   1593701.75605  -1372777.68205
      -256.752        -200.079
  22959273.44207  22959272.77607  22959276.19107  -9371596.87007  -6648858.38107
      3132.417        2440.841
  21856142.87308  21856142.12708  21856147.38808   5802906.63008   5611189.08008
     -2575.636       -2006.989
  22324617.14008  22324616.41208  22324619.74508  -8512429.71008  -5053391.33808
      3294.550        2567.178
  24390032.02705  24390031.09505  24390040.48405  10729979.21705  11792737.71705
     -3677.712       -2865.709
  23775483.19506  23775483.32406  23775488.23506  11694791.85006   9276253.80806
     -3074.507       -2395.714
  22865179.40907  22865179.75007  22865185.31507  11105424.86307   9743021.83507
     -3155.803       -2459.064
  21124177.64809  21124179.53409  21124182.13309   4067117.82609   4095412.10409
     -1581.651       -1230.173
  20803412.76809  20803413.84409  20803410.90909 -10389611.38909  -5750605.98009
      2769.513        2154.064
          .00006          .00006          .00006   -713109.79916    843543.41616
      4768.603        3708.911
  20108252.23309  20108253.81909  20108256.05509  -5605139.42809  -4359521.30609
      2505.236        1948.516
  24300154.08903  24300153.67603  24300158.64603    284987.97113    688005.37513
      4300.241        3344.634
 04  4 28 23 19 30.0000000  0 15G01G06G10G13G16G17G21G24G25G30R04R05
                                R06R21R22
  24940230.94704  24940228.02404  24940235.69304   5232676.04904   5657085.60804
     -2426.786       -1890.985
  20528606.18609  20528605.69709  20528610.02909   3020953.34209   4369453.22309
     -1136.524        -885.602
  22371785.51108  22371784.96308  22371789.71408  -4070291.67708   -665943.26308
       817.662         637.146
  24249279.53405  24249280.06805  24249283.89605   1601708.85005  -1366538.39105
      -276.759        -215.656
  22941424.19207  22941423.54107  22941427.15307  -9465395.93607  -6721948.52107
      3121.121        2432.032
  21870887.85308  21870886.74408  21870891.86208   5880392.26308   5671567.50208
     -2589.768       -2018.003
  22305841.50108  22305841.07008  22305844.46908  -8611093.67708  -5130272.31708
      3283.328        2558.435
  24411048.39306  24411045.53006  24411046.19806  10840393.14706  11878774.59806
     -3682.866       -2869.774
  23793065.88206  23793065.11506  23793070.01906  11787184.62406   9348248.15706
     -3084.710       -2403.664
  22883222.93308  22883222.63408  22883226.98408  11200233.59708   9816898.76108
     -3164.466       -2465.826
  21133110.43509  21133111.23309  21133113.70609   4114947.23609   4132612.76609
     -1606.383       -1249.411
  20787938.83009  20787940.42809  20787937.71809 -10472353.27209  -5814960.76509
      2746.871        2136.458
          .00005          .00005          .00005   -856131.44115    732304.41215
      4766.421        3707.210
  20094256.31409  20094257.49809  20094259.81509  -5680061.93409  -4417794.35209
      2489.867        1936.562
  24276098.67702  24276099.99002  24276104.29202    155999.19412    587681.39812
      4299.508        3344.005
 04  4 28 23 20  0.0000000  0 15G01G06G10G13G16G17G21G24G25G30R04R05
                                R06R21R22
  24954123.48904  24954119.73504  24954127.56004   5305682.23104   5713973.44604
     -2439.933       -1901.239
  20535140.33609  20535140.15009  20535144.48509   3055292.03509   4396210.65209
     -1152.370        -897.952
  22367175.48908  22367174.70008  22367179.20608  -4094519.45608   -684822.04208
       797.880         621.717
  24250916.90206  24250917.87606  24250919.79506   1610310.77506  -1359835.59506
      -296.341        -230.919
  22923638.81807  22923637.35807  22923641.36907  -9558859.55107  -6794777.26907
      3110.137        2423.470
  21885712.07507  21885711.34907  21885716.35007   5958295.57207   5732271.38007
     -2603.410       -2028.634
  22287129.27408  22287128.98708  22287132.54508  -8709424.75508  -5206893.90608
      3272.420        2549.931
  24432083.14204  24432084.16104  24432087.67504  10950956.28504  11964927.65104
     -3687.627       -2873.475
  23810704.50406  23810704.76806  23810708.59906  11879877.37106   9420476.24906
     -3094.415       -2411.224
  22901310.53407  22901310.77907  22901317.03907  11295295.44707   9890972.91507
     -3172.627       -2472.173
  21142180.24509  21142181.44109  21142183.40809   4163514.98309   4170387.68009
     -1630.939       -1268.510
  20772592.64909  20772593.50709  20772590.51509 -10554419.79009  -5878790.26209
      2724.551        2119.092
          .00004          .00004          .00004   -999090.82614    621113.86914
      4764.566        3705.762
  20080345.58409  20080347.02009  20080349.51409  -5754525.06409  -4475710.11009
      2474.718        1924.779
  24252045.88705  24252046.79805  24252051.23205     27024.08505    487367.38405
      4299.254        3343.893
 04  4 28 23 20 30.0000000  0 15G01G06G10G13G16G17G21G24G25G30R04R05
                                R06R21R22
  24968091.41004  24968090.19004  24968097.06704   5379091.07904   5771175.10004
     -2453.541       -1911.840
  20541767.22709  20541766.67909  20541771.21509   3090114.90009   4423345.35309
     -1168.814        -910.764
  22362680.29308  22362679.52508  22362683.98608  -4118142.32408   -703229.46608
       777.386         605.752
  24252667.74605  24252666.91905  24252672.12605   1619511.24705  -1352666.37905
      -316.601        -246.699
  22905918.01107  22905917.59407  22905921.23407  -9651981.07707  -6867339.46307
      3098.365        2414.303
  21900616.34408  21900615.62408  21900620.74808   6036618.05508   5793301.88808
     -2617.676       -2039.744
  22268483.10108  22268481.87208  22268485.61608  -8807417.09808  -5283251.53608
      3260.787        2540.869
  24453156.76205  24453153.55405  24453156.63305  11061670.58805  12051198.57205
     -3692.897       -2877.603
  23828400.74906  23828399.80206  23828405.45306  11972871.38306   9492939.08506
     -3104.752       -2419.278
  22919450.97507  22919450.40307  22919454.46807  11390612.63807   9965246.04007
     -3181.412       -2479.014
  21151388.17909  21151389.27909  21151391.63209   4212822.75109   4208738.17209
     -1655.928       -1287.944
  20757372.74109  20757374.08109  20757371.72509 -10635803.26009  -5942088.51209
      2701.380        2101.066
          .00003          .00003          .00003  -1141979.67013    509978.19113
      4761.733        3703.523
  20066522.33709  20066523.91109  20066526.24309  -5828521.42209  -4533262.81309
      2458.811        1912.408
  24227997.90903  24227997.71703  24228005.39803   -101930.23403    387069.69503
      4298.043        3342.976
 04  4 28 23 21  0.0000000  0 15G01G06G10G13G16G17G21G24G25G30R04R05
                                R06R21R22
  24982134.69904  24982135.03504  24982140.65304   5452891.37404   5828681.77204
     -2466.236       -1921.769
  20548484.05909  20548483.64609  20548488.02909   3125412.92209   4450850.30509
     -1184.199        -922.754
  22358298.94308  22358297.57008  22358302.26108  -4141167.62008   -721171.25208
       757.792         590.488
  24254532.30006  24254531.78406  24254535.29806   1629301.74206  -1345037.43106
      -335.915        -261.738
  22888261.38007  22888261.18507  22888264.91507  -9744766.13107  -6939639.47007
      3087.449        2405.814
  21915598.74208  21915597.99208  21915602.81008   6115348.83008   5854650.55408
     -2630.885       -2050.045
  22249898.48408  22249897.68008  22249901.37108  -8905076.50208  -5359349.73608
      3249.983        2532.450
  24474247.12804  24474246.80804  24474249.03804  11172525.23904  12137578.72004
     -3697.219       -2880.982
  23846152.40806  23846151.45206  23846156.80906  12066155.11706   9565627.68506
     -3113.979       -2426.479
  22937634.76107  22937634.86907  22937639.51307  11486174.77107  10039710.03607
     -3189.208       -2485.092
  21160731.32509  21160733.03909  21160735.48009   4262859.64609   4247655.75309
     -1679.779       -1306.490
  20742281.26909  20742282.15109  20742279.09909 -10716508.93809  -6004859.57509
      2679.098        2083.738
          .00005          .00005          .00005  -1284802.76215    398893.60315
      4759.912        3702.160
  20052785.04909  20052786.49709  20052788.79609  -5902059.65909  -4590459.20709
      2443.814        1900.741
  24203952.06304  24203954.50604  24203960.39104   -230870.68914    286782.95614
      4298.064        3342.951
 04  4 28 23 21 30.0000000  0 15G01G06G10G13G16G17G21G24G25G30R04R05
                                R06R21R22
  24996253.56304  24996253.27504  24996260.32004   5527084.56404   5886494.56104
     -2479.427       -1932.045
  20555291.93909  20555291.62709  20555296.21709   3161189.50909   4478728.16909
     -1200.359        -935.346
  22354031.83508  22354030.72608  22354035.52208  -4163590.23408   -738643.41608
       737.547         574.714
  24256507.14705  24256506.49605  24256510.73205   1639685.67805  -1336946.04905
      -355.841        -277.310
  22870670.68308  22870669.84708  22870673.64208  -9837207.76608  -7011671.86608
      3075.804        2396.726
  21930658.46808  21930658.00308  21930663.07008   6194489.16908   5916318.35408
     -2644.635       -2060.756
  22231378.70608  22231378.38208  22231381.94408  -9002396.73108  -5435183.64608
      3238.513        2523.513
  24495371.46705  24495367.51305  24495373.45505  11283522.27105  12224069.97905
     -3702.046       -2884.708
  23863959.13906  23863957.74206  23863963.06906  12159729.80906   9638542.99106
     -3123.792       -2434.122
  22955866.85807  22955866.87307  22955871.36107  11581984.07407  10114366.60807
     -3197.562       -2491.602
  21170212.24309  21170213.62809  21170216.30809   4313627.93409   4287142.20109
     -1704.315       -1325.581
  20727316.54109  20727317.68409  20727315.00309 -10796529.42509  -6067097.72309
      2656.049        2065.814
          .00005          .00005          .00005  -1427552.16915    287866.30815
      4757.183        3700.055
  20039134.63509  20039135.80109  20039138.16609  -5975132.09009  -4647293.31209
      2428.117        1888.535
  24179912.11904  24179912.50304  24179915.43204   -359790.80504    186511.88704
      4297.074        3342.154
 04  4 28 23 22  0.0000000  0 15G01G06G10G13G16G17G21G24G25G30R04R05
                                R06R21R22
  25010447.30604  25010446.96404  25010452.07804   5601673.74904   5944615.95704
     -2492.838       -1942.442
  20562192.47409  20562191.79109  20562196.27909   3197449.71509   4506982.87609
     -1216.576        -947.984
  22349880.07507  22349879.52007  22349884.50607  -4185403.73007   -755640.93707
       717.101         558.781
  24258597.56906  24258597.45506  24258600.53706   1650668.52206  -1328388.02206
      -375.914        -292.914
  22853146.72308  22853145.85308  22853149.28908  -9929297.69908  -7083430.21308
      3063.910        2387.466
  21945796.91108  21945795.95208  21945801.74408   6274042.58608   5978308.02208
     -2658.512       -2071.565
  22212925.79608  22212924.90608  22212928.28208  -9099369.67808  -5510746.94408
      3226.757        2514.355
  24516513.93203  24516517.33703  24516523.54903  11394665.08003  12310674.74603
     -3707.027       -2888.558
  23881820.09006  23881820.03906  23881824.99806  12253597.75706   9711686.80906
     -3133.642       -2441.780
  22974146.65507  22974146.66107  22974150.44507  11678044.31907  10189218.74007
     -3206.002       -2498.188
  21179830.30509  21179831.47109  21179833.99209   4365130.02909   4327199.38609
     -1728.810       -1344.634
  20712482.31908  20712483.38308  20712480.66708 -10875855.33408  -6128795.64008
      2632.739        2047.685
          .00006          .00006          .00006  -1570218.03016    176904.02816
      4754.219        3697.734
  20025572.68709  20025573.94309  20025576.32309  -6047730.22609  -4703758.51309
      2412.133        1876.105
  24155875.04505  24155876.25605  24155882.34505   -488683.16505     86262.27205
      4296.040        3341.397
 04  4 28 23 22 30.0000000  0 15G01G06G10G13G16G17G21G24G25G30R04R05
                                R06R21R22
  25024714.90805  25024713.08905  25024719.87005   5676645.47905   6003035.40905
     -2505.177       -1952.091
  20569181.87209  20569181.71309  20569186.06009   3234181.89909   4535605.35709
     -1232.012        -960.009
  22345843.80708  22345842.78208  22345847.63308  -4206617.72908   -772171.31608
       697.370         543.404
  24260798.76005  24260798.53205  24260801.74805   1662239.24505  -1319371.88405
      -395.264        -307.994
  22835687.67007  22835686.87607  22835690.34807 -10021043.77507  -7154920.63007
      3052.658        2378.693
  21961010.77308  21961010.36508  21961016.26208   6353996.04708   6040609.41308
     -2671.506       -2081.692
  22194536.79708  22194536.20908  22194539.89108  -9196003.60308  -5586046.06408
      3215.701        2505.737
  24537689.09105  24537694.44005  24537697.67105  11505940.43505  12397382.81305
     -3711.205       -2891.919
  23899736.94606  23899736.00506  23899741.33806  12347745.65906   9785048.79506
     -3142.656       -2448.844
  22992470.87607  22992471.12407  22992475.63007  11774342.89207  10264256.56107
     -3213.669       -2504.157
  21189582.99409  21189584.16609  21189586.30409   4417353.20109   4367817.40309
     -1752.523       -1363.074
  20697776.67709  20697777.51709  20697774.60309 -10954494.33709  -6189959.29709
      2610.049        2030.039
          .00005          .00005          .00005  -1712807.41615     66001.17515
      4751.864        3695.907
  20012097.54009  20012098.96109  20012100.99709  -6119863.57209  -4759862.21409
      2396.937        1864.285
  24131841.99005  24131844.80205  24131849.58105   -617556.32105    -13972.27005
      4295.646        3341.031
 04  4 28 23 23  0.0000000  0 15G01G06G10G13G16G17G21G24G25G30R04R05
                                R06R21R22
  25039053.71804  25039052.09004  25039060.20504   5752001.56304   6061754.40304
     -2518.549       -1962.520
  20576262.57109  20576261.96509  20576266.44709   3271389.43909   4564598.24409
     -1248.527        -972.878
  22341922.08708  22341920.56408  22341926.10708  -4227226.98108   -788230.47208
       676.561         527.193
  24263114.06005  24263113.40005  24263116.39205   1674401.73105  -1309894.61805
      -415.621        -323.870
  22818294.64407  22818294.78807  22818298.61707 -10112439.04107  -7226137.67507
      3040.313        2369.074
  21976302.27808  21976301.82508  21976307.11608   6434350.84208   6103223.52908
     -2685.478       -2092.579
  22176213.27209  22176212.81009  22176216.84009  -9292292.22409  -5661076.12409
      3203.515        2496.246
  24558896.62606  24558894.60506  24558902.69906  11617351.20806  12484196.32606
     -3716.208       -2895.751
  23917705.58306  23917704.56706  23917710.01406  12442174.69006   9858629.83506
     -3152.604       -2456.565
  23010842.28307  23010841.47107  23010847.19407  11870882.14607  10339481.93807
     -3222.278       -2510.849
  21199469.49909  21199470.82409  21199473.50109   4470299.91709   4408998.17809
     -1777.196       -1382.267
  20683200.55209  20683201.70309  20683198.88509 -11032438.74809  -6250582.71709
      2586.195        2011.486
          .00005          .00005          .00005  -1855311.64815    -44835.39415
      4748.320        3693.168
  19998710.28109  19998711.71709  19998714.13009  -6191524.90409  -4815598.79209
      2380.561        1851.547
  24107816.70103  24107815.69903  24107820.21703   -746403.92613   -114186.78113
      4294.194        3339.923
 04  4 28 23 23 30.0000000  0 15G01G06G10G13G16G17G21G24G25G30R04R05
                                R06R21R22
  25053467.55004  25053466.15604  25053474.30204   5827741.83804   6120772.75904
     -2531.004       -1972.176
  20583433.38209  20583433.18109  20583437.80109   3309074.24309   4593963.02909
     -1263.998        -984.933
  22338116.00308  22338114.52208  22338119.80108  -4247228.14408   -803815.79508
       656.659         511.685
  24265541.32605  24265540.58005  24265544.90305   1687158.17705  -1299954.53105
      -435.039        -338.982
  22800971.33207  22800970.39107  22800974.38107 -10203478.29007  -7297077.31607
      3028.770        2360.079
  21991670.33408  21991669.41408  21991673.95008   6515107.33508   6166150.68208
     -2698.469       -2102.701
  22157956.83508  22157956.11508  22157960.06608  -9388230.74308  -5735833.37008
      3192.172        2487.397
  24580119.72205  24580119.48505  24580126.96805  11728897.17405  12571115.39905
     -3720.312       -2898.896
  23935727.41505  23935728.21505  23935733.77905  12536884.43905   9932429.59605
     -3161.556       -2463.545
  23029258.45607  23029258.55507  23029262.86307  11967662.76907  10414895.38307
     -3229.939       -2516.828
  21209492.55909  21209493.74609  21209495.63509   4523968.91509   4450740.73209
     -1800.929       -1400.722
  20668754.93309  20668756.26709  20668753.43109 -11109682.54209  -6310661.21509
      2563.177        1993.587
          .00005          .00005          .00005  -1997724.78815   -155601.09115
      4745.582        3690.980
  19985412.67809  19985414.15309  19985416.26309  -6262709.02909  -4870964.20809
      2364.924        1839.386
  24083792.67605  24083793.78005  24083799.43105   -875221.80705   -214378.29805
      4293.543        3339.374
 04  4 28 23 24  0.0000000  0 15G01G06G10G13G16G17G21G24G25G30R04R05
                                R06R21R22
  25067952.65504  25067950.25104  25067957.20004   5903861.28604   6180086.51304
     -2543.541       -1982.003
  20590695.00509  20590694.64009  20590699.00809   3347233.20309   4623697.28309
     -1279.858        -997.295
  22334425.09008  22334424.22708  22334429.20908  -4266622.79008   -818928.50008
       636.392         495.888
  24268080.25405  24268080.29305  24268084.47205   1700505.63905  -1289553.93405
      -454.747        -354.335
  22783714.62208  22783714.59208  22783718.16508 -10294160.95108  -7367739.09708
      3016.814        2350.763
  22007113.82509  22007112.68909  22007117.42909   6596260.99209   6229387.31709
     -2711.689       -2113.006
  22139767.89909  22139766.90009  22139770.04809  -9483819.05409  -5810317.72209
      3180.427        2478.253
  24601373.33506  24601373.10406  24601375.21106  11840573.65806  12658136.13506
     -3724.660       -2902.368
  23953803.13705  23953803.58705  23953809.29505  12631869.58705  10006443.94505
     -3170.709       -2470.678
  23047719.56506  23047720.37106  23047726.29506  12064680.61206  10490493.68406
     -3237.840       -2522.994
  21219648.35809  21219650.14509  21219652.20709   4578356.84109   4493042.45509
     -1824.914       -1419.378
  20654441.80009  20654443.02709  20654439.68709 -11186224.96909  -6370194.19309
      2539.715        1975.334
          .00006          .00006          .00006  -2140044.81216   -266294.39616
      4742.432        3688.561
  19972203.64209  19972205.24609  19972207.47009  -6333417.01609  -4925959.29809
      2348.977        1826.982
  24059775.90104  24059776.74004  24059782.61004  -1004010.18604   -314546.87304
      4292.472        3338.614
 04  4 28 23 24 30.0000000  0 15G01G06G10G13G16G17G21G24G25G30R04R05
                                R06R21R22
  25082509.18304  25082509.13204  25082514.76204   5980362.37304   6239697.78204
     -2556.119       -1991.777
  20598047.62509  20598047.00809  20598051.50509   3385870.72709   4653804.44609
     -1295.624       -1009.577
  22330850.95607  22330849.81607  22330854.93107  -4285404.46707   -833563.56507
       616.080         480.060
  24270732.84405  24270733.44405  24270736.94505   1714449.13105  -1278688.87505
      -474.465        -369.720
  22766528.07208  22766527.57408  22766531.14408 -10384479.06408  -7438116.82308
      3004.753        2341.372
  22022632.46808  22022631.56508  22022636.54208   6677814.27808   6292935.34708
     -2724.837       -2123.250
  22121645.04608  22121644.87208  22121648.63108  -9579049.34608  -5884523.10808
      3168.602        2469.039
  24622650.35805  24622647.64805  24622653.04705  11952384.11005  12745261.08905
     -3728.966       -2905.671
  23971931.23305  23971931.26605  23971935.67305  12727132.29505  10080674.59405
     -3179.754       -2477.727
  23066226.75707  23066227.51607  23066233.68907  12161938.99807  10566279.40207
     -3245.705       -2529.115
  21229939.60409  21229941.03109  21229943.66609   4633466.10309   4535905.22109
     -1848.652       -1437.840
  20640260.49909  20640261.61109  20640258.70609 -11262057.41809  -6429174.97809
      2516.117        1956.984
          .00006          .00006          .00006  -2282261.90116   -376907.71716
      4739.082        3685.964
  19959085.41709  19959086.97909  19959089.49109  -6403639.53409  -4980576.79409
      2332.896        1814.473
  24035764.09904  24035767.19304  24035772.22304  -1132761.88704   -414686.89604
      4291.362        3337.682
 04  4 28 23 25  0.0000000  0 15G01G06G10G13G16G17G21G24G25G30R04R05
                                R06R21R22
  25097140.12205  25097138.10505  25097145.97405   6057235.90405   6299599.20405
     -2568.734       -2001.590
  20605489.63409  20605489.32609  20605493.74209   3424979.32409   4684278.68009
     -1311.487       -1021.940
  22327392.89208  22327391.33908  22327396.60008  -4303579.18008   -847725.67108
       595.698         464.179
  24273500.55505  24273500.33305  24273503.38805   1728981.64605  -1267364.82505
      -494.213        -385.108
  22749409.58008  22749408.96908  22749412.89908 -10474436.47908  -7508213.47708
      2992.542        2331.849
  22038225.76808  22038224.71308  22038230.57608   6759758.10408   6356787.67408
     -2737.962       -2133.478
  22103591.19308  22103590.51008  22103594.25408  -9673925.71508  -5958452.71508
      3156.616        2459.697
  24643950.30005  24643949.04105  24643953.72105  12064319.91505  12832483.81305
     -3733.232       -2909.027
  23990111.12206  23990110.08406  23990115.68506  12822663.27106  10155114.27706
     -3188.827       -2484.780
  23084780.20207  23084780.05807  23084784.44107  12259429.47407  10642246.00207
     -3253.518       -2535.210
  21240364.04409  21240365.56409  21240367.47709   4689287.04009   4579321.51109
     -1872.619       -1456.480
  20626211.76309  20626212.48509  20626209.91009 -11337183.19109  -6487606.11809
      2492.391        1938.524
          .00006          .00006          .00006  -2424379.12616   -487443.33316
      4735.547        3683.204
  19946057.21309  19946058.47809  19946060.49909  -6473382.95509  -5034821.66209
      2316.724        1801.897
  24011761.20404  24011762.79304  24011768.54004  -1261481.37804   -514801.86004
      4290.093        3336.700
 04  4 28 23 25 30.0000000  0 15G01G06G10G13G16G17G21G24G25G30R04R05
                                R06R21R22
  25111840.01404  25111838.41604  25111846.27704   6134485.85604   6359793.88904
     -2581.278       -2011.379
  20613022.60609  20613022.22309  20613026.66909   3464565.06309   4715124.70809
     -1327.545       -1034.451
  22324051.28508  22324050.16708  22324055.13708  -4321139.17808   -861408.78108
       574.981         448.038
  24276378.26006  24276378.45206  24276382.06106   1744109.18206  -1255577.13206
      -514.264        -400.705
  22732361.86408  22732360.98608  22732365.09308 -10564023.56008  -7578021.56208
      2979.939        2322.028
  22053893.94407  22053893.19107  22053899.08207   6842097.44807   6420948.17807
     -2751.310       -2143.875
  22085606.54508  22085605.17208  22085608.78708  -9768439.65808  -6032099.90108
      3144.292        2450.094
  24665274.47504  24665274.88004  24665277.62004  12176385.49504  12919807.80104
     -3737.790       -2912.588
  24008341.16506  24008340.50606  24008346.85806  12918466.47906  10229766.10706
     -3198.047       -2491.979
  23103376.22007  23103376.75407  23103382.58807  12357156.90407  10718397.21207
     -3261.591       -2541.487
  21250922.59909  21250923.54409  21250925.52809   4745823.95709   4623294.66609
     -1896.559       -1475.105
  20612296.74309  20612297.85509  20612294.86909 -11411592.19509  -6545479.77209
      2468.208        1919.715
          .00006          .00006          .00006  -2566385.69016   -597892.87016
      4731.593        3680.129
  19933119.53109  19933120.95909  19933123.48609  -6542637.50709  -5088686.29709
      2300.272        1789.100
  23987765.62605  23987766.10005  23987771.32805  -1390159.88505   -614885.01705
      4288.499        3335.497
 04  4 28 23 26  0.0000000  0 15G01G06G10G13G16G17G21G24G25G30R04R05
                                R06R21R22
  25126611.41203  25126608.83703  25126616.42703   6212108.76703   6420279.17903
     -2593.543       -2020.957
  20620646.07109  20620645.48909  20620649.98609   3504626.11209   4746341.11009
     -1343.280       -1046.708
  22320826.15408  22320825.43408  22320830.27608  -4338084.62408   -874613.01708
       554.602         432.156
  24279371.15706  24279369.60406  24279373.55806   1759830.56906  -1243326.69306
      -533.918        -416.049
  22715385.04008  22715384.44108  22715387.77108 -10653238.45308  -7647539.63108
      2967.602        2312.421
  22069637.19108  22069636.34008  22069641.38808   6924828.00008   6485413.53308
     -2764.184       -2153.901
  22067689.42208  22067688.83408  22067692.27008  -9862589.65508  -6105463.49308
      3132.231        2440.694
  24686620.92104  24686623.91904  24686628.17604  12288577.86704  13007230.36204
     -3741.882       -2915.740
  24026622.79106  24026622.49706  24026627.97806  13014537.66106  10304626.72106
     -3206.788       -2498.808
  23122019.10807  23122018.65007  23122024.01607  12455118.36007  10794730.79507
     -3269.256       -2547.479
  21261612.69509  21261614.23609  21261616.56509   4803073.74509   4667822.28309
     -1920.116       -1493.427
  20598516.25209  20598517.54709  20598514.75009 -11485282.27109  -6602794.26809
      2444.314        1901.132
          .00005          .00005          .00005  -2708278.77615   -708254.09615
      4727.825        3677.217
  19920273.90709  19920275.32509  19920277.35209  -6611402.20309  -5142169.93909
      2283.913        1776.378
  23963776.10504  23963778.61104  23963782.43104  -1518796.09504   -714935.32804
      4287.044        3334.394
 04  4 28 23 26 30.0000000  0 15G01G06G10G13G16G17G21G24G25G30R04R05
                                R06R21R22
  25141450.97104  25141449.34604  25141456.63704   6290094.84504   6481047.53404
     -2605.254       -2030.073
  20628358.26509  20628357.93509  20628362.31509   3545154.67709   4777921.81409
     -1358.409       -1058.502
  22317717.39908  22317716.47808  22317721.48208  -4354422.14708   -887343.53808
       534.760         416.690
  24282470.55805  24282472.63305  24282476.85105   1776138.06905  -1230619.57005
      -553.025        -430.910
  22698477.73808  22698476.96108  22698481.12608 -10742085.63908  -7716771.17308
      2955.732        2303.165
  22085453.36608  22085452.62508  22085457.53908   7007940.49108   6550176.52408
     -2776.436       -2163.463
  22049841.00809  22049840.83709  22049844.59609  -9956380.58409  -6178547.30509
      3120.674        2431.694
  24707993.84203  24707997.94303  24708000.17603  12400887.75403  13094744.48803
     -3745.316       -2918.417
  24044953.90106  24044953.35506  24044958.50606  13110866.63406  10379688.22306
     -3214.925       -2505.132
  23140701.49406  23140702.28206  23140706.42506  12553304.89606  10871239.76006
     -3276.313       -2552.964
  21272435.14909  21272436.64209  21272439.06409   4861026.82809   4712896.89809
     -1943.045       -1511.256
  20584870.06809  20584870.92809  20584867.76909 -11558257.63109  -6659552.86309
      2420.881        1882.906
          .00005          .00005          .00005  -2850061.22915   -818529.23015
      4724.519        3674.621
  19907519.00309  19907520.41809  19907522.68209  -6679680.43909  -5195275.21809
      2268.233        1764.180
  23939797.99704  23939797.73604  23939802.73004  -1647394.90704   -814956.46404
      4286.270        3333.767
 04  4 28 23 27  0.0000000  0 14G06G10G13G16G17G21G24G25G30R04R05R06
                                R21R22
  20636159.32309  20636158.78409  20636163.21709   3586149.04809   4809865.48109
     -1374.111       -1070.734
  22314724.52309  22314723.50909  22314728.46809  -4370151.46709   -899600.14609
       514.265         400.728
  24285691.64306  24285687.55006  24285691.70206   1793030.32906  -1217456.75806
      -572.690        -446.254
  22681641.02808  22681640.26308  22681643.75908 -10830562.87008  -7785714.44108
      2943.131        2293.344
  22101341.45208  22101340.72608  22101345.37908   7091431.84308   6615234.73008
     -2789.260       -2173.452
  22032062.42509  22032061.86409  22032065.61409 -10049810.81809  -6251350.05309
      3108.387        2422.116
  24729390.48803  24729390.69203  24729394.88903  12513312.38103  13182348.07003
     -3749.283       -2921.513
  24063332.53705  24063332.54005  24063338.01105  13207449.93605  10454947.87305
     -3223.565       -2511.867
  23159430.21807  23159429.41807  23159433.98907  12651714.04107  10947922.18407
     -3283.905       -2558.891
  21283389.04609  21283389.66709  21283391.97509   4919679.32509   4758515.50809
     -1966.565       -1529.558
  20571357.47509  20571358.43709  20571355.00409 -11630515.68809  -6715753.56409
      2396.693        1864.090
          .00005          .00005          .00005  -2991729.66015   -928715.71115
      4720.407        3671.427
  19894854.65209  19894856.06709  19894858.04509  -6747473.43309  -5248003.09109
      2251.751        1751.361
  23915820.02904  23915821.79504  23915827.52704  -1775955.00904   -914947.47904
      4284.720        3332.568
 04  4 28 23 27 30.0000000  0 14G06G10G13G16G17G21G24G25G30R04R05R06
                                R21R22
  20644049.34809  20644049.00909  20644053.17609   3627611.87709   4842174.18209
     -1389.954       -1083.081
  22311847.95708  22311846.79108  22311851.54008  -4385268.43108   -911379.58808
       493.621         384.631
  24289011.88605  24289013.73305  24289018.05005   1810510.32105  -1203835.97005
      -592.532        -461.718
  22664875.82708  22664875.43108  22664878.91808 -10918664.00508  -7854364.65108
      2930.342        2283.387
  22117301.82408  22117300.56108  22117305.28308   7175303.52108   6680589.29408
     -2802.079       -2183.442
  22014352.38309  22014352.18209  22014356.16009 -10142874.76209  -6323867.37109
      3095.949        2412.423
  24750806.24905  24750806.51005  24750811.01005  12625853.33505  13270042.41905
     -3753.312       -2924.642
  24081761.09705  24081760.34405  24081765.86005  13304288.28105  10530406.24505
     -3232.235       -2518.615
  23178200.13107  23178199.63307  23178204.46007  12750347.29207  11024779.25807
     -3291.534       -2564.829
  21294472.13109  21294473.28209  21294475.76409   4979032.15309   4804678.81709
     -1990.190       -1547.927
  20557980.03409  20557980.86109  20557977.73709 -11702049.64409  -6771391.07109
      2372.301        1845.119
          .00006          .00006          .00006  -3133276.71916  -1038807.83016
      4716.100        3668.094
  19882282.24009  19882283.64009  19882286.13509  -6814773.08209  -5300347.24809
      2235.063        1738.381
  23891852.43504  23891855.31004  23891861.12604  -1904470.80104  -1014904.07504
      4283.044        3331.260
 04  4 28 23 28  0.0000000  0 14G06G10G13G16G17G21G24G25G30R04R05R06
                                R21R22
  20652029.23909  20652028.89709  20652033.16009   3669546.42409   4874850.45209
     -1405.432       -1095.142
  22309088.45708  22309087.38408  22309092.30708  -4399767.89108   -922677.86208
       473.267         368.777
  24292452.49305  24292453.45805  24292455.04705   1828581.70905  -1189754.37105
      -611.992        -476.865
  22648183.38308  22648182.89408  22648186.72008 -11006382.20608  -7922716.47308
      2917.775        2273.591
  22133334.18207  22133333.24307  22133338.75307   7259556.63907   6746241.07707
     -2814.533       -2193.140
  21996713.86609  21996713.44909  21996717.00509 -10235565.71809  -6396094.06509
      3083.722        2402.898
  24772245.26504  24772242.90004  24772247.94604  12738512.65504  13357828.92204
     -3756.994       -2927.544
  24100237.06605  24100237.17705  24100242.09105  13401382.63905  10606064.13905
     -3240.453       -2525.005
  23197009.82907  23197010.95907  23197014.96207  12849207.00307  11101812.75507
     -3298.835       -2570.515
  21305686.41909  21305688.28409  21305690.64009   5039087.42209   4851388.46609
     -2013.397       -1565.974
  20544739.62209  20544740.58109  20544737.17809 -11772852.36209  -6826459.84709
      2348.109        1826.308
          .00005          .00005          .00005  -3274693.98815  -1148799.05715
      4711.937        3664.821
  19869803.08609  19869804.62309  19869806.85709  -6881574.28209  -5352303.73309
      2218.631        1725.601
  23867899.49405  23867901.09505  23867905.37305  -2032935.61905  -1114821.02705
      4281.534        3330.050
 04  4 28 23 28 30.0000000  0 14G06G10G13G16G17G21G24G25G30R04R05R06
                                R21R22
  20660097.93109  20660097.31309  20660101.63009   3711946.81109   4907889.71609
     -1420.956       -1107.239
  22306445.94608  22306445.00108  22306449.53708  -4413654.90608   -933498.90708
       452.852         352.872
  24296003.00705  24296002.73405  24296006.49105   1847238.35105  -1175216.75405
      -631.460        -492.067
  22631563.82708  22631562.97008  22631566.92708 -11093720.06608  -7990771.93008
      2905.061        2263.686
  22149438.40608  22149437.06008  22149442.63008   7344183.41308   6812184.01508
     -2826.932       -2202.805
  21979147.28409  21979146.08509  21979149.23309 -10327887.01509  -6468032.71009
      3071.351        2393.262
  24793705.00305  24793703.84905  24793707.78505  12851282.36405  13445701.51705
     -3760.639       -2930.363
  24118761.16705  24118760.46005  24118766.53305  13498724.59105  10681914.95405
     -3248.642       -2531.406
  23215866.88307  23215866.05807  23215869.55107  12948285.68607  11179016.90707
     -3306.094       -2576.172
  21317031.66009  21317032.84709  21317034.91009   5099836.32909   4898637.61609
     -2036.414       -1583.878
  20531635.40909  20531636.33809  20531633.05809 -11842926.13309  -6880961.65709
      2323.751        1807.363
          .00006          .00006          .00006  -3415982.80116  -1258690.33916
      4707.621        3661.469
  19857416.97109  19857418.55109  19857420.80909  -6947878.74409  -5403873.85409
      2202.034        1712.695
  23843951.32305  23843952.96305  23843958.05905  -2161353.85905  -1214701.77605
      4279.972        3328.867
 04  4 28 23 29  0.0000000  0 14G06G10G13G16G17G21G24G25G30R04R05R06
                                R21R22
  20668255.57709  20668255.17009  20668259.55909   3754815.81609   4941294.13609
     -1436.619       -1119.439
  22303920.94708  22303919.69108  22303924.29308  -4426924.77608   -943839.06408
       432.154         336.740
  24299665.14305  24299665.82905  24299669.83805   1866483.81605  -1160220.29805
      -651.199        -507.436
  22615017.72108  22615017.10308  22615020.70408 -11180670.85708  -8058525.75708
      2891.998        2253.497
  22165613.37208  22165612.62308  22165617.83608   7429185.43508   6878419.34708
     -2839.509       -2212.599
  21961649.91208  21961648.94708  21961652.37908 -10419832.47108  -6539678.48008
      3058.668        2383.376
  24815183.82904  24815183.91604  24815186.63504  12964164.77604  13533661.88704
     -3764.468       -2933.350
  24137332.32706  24137331.68506  24137337.34206  13596315.30406  10757959.61506
     -3257.022       -2537.946
  23234761.19207  23234761.37707  23234767.51707  13047585.52907  11256393.40407
     -3313.540       -2581.991
  21328505.99209  21328506.97809  21328509.37609   5161280.43709   4946427.47509
     -2059.652       -1601.949
  20518668.37409  20518669.82209  20518666.71109 -11912264.02509  -6934891.11809
      2299.104        1788.190
          .00006          .00006          .00006  -3557134.70216  -1368475.12316
      4702.855        3657.772
  19845124.54509  19845126.00209  19845128.21809  -7013681.57109  -5455053.82709
      2185.174        1699.579
  23820014.00105  23820014.54105  23820019.84105  -2289718.13405  -1314540.49505
      4278.021        3327.341
 04  4 28 23 29 30.0000000  0 14G06G10G13G16G17G21G24G25G30R04R05R06
                                R21R22
  20676501.69309  20676501.16209  20676505.55109   3798149.80809   4975060.88009
     -1452.158       -1131.551
  22301512.26709  22301511.59909  22301516.47009  -4439579.39309   -953699.80109
       411.581         320.715
  24303437.62005  24303437.46405  24303442.15005   1886314.53005  -1144767.80305
      -670.761        -522.670
  22598545.21708  22598544.66808  22598548.17908 -11267234.38808  -8125977.83708
      2879.003        2243.386
  22181859.36808  22181858.30108  22181863.52608   7514557.68708   6944943.17508
     -2851.867       -2222.234
  21944223.95708  21944223.45308  21944227.13208 -10511402.32908  -6611031.60308
      3046.062        2373.556
  24836683.18103  24836683.38803  24836691.06303  13077155.16503  13621706.33503
     -3768.104       -2936.149
  24155948.43705  24155949.18905  24155954.87305  13694149.53905  10834194.02505
     -3265.144       -2544.276
  23253698.68807  23253698.37407  23253703.12207  13147102.13507  11333938.76307
     -3320.802       -2587.653
  21340108.94309  21340109.86309  21340112.10909   5223414.23909   4994753.77909
     -2082.573       -1619.788
  20505839.80609  20505840.91209  20505837.63809 -11980865.86509  -6988248.09309
      2274.408        1768.983
          .00006          .00006          .00006  -3698148.66916  -1478152.57716
      4698.165        3654.132
  19832925.88809  19832927.13809  19832929.49509  -7078981.53209  -5505842.67609
      2168.313        1686.466
  23796084.17804  23796086.72004  23796090.95904  -2418029.86004  -1414338.33204
      4276.189        3325.885
 04  4 28 23 30  0.0000000  0 14G06G10G13G16G17G21G24G25G30R04R05R06
                                R21R22
  20684835.62009  20684835.23409  20684839.42809   3841945.18409   5009187.15109
     -1467.537       -1143.538
  22299221.19308  22299219.69108  22299224.83308  -4451621.10508   -963082.95308
       391.145         304.788
  24307324.95705  24307323.66805  24307326.44105   1906726.76205  -1128862.16605
      -690.128        -537.745
  22582145.85908  22582145.66108  22582148.91408 -11353411.01908  -8193128.43908
      2866.037        2233.277
  22198174.37708  22198173.35708  22198178.58908   7600294.71208   7011751.24408
     -2863.989       -2231.677
  21926871.37909  21926870.14409  21926873.31509 -10602597.56609  -6682092.79209
      3033.536        2363.787
  24858204.25903  24858205.98903  24858210.84303  13190248.52303  13709831.15503
     -3771.489       -2938.783
  24174611.11405  24174610.66705  24174614.80405  13792221.12305  10910613.40005
     -3273.018       -2550.423
  23272677.80807  23272677.23307  23272680.57507  13246830.36207  11411649.06907
     -3327.827       -2593.106
  21351839.43509  21351840.75409  21351842.84409   5286232.14509   5043612.14909
     -2105.336       -1637.483
  20493148.43109  20493149.50409  20493146.30509 -12048731.46309  -7041032.43309
      2249.855        1749.886
          .00007          .00007          .00007  -3839024.29717  -1587722.45317
      4693.497        3650.482
  19820820.88009  19820822.28309  19820824.39709  -7143782.01509  -5556243.04509
      2151.645        1673.503
  23772166.91205  23772168.13805  23772172.74605  -2546290.12005  -1514096.19105
      4274.440        3324.566
 04  4 28 23 30 30.0000000  0 14G06G10G13G16G17G21G24G25G30R04R05R06
                                R21R22
  20693256.83809  20693256.48209  20693260.90109   3886199.27009   5043670.85509
     -1482.928       -1155.529
  22297046.19308  22297044.89808  22297049.96508  -4463050.92008   -971989.29308
       370.620         288.790
  24311317.35905  24311317.86005  24311321.42705   1927718.43505  -1112505.04605
      -709.557        -552.903
  22565821.21508  22565820.51108  22565824.03908 -11439199.53408  -8259976.62308
      2852.964        2223.089
  22214558.60108  22214557.62108  22214562.64508   7686392.56608   7078840.47908
     -2876.071       -2241.094
  21909588.19409  21909587.61509  21909591.04509 -10693417.33809  -6752861.41309
      3020.875        2353.922
  24879741.65202  24879743.67602  24879750.25602  13303441.02402  13798033.10802
     -3774.933       -2941.496
  24193318.94605  24193317.88205  24193323.85305  13890525.35805  10987214.04505
     -3280.809       -2556.448
  23291692.38207  23291693.52407  23291698.76707  13346766.93207  11489521.68107
     -3334.830       -2598.565
  21363696.41009  21363698.24709  21363700.55909   5349729.11209   5092998.67109
     -2128.029       -1655.127
  20480595.73109  20480596.53109  20480593.36809 -12115859.52709  -7093243.14509
      2225.116        1730.645
          .00007          .00007          .00007  -3979757.99317  -1697181.94817
      4688.537        3646.656
  19808809.30909  19808810.81709  19808812.89709  -7208080.66209  -5606253.10009
      2134.772        1660.377
  23748258.19104  23748259.71404  23748265.83904  -2674497.75804  -1613813.07404
      4272.578        3323.105
 04  4 28 23 31  0.0000000  0 14G06G10G13G16G17G21G24G25G30R04R05R06
                                R21R22
  20701766.10609  20701765.78209  20701770.34209   3930916.28609   5078515.27709
     -1498.308       -1167.513
  22294988.81608  22294987.37708  22294992.61508  -4473863.16408   -980414.41408
       350.056         272.769
  24315423.18805  24315423.73305  24315426.77005   1949293.84805  -1095693.00805
      -728.973        -568.025
  22549571.31308  22549570.87808  22549574.62808 -11524592.01908  -8326516.19808
      2839.737        2212.784
  22231011.67007  22231010.64207  22231015.12907   7772853.68007   7146212.78707
     -2888.115       -2250.480
  21892377.30108  21892377.44108  21892381.27608 -10783854.40708  -6823331.83808
      3008.123        2343.993
  24901304.75204  24901304.96504  24901309.29704  13416735.91104  13886314.94904
     -3778.225       -2944.104
  24212070.08305  24212069.07505  24212074.96305  13989064.01505  11063997.37105
     -3288.586       -2562.524
  23310752.75507  23310751.85207  23310755.93207  13446914.89807  11567559.00807
     -3341.838       -2604.028
  21375681.90809  21375683.23009  21375685.61409   5413908.45809   5142915.93609
     -2150.786       -1672.829
  20468181.42409  20468182.36509  20468179.65209 -12182242.10609  -7144874.02709
      2200.233        1711.292
          .00005          .00005          .00005  -4120341.19615  -1806524.40915
      4683.462        3642.694
  19796892.31909  19796893.86309  19796896.21609  -7271870.53409  -5655867.43809
      2117.758        1647.148
  23724361.08105  23724362.09105  23724368.35705  -2802645.79705  -1713483.58905
      4270.554        3321.586
 04  4 28 23 31 30.0000000  0 14G06G10G13G16G17G21G24G25G30R04R05R06
                                R21R22
  20710363.51509  20710363.14609  20710367.60109   3976095.62309   5113719.95309
     -1513.823       -1179.605
  22293048.70408  22293047.73808  22293052.61908  -4484056.93708   -988357.60608
       329.346         256.634
  24319641.53205  24319639.80805  24319644.11605   1971452.60405  -1078426.42505
      -748.467        -583.227
  22533397.91708  22533397.04808  22533400.84908 -11609585.64608  -8392744.98108
      2826.306        2202.311
  22247533.02508  22247532.12908  22247537.32708   7859676.06408   7213866.59508
     -2900.196       -2259.891
  21875242.21009  21875241.34709  21875244.84809 -10873906.32009  -6893502.13109
      2995.156        2333.888
  24922883.43303  24922881.95203  24922888.61303  13530131.56303  13974675.14003
     -3781.634       -2946.713
  24230864.35105  24230864.57905  24230870.51105  14087834.74005  11140961.48705
     -3296.334       -2568.575
  23329849.87307  23329849.20707  23329851.74107  13547272.55607  11645759.77407
     -3348.859       -2609.508
  21387794.22809  21387795.42709  21387797.76009   5478767.51509   5193361.86209
     -2173.482       -1690.485
  20455907.89709  20455908.88609  20455905.40809 -12247876.02309  -7195922.62209
      2175.151        1691.783
          .00005          .00005          .00005  -4260769.30215  -1915746.25415
      4678.159        3638.569
  19785071.76309  19785073.22609  19785075.21609  -7335149.65709  -5705084.52209
      2100.636        1633.830
  23700475.74005  23700477.30805  23700482.43705  -2930731.65605  -1813105.78705
      4268.349        3319.803
 04  4 28 23 32  0.0000000  0 14G06G10G13G16G17G21G24G25G30R04R05R06
                                R21R22
  20719049.44709  20719049.02109  20719053.41009   4021740.31609   5149287.24809
     -1529.117       -1191.521
  22291227.37708  22291226.52308  22291231.52408  -4493627.57708   -995815.24808
       308.774         240.612
  24323969.48506  24323968.66106  24323973.43706   1994197.95706  -1060702.77206
      -767.813        -598.299
  22517300.95408  22517300.03708  22517304.27908 -11694173.50608  -8458657.57908
      2812.936        2191.890
  22264124.09808  22264123.02108  22264127.94108   7946861.18208   7281803.05308
     -2912.049       -2269.138
  21858179.99008  21858179.74408  21858183.04208 -10963566.77708  -6963367.38908
      2982.270        2323.845
  24944479.57303  24944480.80203  24944487.44303  13643629.70503  14063115.35003
     -3784.832       -2949.212
  24249704.33705  24249705.01205  24249710.91105  14186838.82905  11218107.50505
     -3303.891       -2574.477
  23348985.58707  23348985.79007  23348990.96507  13647842.24007  11724125.71407
     -3355.696       -2614.819
  21400033.10209  21400034.04409  21400036.70309   5544306.77609   5244336.84009
     -2195.810       -1707.854
  20443775.23009  20443776.31209  20443772.98709 -12312754.41709  -7246383.58009
      2150.121        1672.315
          .00006          .00006          .00006  -4401034.43216  -2024841.29016
      4672.855        3634.440
  19773347.19209  19773348.76509  19773350.91209  -7397910.80409  -5753898.74409
      2083.503        1620.502
  23676602.83505  23676604.23505  23676608.86105  -3058749.33805  -1912674.94305
      4266.168        3318.157
 04  4 28 23 32 30.0000000  0 14G06G10G13G16G17G21G24G25G30R04R05R06
                                R21R22
  20727822.76209  20727822.41409  20727826.89309   4067845.20709   5185213.13709
     -1544.507       -1203.511
  22289524.07108  22289523.10208  22289527.92308  -4502579.49308  -1002790.75908
       288.047         224.446
  24328407.17505  24328407.14505  24328410.11905   2017524.24805  -1042526.42705
      -787.223        -613.418
  22501280.79108  22501280.63608  22501284.63508 -11778357.35808  -8524255.36208
      2799.329        2181.295
  22280782.67708  22280781.74808  22280786.62208   8034401.73008   7350016.45708
     -2923.951       -2278.403
  21841191.47409  21841191.52809  21841195.13709 -11052838.29209  -7032929.58709
      2969.191        2313.651
  24966096.98403  24966096.56103  24966102.57203  13757223.96003  14151630.30703
     -3788.110       -2951.769
  24268585.05905  24268586.91505  24268593.10005  14286068.74705  11295429.44105
     -3311.424       -2580.344
  23368162.69607  23368162.87207  23368168.50307  13748617.28907  11802651.71207
     -3362.618       -2620.226
  21412398.14709  21412399.74209  21412401.37309   5610518.97209   5295835.20809
     -2218.225       -1725.289
  20431783.14209  20431784.23909  20431781.22609 -12376878.80809  -7296258.09609
      2124.855        1652.665
          .00007          .00007          .00007  -4541136.82717  -2133809.74917
      4667.287        3630.097
  19761719.18309  19761720.61909  19761723.04209  -7460156.69709  -5802312.20909
      2066.199        1607.046
  23652741.91605  23652743.31305  23652747.37505  -3186700.62805  -2012192.48405
      4263.853        3316.338
 04  4 28 23 33  0.0000000  0 14G06G10G13G16G17G21G24G25G30R04R05R06
                                R21R22
  20736683.43109  20736682.97509  20736687.62809   4114407.90009   5221495.75109
     -1559.648       -1215.312
  22287937.99808  22287936.88808  22287942.03908  -4510913.26308  -1009284.61308
       267.541         208.474
  24332957.07405  24332956.52305  24332960.08705   2041429.67105  -1023898.82205
      -806.442        -628.398
  22485338.10408  22485338.32908  22485342.20008 -11862135.65208  -8589537.12608
      2785.874        2170.806
  22297508.10108  22297507.11508  22297512.46308   8122294.79208   7418504.55008
     -2935.563       -2287.451
  21824279.25209  21824278.29909  21824281.73709 -11141719.83109  -7102187.89909
      2956.233        2303.563
  24987730.82904  24987731.83904  24987735.55104  13870911.11504  14240217.77404
     -3791.027       -2954.068
  24287512.53405  24287512.51305  24287518.38605  14385520.09905  11372923.93605
     -3318.675       -2585.969
  23387377.45207  23387377.58407  23387382.61207  13849594.78607  11881335.45507
     -3369.208       -2625.357
  21424887.81909  21424888.89509  21424891.09609   5677400.39409   5347854.08709
     -2240.454       -1742.574
  20419932.90409  20419933.98609  20419931.03009 -12440247.86609  -7345545.13509
      2099.720        1633.118
          .00006          .00006          .00006  -4681073.43916  -2242649.28516
      4661.748        3625.812
  19750187.46909  19750188.96809  19750191.12609  -7521886.44009  -5850324.22509
      2049.032        1593.691
  23628892.97305  23628895.68005  23628900.35105  -3314584.57805  -2111657.66905
      4261.688        3314.633
 04  4 28 23 33 30.0000000  0 14G06G10G13G16G17G21G24G25G30R04R05R06
                                R21R22
  20745632.88909  20745632.55609  20745636.99009   4161437.62609   5258142.29009
     -1575.109       -1227.357
  22286472.22209  22286471.16109  22286475.76309  -4518618.36809  -1015288.58609
       246.689         192.227
  24337616.80205  24337617.13805  24337620.53805   2065923.62605  -1004812.61305
      -825.885        -643.539
  22469476.05508  22469475.54908  22469478.80208 -11945495.51808  -8654492.83908
      2772.002        2160.000
  22314301.38707  22314300.72707  22314306.45907   8210547.53407   7487272.92007
     -2947.398       -2296.672
  21807441.99309  21807441.35209  21807444.50209 -11230198.78709  -7171132.51209
      2942.922        2293.183
  25009384.54704  25009384.47504  25009390.33904  13984699.41104  14328883.96304
     -3794.268       -2956.595
  24306480.76904  24306481.01104  24306486.37504  14485200.23604  11450596.69404
     -3326.097       -2591.768
  23406631.86907  23406633.02007  23406637.95807  13950782.89807  11960183.32007
     -3376.106       -2630.729
  21437503.96109  21437505.31309  21437506.89309   5744958.29709   5400399.12309
     -2262.739       -1759.911
  20408226.71909  20408227.63609  20408224.17009 -12502848.38609  -7394234.41209
      2074.201        1613.265
          .00005          .00005          .00005  -4820829.93215  -2351348.75715
      4655.896        3621.249
  19738754.64409  19738756.12409  19738758.56509  -7583086.46909  -5897924.24009
      2031.583        1580.122
  23605060.22506  23605062.75806  23605066.73006  -3442389.11606  -2211061.08506
      4259.185        3312.730
 04  4 28 23 34  0.0000000  0 14G06G10G13G16G17G21G24G25G30R04R05R06
                                R21R22
  20754670.07309  20754669.68009  20754674.04809   4208927.32409   5295147.25309
     -1590.416       -1239.289
  22285124.25408  22285123.23408  22285128.34308  -4525700.31708  -1020806.98508
       225.900         176.026
  24342389.10305  24342388.65305  24342393.14705   2090999.14205   -985273.27905
      -845.311        -658.680
  22453691.88108  22453691.73108  22453694.95308 -12028440.38908  -8719125.18708
      2758.098        2149.168
  22331162.08307  22331161.38207  22331166.20807   8299151.51307   7556314.97507
     -2959.081       -2305.779
  21790680.59409  21790679.73309  21790683.21109 -11318279.17509  -7239766.56009
      2929.573        2282.781
  25031056.02803  25031056.13903  25031059.71903  14098580.77103  14417622.74703
     -3797.376       -2958.976
  24325492.33206  24325491.39406  24325497.86306  14585100.36606  11528440.93406
     -3333.446       -2597.472
  23425927.28806  23425927.04206  23425932.04306  14052173.72106  12039189.15106
     -3382.828       -2635.974
  21450243.81809  21450244.97509  21450247.46409   5813183.67209   5453463.29409
     -2285.016       -1777.231
  20396663.09709  20396664.07409  20396660.55209 -12564684.07909  -7442328.82609
      2048.621        1593.367
          .00006          .00006          .00006  -4960408.43916  -2459909.78016
      4649.900        3616.582
  19727420.27309  19727421.83809  19727423.65509  -7643762.39509  -5945116.62109
      2013.993        1566.439
  23581240.72805  23581242.50305  23581248.01005  -3570118.55805  -2310406.11505
      4256.639        3310.708
 04  4 28 23 34 30.0000000  0 14G06G10G13G16G17G21G24G25G30R04R05R06
                                R21R22
  20763793.92409  20763793.39909  20763797.86909   4256873.37609   5332507.81009
     -1605.544       -1251.073
  22283894.88308  22283893.88408  22283898.96008  -4532161.54508  -1025841.70908
       205.266         159.945
  24347271.64606  24347270.57806  24347274.06806   2116651.99506   -965283.99206
      -864.454        -673.602
  22437987.18108  22437986.51508  22437990.38508 -12110970.22908  -8783434.13308
      2744.292        2138.409
  22348089.00408  22348088.18508  22348093.00608   8388101.89508   7625626.96508
     -2970.517       -2314.687
  21773995.74909  21773994.52909  21773998.11809 -11405961.73109  -7308090.60209
      2916.342        2272.474
  25052742.85304  25052742.93404  25052748.06304  14212550.41704  14506430.30504
     -3800.188       -2961.187
  24344543.39305  24344542.77905  24344548.65805  14685214.61805  11606451.96205
     -3340.421       -2602.928
  23445259.22506  23445258.90106  23445263.80906  14153762.45006  12118349.18306
     -3389.336       -2641.033
  21463107.85309  21463109.35809  21463111.38409   5882070.55409   5507041.97909
     -2307.041       -1794.363
  20385242.44009  20385243.51409  20385240.11709 -12625754.74609  -7489828.22409
      2023.153        1573.561
          .00007          .00007          .00007  -5099807.62417  -2568331.31117
      4643.821        3611.833
  19716183.33509  19716184.55509  19716186.69009  -7703914.74609  -5991901.78109
      1996.597        1552.909
  23557436.70005  23557437.85105  23557441.62905  -3697772.94305  -2409692.77205
      4254.066        3308.696
 04  4 28 23 35  0.0000000  0 14G06G10G13G16G17G21G24G25G30R04R05R06
                                R21R22
  20773004.01009  20773003.67709  20773008.01209   4305273.33909   5370222.06309
     -1621.266       -1263.323
  22282782.72808  22282782.08308  22282787.31408  -4538003.01608  -1030393.50508
       184.027         143.401
  24352261.86805  24352262.32105  24352265.44405   2142880.67905   -944846.08305
      -884.229        -689.024
  22422361.43708  22422360.57408  22422364.30008 -12193083.79008  -8847418.70708
      2729.796        2127.110
  22365080.85107  22365080.14907  22365085.26407   8477394.51307   7695205.62307
     -2982.465       -2323.999
  21757386.05109  21757384.84309  21757388.69809 -11493245.52309  -7376103.91309
      2902.418        2261.626
  25074447.32905  25074447.25705  25074451.49005  14326605.24905  14595304.15805
     -3803.576       -2963.823
  24363634.35705  24363634.15005  24363640.03505  14785539.15605  11684626.87405
     -3347.961       -2608.803
  23464626.21906  23464627.16706  23464631.56806  14255545.95906  12197660.97906
     -3396.389       -2646.525
  21476095.06309  21476096.37609  21476097.81809   5951614.70409   5561131.87809
     -2329.368       -1811.735
  20373964.93809  20373966.08009  20373963.03709 -12686059.27109  -7536731.73509
      1996.971        1553.201
          .00007          .00007          .00007  -5239024.30517  -2676610.91817
      4637.083        3606.644
  19705043.69209  19705045.46709  19705047.89809  -7763542.24609  -6038278.71409
      1978.404        1538.759
  23533647.26905  23533646.79205  23533650.72005  -3825351.03705  -2508920.07905
      4250.951        3306.291
 04  4 28 23 35 30.0000000  0 14G06G10G13G16G17G21G24G25G30R04R05R06
                                R21R22
  20782300.47209  20782300.07009  20782304.43209   4354126.04109   5408289.10209
     -1635.819       -1274.661
  22281789.81509  22281788.68509  22281793.53809  -4543224.60009  -1034462.27709
       163.881         127.706
  24357360.63905  24357361.08305  24357367.14505   2169683.82705   -923960.50205
      -902.829        -703.497
  22406815.59708  22406814.88408  22406818.25108 -12274778.71508  -8911077.07608
      2716.308        2116.605
  22382137.33607  22382136.47807  22382141.87507   8567026.63707   7765048.83507
     -2993.214       -2332.372
  21740852.50309  21740851.29509  21740855.08409 -11580128.71709  -7443805.08509
      2889.578        2251.615
  25096166.13903  25096167.91303  25096172.65303  14440742.66403  14684242.50103
     -3805.790       -2965.531
  24382765.25605  24382764.78805  24382769.69305  14886070.07605  11762962.60205
     -3354.309       -2613.734
  23484031.34705  23484032.39105  23484037.99705  14357521.93605  12277122.75805
     -3402.238       -2651.090
  21489204.18109  21489205.29909  21489208.30609   6021813.12009   5615730.64209
     -2350.572       -1828.224
  20362831.21809  20362832.59709  20362829.43209 -12745595.42209  -7583037.62109
      1971.867        1533.674
          .00007          .00007          .00007  -5378054.83517  -2784745.75617
      4631.387        3602.188
  19694003.62509  19694005.30709  19694007.11509  -7822643.19509  -6084246.11109
      1961.397        1525.533
  23509866.85905  23509868.81905  23509874.13505  -3952851.88905  -2608087.32905
      4248.881        3304.679
 04  4 28 23 36  0.0000000  0 14G06G10G13G16G17G21G24G25G30R04R05R06
                                R21R22
  20791683.49909  20791683.23809  20791687.63309   4403435.17609   5446711.79909
     -1651.240       -1286.679
  22280914.35508  22280913.68608  22280918.84008  -4547821.56308  -1038044.32208
       142.824         111.292
  24362572.66005  24362573.33405  24362575.45705   2197064.89205   -902624.61305
      -922.316        -718.676
  22391351.33409  22391350.07209  22391353.53209 -12356047.55509  -8974403.41209
      2701.834        2105.323
  22399259.70308  22399258.23408  22399262.86908   8657000.65208   7835158.46308
     -3004.788       -2341.401
  21724396.59209  21724395.75609  21724398.96109 -11666604.95109  -7511189.13709
      2875.731        2240.829
  25117902.56705  25117901.79605  25117907.01605  14554965.23705  14773247.08305
     -3808.818       -2967.917
  24401934.69905  24401935.36805  24401939.71505  14986808.93105  11841460.38005
     -3361.402       -2619.265
  23503475.47605  23503475.80805  23503480.18505  14459692.95505  12356736.51405
     -3408.923       -2656.292
  21502434.98109  21502436.78309  21502439.46309   6092666.88809   5670839.12609
     -2372.739       -1845.460
  20351842.99709  20351843.92409  20351841.13609 -12804356.07109  -7628740.33809
      1945.737        1513.345
          .00007          .00007          .00007  -5516891.04517  -2892729.41317
      4624.599        3596.921
  19683062.49809  19683063.82909  19683066.35409  -7881211.56409  -6129799.27909
      1943.295        1511.450
  23486107.53005  23486109.03505  23486113.49005  -4080267.90605  -2707188.55705
      4245.763        3302.270
 04  4 28 23 36 30.0000000  0 13G06G10G13G16G17G21G25G30R04R05R06R21
                                R22
  20801153.56509  20801153.14209  20801157.45609   4453199.96309   5485489.55709
     -1666.519       -1298.585
  22280158.98909  22280158.14309  22280163.12909  -4551793.10709  -1041139.02909
       121.856          94.954
  24367893.13105  24367893.40305  24367896.66805   2225022.86405   -880839.16805
      -941.665        -733.785
  22375967.74509  22375966.72609  22375970.23609 -12436887.19009  -9037395.31209
      2687.377        2094.057
  22416444.95507  22416444.42707  22416449.17007   8747314.23607   7905532.68407
     -3016.197       -2350.288
  21708018.31009  21708017.52109  21708021.46009 -11752671.29909  -7578253.79609
      2861.918        2230.066
  24421143.91905  24421143.29505  24421150.34905  15087753.69505  11920118.55005
     -3368.284       -2624.647
  23522956.61306  23522956.13606  23522960.03706  14562057.61206  12436501.17406
     -3415.464       -2661.396
  21515788.79809  21515789.95609  21515792.28509   6164173.51209   5726455.38709
     -2394.563       -1862.438
  20340999.76209  20341001.08409  20340997.91209 -12862337.98509  -7673837.37509
      1919.625        1493.037
          .00007          .00007          .00007  -5655527.88917  -3000558.02117
      4617.801        3591.614
  19672221.60409  19672223.18109  19672225.18109  -7939243.84809  -6174935.48909
      1925.341        1497.488
  23462364.40205  23462364.71105  23462369.55305  -4207596.31205  -2806221.66105
      4242.716        3299.869
 04  4 28 23 37  0.0000000  0 13G06G10G13G16G17G21G25G30R04R05R06R21
                                R22
  20810709.60309  20810709.27309  20810713.49109   4503417.52309   5524620.12209
     -1681.460       -1310.228
  22279521.84608  22279520.69808  22279525.94408  -4555140.55908  -1043747.42708
       101.193          78.849
  24373321.66505  24373322.59105  24373326.60205   2253555.81505   -858605.69505
      -960.627        -748.554
  22360665.90308  22360665.16608  22360668.62808 -12517296.53208  -9100051.92508
      2673.125        2082.954
  22433695.14207  22433694.35707  22433699.28507   8837963.44907   7976168.43507
     -3027.191       -2358.849
  21691718.47409  21691717.69709  21691721.44509 -11838327.25809  -7644998.67909
      2848.342        2219.492
  24440392.07905  24440391.26905  24440396.45005  15188899.58205  11998933.45505
     -3374.824       -2629.743
  23542473.20407  23542472.52307  23542475.84507  14664612.39507  12516413.98307
     -3421.634       -2666.210
  21529263.09309  21529264.30409  21529266.91609   6236328.92609   5782576.26409
     -2415.997       -1879.111
  20330302.98709  20330304.19209  20330300.98409 -12919540.25409  -7718328.02209
      1893.741        1472.905
          .00006          .00006          .00006  -5793962.65616  -3108229.46716
      4611.108        3586.396
  19661481.03309  19661482.31909  19661484.78309  -7996738.71409  -6219653.71209
      1907.481        1483.597
  23438634.55205  23438635.12205  23438641.10205  -4334836.92605  -2905186.48305
      4239.868        3297.677
 04  4 28 23 37 30.0000000  0 13G06G10G13G16G17G21G25G30R04R05R06R21
                                R22
  20820351.10509  20820350.87109  20820355.20009   4554084.31409   5564100.73309
     -1696.527       -1321.970
  22279002.80608  22279002.00308  22279007.33908  -4557866.49208  -1045871.52408
        80.352          62.611
  24378859.58405  24378861.34605  24378865.58005   2282659.68805   -835927.34905
      -979.794        -763.492
  22345445.74008  22345445.70708  22345449.13908 -12597276.04208  -9162373.60108
      2658.631        2071.661
  22451008.00707  22451007.11307  22451012.10207   8928942.93607   8047061.54707
     -3038.295       -2367.500
  21675497.17509  21675496.29309  21675499.68409 -11923573.37509  -7711424.19809
      2834.515        2208.711
  24459675.57805  24459674.50805  24459680.69505  15290240.95605  12077900.72905
     -3381.411       -2634.842
  23562024.71207  23562023.83607  23562027.29607  14767352.47307  12596471.14807
     -3427.857       -2671.064
  21542857.20309  21542858.95409  21542861.50509   6309126.39509   5839196.51409
     -2437.437       -1895.783
  20319751.35409  20319752.23509  20319749.46509 -12975963.52609  -7762212.77709
      1867.591        1452.567
          .00006          .00006          .00006  -5932194.52016  -3215743.13616
      4604.118        3580.984
  19650840.63709  19650841.97409  19650844.08509  -8053699.24409  -6263956.33409
      1889.510        1469.619
  23414924.05305  23414923.92105  23414928.58605  -4461990.15005  -3004083.30505
      4236.790        3295.275
 04  4 28 23 38  0.0000000  0 13G06G10G13G16G17G21G25G30R04R05R06R21
                                R22
  20830078.50409  20830077.89509  20830082.41309   4605200.68509   5603931.66809
     -1711.411       -1333.567
  22278602.85008  22278601.89708  22278607.23608  -4559969.21808  -1047510.01008
        59.663          46.488
  24384508.21005  24384507.92805  24384513.36105   2312335.00605   -812803.75105
      -998.676        -778.194
  22330308.99709  22330308.64309  22330312.19009 -12676821.38709  -9224356.97409
      2644.219        2060.433
  22468383.02707  22468382.42207  22468387.44007   9020252.02507   8118211.47207
     -3049.135       -2375.949
  21659353.50109  21659352.82309  21659356.08809 -12008406.63209  -7777528.01209
      2820.832        2198.050
  24478999.27005  24478997.47205  24479003.14705  15391776.35905  12157019.17105
     -3387.758       -2639.816
  23581609.69706  23581609.67906  23581613.84306  14870277.47706  12676672.40506
     -3433.936       -2675.792
  21556572.32509  21556573.61409  21556575.79609   6382564.74909   5896315.22509
     -2458.602       -1912.250
  20309346.31309  20309347.56009  20309344.21509 -13031603.78809  -7805488.53209
      1841.551        1432.313
          .00007          .00007          .00007  -6070217.77617  -3323094.53717
      4597.234        3575.623
  19640300.37809  19640301.72409  19640304.02609  -8110120.78309  -6307839.74809
      1871.684        1455.756
  23391228.37705  23391229.66005  23391234.39905  -4589052.32405  -3102909.30005
      4233.822        3292.960
 04  4 28 23 38 30.0000000  0 13G06G10G13G16G17G21G25G30R04R05R06R21
                                R22
  20839891.22409  20839890.94209  20839895.40009   4656768.97009   5644114.74609
     -1726.308       -1345.173
  22278322.69408  22278321.02408  22278326.46008  -4561445.21108  -1048660.13008
        38.935          30.342
  24390266.17105  24390264.26705  24390268.09305   2342583.74605   -789233.28805
     -1017.677        -792.982
  22315255.15209  22315255.14309  22315258.98109 -12755926.44909  -9285997.26609
      2629.642        2049.072
  22485821.76607  22485820.83607  22485825.98407   9111891.49307   8189618.84407
     -3059.948       -2384.379
  21643289.62809  21643289.16409  21643292.90509 -12092821.53509  -7843305.83309
      2806.997        2187.272
  24498356.44405  24498356.13805  24498361.75005  15493505.88405  12236288.86505
     -3394.041       -2644.698
  23601231.05107  23601230.31307  23601234.21707  14973388.62707  12757018.71907
     -3439.924       -2680.448
  21570405.49209  21570406.43009  21570409.00909   6456643.57209   5953932.09509
     -2479.679       -1928.640
  20299088.73709  20299089.69709  20299086.96909 -13086455.34809  -7848150.84809
      1815.379        1411.957
          .00007          .00007          .00007  -6208024.70717  -3430277.66017
      4590.088        3570.070
  19629862.39909  19629863.87109  19629865.81409  -8165996.92409  -6351298.96109
      1853.603        1441.694
  23367550.39605  23367552.37205  23367558.39205  -4716017.73405  -3201660.04905
      4230.719        3290.563
 04  4 28 23 39  0.0000000  0 13G06G10G13G16G17G21G25G30R04R05R06R21
                                R22
  20849786.74609  20849786.63209  20849790.99709   4708770.18609   5684635.17009
     -1740.712       -1356.398
  22278156.58807  22278156.03107  22278161.22607  -4562312.59107  -1049336.00207
        18.599          14.494
  24396123.96305  24396124.43605  24396128.59805   2373387.11605   -765230.66205
     -1036.182        -807.400
  22300283.42109  22300283.16909  22300286.56009 -12834606.79409  -9347306.61109
      2615.400        2037.972
  22503319.26008  22503318.31008  22503323.20308   9203840.46508   8261267.39808
     -3070.271       -2392.412
  21627302.91709  21627302.34109  21627305.68709 -12176833.77309  -7908769.88909
      2793.495        2176.745
  24517746.20704  24517747.79904  24517751.71204  15595409.05204  12315693.87204
     -3399.789       -2649.188
  23620883.64607  23620883.66707  23620888.32207  15076666.10507  12837494.67007
     -3445.494       -2684.799
  21584355.16809  21584356.94309  21584359.06209   6531342.37409   6012031.15809
     -2500.440       -1944.795
  20288975.76609  20288976.91809  20288973.89009 -13140534.20409  -7890212.17609
      1789.529        1391.856
          .00007          .00007          .00007  -6345629.64617  -3537303.67517
      4583.240        3564.726
  19619522.45809  19619524.16409  19619526.47809  -8221345.00809  -6394347.46809
      1835.928        1427.946
  23343890.62005  23343891.65405  23343896.04605  -4842902.63005  -3300348.16005
      4228.004        3288.448
 04  4 28 23 39 30.0000000  0 13G06G10G13G16G17G21G25G30R04R05R06R21
                                R22
  20859767.21809  20859766.93609  20859771.45109   4761217.48909   5725503.19709
     -1755.868       -1368.211
  22278110.99908  22278109.68308  22278114.62308  -4562556.86908  -1049526.34108
        -2.460          -1.915
  24402096.05305  24402095.23505  24402098.91905   2404757.93905   -740785.84505
     -1055.363        -822.367
  22285395.32908  22285394.45608  22285398.14408 -12912845.34808  -9408271.70908
      2600.341        2026.243
  22520877.97007  22520876.58507  22520881.95107   9296111.46307   8333166.89307
     -3081.240       -2400.965
  21611395.61709  21611395.03309  21611398.23409 -12260427.07809  -7973907.50709
      2779.224        2165.629
  24537174.51005  24537173.69105  24537178.20605  15697497.03705  12395242.94005
     -3406.205       -2654.212
  23640570.00606  23640570.48906  23640576.24506  15180122.15806  12918109.75806
     -3451.702       -2689.646
  21598422.17309  21598423.59409  21598425.86709   6606671.91609   6070620.79009
     -2521.731       -1961.347
  20279010.88709  20279011.68109  20279008.57809 -13193823.33109  -7931659.26709
      1762.902        1371.142
          .00006          .00006          .00006  -6483014.01516  -3644158.16216
      4575.567        3558.767
  19609284.99809  19609286.40209  19609288.71609  -8276148.28609  -6436972.23309
      1817.436        1413.561
  23320247.40406  23320248.33606  23320251.59206  -4969690.01906  -3398960.44606
      4224.363        3285.608
 04  4 28 23 40  0.0000000  0 13G06G10G13G16G17G21G25G30R04R05R06R21
                                R22
  20869831.83209  20869831.44509  20869836.03209   4814108.32209   5766716.82809
     -1770.256       -1379.418
  22278182.78108  22278181.72908  22278185.90208  -4562179.24008  -1049232.08008
       -22.802         -17.767
  24408172.79005  24408171.81505  24408176.70205   2436693.23805   -715901.16205
     -1073.764        -836.713
  22270591.85008  22270590.63008  22270594.17008 -12990640.95708  -9468891.64508
      2585.937        2015.016
  22538496.29307  22538495.78907  22538500.73007   9388700.03607   8405313.82307
     -3091.393       -2408.874
  21595567.93609  21595567.46009  21595570.68309 -12343601.03309  -8038718.35709
      2765.601        2155.012
  24556633.56705  24556636.01405  24556640.95705  15799765.10305  12474932.26705
     -3411.780       -2658.526
  23660290.26105  23660289.73005  23660295.96005  15283753.39605  12998861.32805
     -3457.122       -2693.862
  21612606.53909  21612607.74709  21612610.19609   6682627.56909   6129697.41509
     -2542.027       -1977.130
  20269193.34609  20269194.13509  20269190.78309 -13246322.20909  -7972491.71609
      1736.914        1350.928
          .00007          .00007          .00007  -6620174.79317  -3750838.74617
      4568.432        3553.216
  19599148.73109  19599150.42709  19599152.58609  -8330407.05509  -6479173.48909
      1799.692        1399.758
  23296619.43505  23296621.86005  23296626.28805  -5096379.59505  -3497496.69805
      4221.472        3283.361
 04  4 28 23 40 30.0000000  0 13G06G10G13G16G17G21G25G30R04R05R06R21
                                R22
  20879981.46809  20879981.05409  20879985.36509   4867443.33609   5808276.57809
     -1784.842       -1390.785
  22278373.01108  22278372.17208  22278376.80708  -4561177.55108  -1048451.53508
       -43.404         -33.825
  24414356.32705  24414357.40905  24414361.10905   2469194.46405   -690575.52505
     -1092.431        -851.261
  22255872.70909  22255871.88209  22255874.84309 -13067989.21209  -9529163.00209
      2571.159        2003.499
  22556175.90207  22556175.28207  22556180.40207   9481605.66707   8477707.81007
     -3101.736       -2416.933
  21579820.72309  21579820.57609  21579824.24009 -12426351.65709  -8103199.34009
      2751.657        2144.146
  24576130.87005  24576130.26105  24576135.32205  15902212.42905  12554761.29805
     -3417.504       -2663.009
  23680043.10306  23680043.46906  23680049.36606  15387559.70106  13079749.32306
     -3462.728       -2698.241
  21626907.69109  21626908.90909  21626911.26809   6759207.88309   6189259.87909
     -2562.817       -1993.303
  20259523.75109  20259524.93809  20259521.83209 -13298026.61309  -8012706.24909
      1710.607        1330.468
          .00007          .00007          .00007  -6757106.43817  -3857341.12817
      4560.892        3547.363
  19589115.83109  19589117.12609  19589119.15009  -8384117.20309  -6520948.04609
      1781.590        1385.683
  23273015.88106  23273016.37606  23273020.30306  -5222966.56806  -3595953.14006
      4218.196        3280.811
 04  4 28 23 41  0.0000000  0 13G06G10G13G16G17G21G25G30R04R05R06R21
                                R22
  20890213.80409  20890213.37809  20890217.83909   4921214.71509   5850176.34809
     -1800.025       -1402.617
  22278681.43508  22278680.11008  22278684.87008  -4559558.79408  -1047190.16508
       -64.629         -50.361
  24420650.39505  24420649.31805  24420650.97905   2502253.20605   -664815.48905
     -1111.606        -866.198
  22241237.20409  22241237.11409  22241240.92409 -13144894.42509  -9589089.13309
      2555.709        1991.469
  22573914.34607  22573913.15007  22573918.69007   9574819.28407   8550341.79507
     -3112.611       -2425.412
  21564153.89309  21564153.18209  21564156.61509 -12508683.82509  -8167354.25309
      2737.018        2132.740
  24595657.74604  24595655.39304  24595659.87504  16004829.26104  12634722.40304
     -3423.714       -2667.805
  23699828.36206  23699828.68006  23699835.24506  15491532.37806  13160766.97206
     -3468.894       -2703.028
  21641323.27509  21641324.57609  21641326.61109   6836402.71609   6249300.31109
     -2583.712       -2009.560
  20250002.33909  20250003.70309  20250000.68109 -13348941.06009  -8052306.36709
      1683.572        1309.442
          .00007          .00007          .00007  -6893811.20517  -3963667.05717
      4552.624        3540.930
  19579183.66209  19579185.04109  19579187.68809  -8437281.69309  -6562298.19609
      1762.657        1370.954
  23249426.64006  23249428.42106  23249431.49306  -5349456.13506  -3694333.82206
      4214.290        3277.777
 04  4 28 23 41 30.0000000  0 13G06G10G13G16G17G21G25G30R04R05R06R21
                                R22
  20900532.32809  20900531.93209  20900536.29709   4975438.75909   5892428.84209
     -1814.643       -1414.007
  22279110.32408  22279109.26008  22279113.79808  -4557305.52008  -1045434.36508
       -85.289         -66.460
  24427050.13005  24427047.94205  24427052.48605   2535885.84905   -638608.22905
     -1130.233        -880.710
  22226691.19908  22226690.59908  22226694.56008 -13221336.40308  -9648654.29408
      2540.702        1979.769
  22591713.69907  22591712.95007  22591718.01007   9668355.99107   8623227.54207
     -3122.844       -2433.385
  21548569.58409  21548569.27809  21548572.45609 -12590577.96609  -8231167.84509
      2722.870        2121.714
  24615222.71505  24615220.05305  24615225.48805  16107630.03205  12714826.86905
     -3429.347       -2672.229
  23719646.32905  23719647.28205  23719654.63905  15595686.70805  13241926.18405
     -3474.421       -2707.343
  21655856.67008  21655857.37808  21655860.14208   6914227.46708   6309830.66408
     -2604.119       -2025.428
  20240633.09609  20240633.81609  20240630.82109 -13399045.76909  -8091276.69109
      1657.016        1288.788
          .00007          .00007          .00007  -7030267.50917  -4069799.69417
      4544.737        3534.788
  19569358.01209  19569359.51709  19569361.42709  -8489881.40409  -6603209.07609
      1744.224        1356.620
  23225859.78405  23225860.74005  23225866.55605  -5475828.12505  -3792623.08005
      4210.792        3275.051
 04  4 28 23 42  0.0000000  0 13G06G10G13G16G17G21G25G30R04R05R06R21
                                R22
  20910932.91609  20910932.64709  20910936.95209   5030095.03909   5935018.14809
     -1829.180       -1425.333
  22279655.79308  22279655.09508  22279659.33408  -4554437.34808  -1043199.43008
      -105.964         -82.569
  24433553.19505  24433553.84005  24433558.83105   2570071.52105   -611970.07305
     -1148.854        -895.175
  22212229.33109  22212229.24709  22212232.94309 -13297331.94609  -9707871.58409
      2525.606        1968.005
  22609569.70707  22609569.07407  22609574.53007   9762193.23107   8696347.47407
     -3133.018       -2441.321
  21533065.92209  21533065.28909  21533068.52409 -12672051.55509  -8294653.73209
      2708.654        2110.637
  24634813.40305  24634812.83305  24634818.60705  16210592.40805  12795057.22205
     -3434.896       -2676.521
  23739497.52405  23739498.87005  23739503.73905  15700001.45605  13323210.39205
     -3479.942       -2711.643
  21670501.99108  21670503.72908  21670505.60308   6992658.05508   6370832.23608
     -2624.616       -2041.356
  20231411.03109  20231412.03509  20231409.29209 -13448358.49509  -8129631.02909
      1630.416        1268.102
          .00007          .00007          .00007  -7166490.96217  -4175751.21517
      4536.740        3528.579
  19559633.99809  19559635.22109  19559637.37409  -8541935.25009  -6643695.39609
      1725.937        1342.397
  23202313.80205  23202314.99305  23202318.91105  -5602099.73005  -3890834.25505
      4207.273        3272.328
 04  4 28 23 42 30.0000000  0 13G06G10G13G16G17G21G25G30R04R05R06R21
                                R22
  20921417.12609  20921416.62909  20921421.04509   5085189.19809   5977948.66509
     -1843.872       -1436.780
  22280320.02809  22280318.90109  22280323.27509  -4550947.12109  -1040479.77109
      -126.792         -98.796
  24440162.94705  24440165.49805  24440169.52805   2604815.80405   -584896.57905
     -1167.563        -909.781
  22197855.57409  22197854.79809  22197857.89209 -13372871.53809  -9766733.59309
      2510.266        1956.046
  22627484.55407  22627483.62207  22627489.24307   9856336.33107   8769705.71507
     -3143.264       -2449.297
  21517643.64709  21517642.96109  21517646.60309 -12753095.57809  -8357804.89709
      2694.197        2099.375
  24654437.85305  24654438.40705  24654442.37105  16313720.56905  12875416.70905
     -3440.359       -2680.801
  23759381.85505  23759381.21705  23759384.91905  15804481.56505  13404623.42405
     -3485.470       -2715.941
  21685262.94708  21685264.00208  21685266.91608   7071699.29708   6432308.75908
     -2644.951       -2057.193
  20222339.30209  20222340.21309  20222337.02009 -13496870.04109  -8167362.22309
      1603.611        1247.253
          .00007          .00007          .00007  -7302470.55017  -4281513.06917
      4528.487        3522.156
  19550013.25609  19550014.62709  19550016.84209  -8593434.36709  -6683750.26109
      1707.350        1327.937
  23178785.07105  23178786.57605  23178791.90305  -5728261.83005  -3988960.23005
      4203.445        3269.343
 04  4 28 23 43  0.0000000  0 13G06G10G13G16G17G21G25G30R04R05R06R21
                                R22
  20931982.94909  20931982.43009  20931987.18209   5140713.06509   6021214.00909
     -1857.796       -1447.635
  22281101.63509  22281100.53209  22281104.61209  -4546842.03609  -1037281.01009
      -146.967        -114.514
  24446881.86905  24446882.01305  24446884.03905   2640110.35905   -557394.35505
     -1185.552        -923.774
  22183565.77208  22183565.73308  22183569.32808 -13447959.89808  -9825243.98808
      2495.512        1944.556
  22645455.31407  22645455.04407  22645460.74907   9950775.42007   8843294.61907
     -3152.745       -2456.683
  21502302.18509  21502301.61209  21502305.14709 -12833715.33009  -8420625.46009
      2680.347        2088.586
  24674093.19705  24674093.03205  24674098.24505  16417004.22005  12955897.43805
     -3445.212       -2684.570
  23779295.02106  23779294.24706  23779295.70406  15909117.95706  13486158.26006
     -3490.333       -2719.740
  21700135.81308  21700136.34008  21700138.95108   7151339.69908   6494251.27708
     -2664.496       -2072.378
  20213415.53009  20213416.96909  20213414.13909 -13544585.77509  -8204474.45209
      1577.370        1226.836
          .00007          .00007          .00007  -7438208.81717  -4387087.25417
      4520.661        3516.074
  19540495.87409  19540497.22009  19540499.03709  -8644383.93809  -6723377.69709
      1689.248        1313.860
  23155278.41905  23155279.63005  23155284.22305  -5854318.86305  -4087004.55305
      4200.259        3266.860
 04  4 28 23 43 30.0000000  0 13G06G10G13G16G17G21G25G30R04R05R06R21
                                R22
  20942630.16509  20942629.58609  20942633.87009   5196662.65709   6064811.08909
     -1872.063       -1458.751
  22281998.79409  22281998.04209  22282002.19109  -4542124.98009  -1033605.37909
      -167.438        -130.473
  24453703.16405  24453701.95505  24453704.67805   2675951.05205   -529466.51605
     -1203.784        -937.996
  22169362.98109  22169362.80109  22169366.13209 -13522597.22609  -9883402.93409
      2480.351        1932.741
  22663482.53307  22663481.48607  22663486.44507  10045504.90707   8917109.80707
     -3162.488       -2464.274
  21487041.25009  21487040.62309  21487044.32609 -12913911.59709  -8483116.02809
      2666.115        2077.495
  24693775.13505  24693774.19105  24693780.45105  16520437.65005  13036494.89605
     -3450.241       -2688.506
  23799235.44306  23799234.87406  23799237.23006  16013905.71206  13567811.02906
     -3495.441       -2723.747
  21715117.37408  21715118.84308  21715122.76408   7231572.81308   6556654.81308
     -2684.362       -2087.834
  20204641.69909  20204643.08409  20204639.87009 -13591506.39209  -8240968.25609
      1550.746        1206.136
          .00007          .00007          .00007  -7573705.27617  -4492473.36717
      4512.511        3509.708
  19531080.46909  19531081.81209  19531083.91409  -8694784.36509  -6762578.02709
      1670.823        1299.533
  23131791.01405  23131792.42005  23131796.21305  -5980271.95005  -4184968.03505
      4196.724        3264.129
 04  4 28 23 44  0.0000000  0 13G06G10G13G16G17G21G25G30R04R05R06R21
                                R22
  20953360.03409  20953359.62009  20953364.13209   5253051.16009   6108750.18209
     -1886.899       -1470.307
  22283015.98409  22283014.78509  22283018.96709  -4536781.68609  -1029441.77209
      -188.524        -146.903
  24460627.87805  24460628.84005  24460632.19205   2712351.23105   -501102.74805
     -1222.661        -952.757
  22155249.26508  22155248.84208  22155252.44308 -13596766.18108  -9941196.91108
      2464.490        1920.378
  22681566.39707  22681565.60907  22681570.95107  10140537.54407   8991161.21407
     -3172.749       -2472.279
  21471863.97509  21471863.52209  21471867.18909 -12993667.99109  -8545263.85009
      2651.213        2065.882
  24713488.21305  24713488.34505  24713494.18205  16624032.54705  13117218.07805
     -3455.821       -2692.851
  23819206.76505  23819206.09705  23819208.89105  16118857.47705  13649591.58305
     -3501.088       -2728.109
  21730214.02308  21730215.11708  21730217.58408   7312411.13808   6619529.07108
     -2704.582       -2103.555
  20196018.71109  20196019.86809  20196017.14609 -13637615.23609  -8276830.68309
      1523.417        1184.877
          .00007          .00007          .00007  -7708940.37817  -4597656.21017
      4503.429        3502.665
  19521770.34609  19521772.10509  19521774.38109  -8744618.85909  -6801338.18509
      1651.684        1284.643
  23108324.10305  23108326.49205  23108330.81805  -6106103.76005  -4282837.12405
      4192.333        3260.705
 04  4 28 23 44 30.0000000  0 13G06G10G13G16G17G21G25G30R04R05R06R21
                                R22
  20964173.19409  20964172.92109  20964177.27709   5309874.68509   6153028.25309
     -1901.019       -1481.315
  22284151.11508  22284150.01508  22284154.52108  -4530815.38808  -1024792.70308
      -208.919        -162.797
  24467662.46906  24467659.55206  24467663.57506   2749306.08506   -472306.78206
     -1240.691        -966.742
  22141224.38908  22141223.77508  22141227.61208 -13670467.71508  -9998626.66608
      2449.238        1908.496
  22699706.92007  22699706.08007  22699712.05807  10235867.34207   9065444.17407
     -3182.256       -2479.686
  21456770.65409  21456769.87709  21456773.34909 -13072985.66909  -8607069.81409
      2636.927        2054.750
  24733231.22204  24733230.98804  24733238.86104  16727782.76004  13198062.34304
     -3460.596       -2696.576
  23839207.80905  23839208.00405  23839210.77105  16223968.27305  13731496.06305
     -3505.980       -2731.938
  21745422.59008  21745423.48708  21745425.18008   7393847.66208   6682868.58908
     -2724.128       -2118.770
  20187547.97309  20187549.36109  20187546.08209 -13682913.68209  -8312062.80209
      1496.796        1164.175
          .00006          .00006          .00006  -7843913.83216  -4702635.55316
      4495.050        3496.157
  19512566.69909  19512568.26709  19512570.28509  -8793888.91009  -6839659.33009
      1633.173        1270.248
  23084882.50006  23084884.47906  23084887.97506  -6231814.94606  -4380612.43606
      4188.710        3257.890
 04  4 28 23 45  0.0000000  0 13G06G10G13G16G17G21G25G30R04R05R06R21
                                R22
  20975067.03109  20975066.92609  20975071.39309   5367123.01609   6197637.34109
     -1915.335       -1492.468
  22285403.23708  22285401.99308  22285406.40308  -4524235.04208  -1019665.15308
      -229.560        -178.880
  24474796.02705  24474796.03605  24474799.85905   2786805.76505   -443086.25505
     -1259.090        -981.115
  22127287.19409  22127286.45909  22127290.27009 -13743707.87209 -10055696.90609
      2433.627        1896.334
  22717902.40607  22717901.45607  22717906.52007  10331482.73907   9139949.67107
     -3191.897       -2487.190
  21441759.12509  21441758.42109  21441761.70009 -13151871.73009  -8668539.44809
      2622.324        2043.365
  24753000.66404  24753001.04504  24753007.30504  16831676.75204  13279018.66204
     -3465.494       -2700.397
  23859239.20006  23859238.47806  23859241.01706  16329226.96006  13813515.81106
     -3511.039       -2735.903
  21760739.04108  21760739.93408  21760742.40808   7475869.98308   6746663.72608
     -2743.790       -2134.054
  20179227.04509  20179228.43009  20179225.34809 -13727408.56609  -8346669.92509
      1469.745        1143.134
          .00007          .00007          .00007  -7978629.86417  -4807414.66017
      4486.231        3489.296
  19503466.89509  19503468.32209  19503470.49809  -8842600.49109  -6877546.11109
      1614.380        1255.630
  23061461.03505  23061461.58005  23061467.15105  -6357412.43805  -4478299.27105
      4184.674        3254.746
 04  4 28 23 45 30.0000000  0 13G06G10G13G16G17G21G25G30R04R05R06R21
                                R22
  20986042.00709  20986041.58509  20986046.04909   5424795.27109   6242576.75709
     -1929.722       -1503.681
  22286772.64409  22286771.31909  22286775.54009  -4517040.40809  -1014058.94009
      -250.325        -195.059
  24482038.09305  24482036.58505  24482038.48205   2824849.04505   -413442.15105
     -1277.423        -995.381
  22113438.53009  22113437.78409  22113441.19809 -13816483.71409 -10112405.34309
      2417.838        1884.033
  22736151.58007  22736150.59307  22736155.30607  10427382.09207   9214676.42707
     -3201.617       -2494.754
  21426829.90409  21426829.54509  21426832.78509 -13230323.63209  -8729670.78209
      2607.543        2031.852
  24772800.00404  24772799.65404  24772806.03604  16935711.74504  13360084.81004
     -3470.424       -2704.192
  23879295.86706  23879296.07706  23879298.05006  16434632.24406  13895649.75806
     -3516.195       -2739.876
  21776164.78408  21776166.75608  21776168.53408   7558475.88308   6810912.74508
     -2763.572       -2149.439
  20171057.12209  20171058.36309  20171054.93609 -13771097.71409  -8380650.36809
      1442.600        1122.020
          .00008          .00008          .00008  -8113084.13018  -4911990.18118
      4477.134        3482.218
  19494472.05409  19494473.49009  19494475.45909  -8890752.02209  -6914997.30009
      1595.431        1240.891
  23038062.37706  23038062.24806  23038066.76606  -6482893.81906  -4575895.82306
      4180.472        3251.480
 04  4 28 23 46  0.0000000  0 13G06G10G13G16G17G21G25G30R04R05R06R21
                                R22
  20997098.92009  20997098.47909  20997103.04209   5482899.85009   6287853.04409
     -1943.868       -1514.701
  22288260.22408  22288259.15308  22288263.34408  -4509221.95808  -1007966.63708
      -270.870        -211.064
  24489379.14405  24489379.85405  24489384.55505   2863444.11805   -383368.06905
     -1295.531       -1009.469
  22099679.95709  22099679.54609  22099683.21609 -13888783.33409 -10168742.69809
      2402.163        1871.808
  22754456.13707  22754455.13007  22754460.69107  10523572.65607   9289630.11707
     -3211.033       -2502.104
  21411986.18709  21411985.48909  21411988.82309 -13308329.97609  -8790454.92409
      2592.907        2020.444
  24792623.58603  24792623.11203  24792629.60903  17039894.53803  13441266.11203
     -3475.017       -2707.797
  23899383.35006  23899382.96606  23899387.08606  16540191.62106  13977903.80206
     -3521.036       -2743.655
  21791700.34108  21791701.99908  21791704.31608   7641670.88808   6875619.97408
     -2782.856       -2164.454
  20163039.85309  20163040.95009  20163038.06609 -13813969.82009  -8413995.33509
      1415.553        1100.986
          .00008          .00008          .00008  -8247262.83218  -5016351.36418
      4468.137        3475.212
  19485583.39909  19485584.89809  19485586.94009  -8938332.84409  -6952004.59709
      1576.579        1226.230
  23014684.71705  23014685.94005  23014690.01205  -6608245.81305  -4673391.73905
      4176.359        3248.274
 04  4 28 23 46 30.0000000  0 13G06G10G13G16G17G21G25G30R04R05R06R21
                                R22
  21008236.98609  21008236.61709  21008241.09909   5541431.05409   6333461.77109
     -1958.450       -1526.065
  22289865.63908  22289864.63208  22289868.98508  -4500784.83808  -1001392.25408
      -291.877        -227.434
  24496831.72005  24496828.31205  24496832.28105   2902584.51105   -352869.07505
     -1314.090       -1023.962
  22086012.59309  22086011.48609  22086015.26109 -13960608.83309 -10224710.60609
      2385.936        1859.171
  22772814.93207  22772813.39107  22772818.28707  10620047.18207   9364805.07307
     -3220.829       -2509.737
  21397225.92109  21397225.38409  21397228.92209 -13385893.76009  -8850894.21709
      2577.737        2008.624
  24812478.36705  24812476.38205  24812482.03605  17144217.36505  13522556.55605
     -3480.042       -2711.698
  23919498.07505  23919497.89205  23919503.65705  16645898.26305  14060272.55905
     -3526.285       -2747.737
  21807345.24708  21807346.82108  21807349.62708   7725446.68808   6940778.93208
     -2802.498       -2179.719
  20155175.00809  20155175.84409  20155173.00209 -13856027.80509  -8446707.09309
      1388.003        1079.558
          .00007          .00007          .00007  -8381166.41617  -5120498.53417
      4458.454        3467.681
  19476800.70309  19476802.13009  19476804.54709  -8985345.84109  -6988570.25909
      1557.301        1211.234
  22991331.09806  22991333.98506  22991337.83106  -6733471.93406  -4770789.76806
      4171.726        3244.676
 04  4 28 23 47  0.0000000  0 13G06G10G13G16G17G21G25G30R04R05R06R21
                                R22
  21019457.39309  21019457.28909  21019461.68909   5600395.77709   6379408.30709
     -1972.534       -1537.039
  22291590.63309  22291589.91909  22291593.72409  -4491720.73809   -994329.31609
      -312.370        -243.405
  24504381.82805  24504381.76005  24504385.93005   2942277.64905   -321939.40305
     -1332.045       -1037.933
  22072436.88409  22072435.99409  22072439.78909 -14031949.49509 -10280300.71509
      2370.119        1846.843
  22791227.85807  22791226.70107  22791231.81607  10716811.25707   9440205.63907
     -3230.064       -2516.925
  21382552.38109  21382551.91309  21382555.13909 -13463004.49109  -8910980.48309
      2562.990        1997.135
  24832355.82405  24832355.10105  24832363.08805  17248685.42005  13603960.20405
     -3484.539       -2715.225
  23939641.32805  23939642.27605  23939647.54905  16751758.65705  14142761.14805
     -3531.046       -2751.453
  21823100.03008  21823101.54108  21823102.80908   7809808.69808   7006393.82608
     -2821.542       -2194.531
  20147463.71009  20147464.91509  20147462.06409 -13897261.20509  -8478777.50809
      1360.897        1058.471
          .00007          .00007          .00007  -8514782.43617  -5224422.05917
      4449.281        3460.547
  19468126.76309  19468128.23809  19468130.42409  -9031779.23109  -7024685.10909
      1538.315        1196.468
  22968005.45806  22968006.83706  22968011.05506  -6858561.21406  -4868081.34006
      4167.543        3241.426
 04  4 28 23 47 30.0000000  0 13G06G10G13G16G17G21G25G30R04R05R06R21
                                R22
  21030758.35509  21030757.91109  21030762.69909   5659782.00709   6425683.28709
     -1986.598       -1547.996
  22293432.56708  22293431.84408  22293435.90908  -4482041.01308   -986786.67408
      -332.978        -259.467
  24512038.01505  24512038.54605  24512041.54105   2982510.86005   -290588.82605
     -1350.199       -1052.123
  22058952.17409  22058951.19409  22058954.51309 -14102813.47709 -10335519.39209
      2354.097        1834.359
  22809694.35707  22809693.28407  22809698.38307  10813851.94707   9515821.76807
     -3239.349       -2524.171
  21367963.39809  21367962.50409  21367965.95209 -13539671.31309  -8970720.84509
      2548.071        1985.512
  24852262.64904  24852260.41804  24852266.83704  17353285.19004  13685466.40504
     -3488.884       -2718.581
  23959813.02305  23959812.99305  23959819.83105  16857760.03105  14225359.60805
     -3535.773       -2755.150
  21838960.57108  21838961.64108  21838963.87208   7894742.93508   7072453.78408
     -2840.822       -2209.521
  20139905.99909  20139906.80609  20139903.77809 -13937679.72809  -8510214.13109
      1333.621        1037.259
          .00007          .00007          .00007  -8648117.62217  -5328127.18517
      4439.711        3453.115
  19459558.76709  19459560.00209  19459562.51709  -9077644.06809  -7060357.75809
      1519.256        1181.644
  22944702.37406  22944704.11006  22944708.10306  -6983522.31706  -4965273.24806
      4163.089        3237.958
 04  4 28 23 48  0.0000000  0 13G06G10G13G16G17G21G25G30R04R05R06R21
                                R22
  21042139.73309  21042139.25309  21042143.67809   5719590.32309   6472287.16509
     -2000.682       -1558.976
  22295392.30108  22295391.16508  22295395.60808  -4471744.06908   -978763.08208
      -353.600        -275.531
  24519800.71806  24519796.84806  24519800.34306   3023284.52006   -258817.13906
     -1368.176       -1066.094
  22045558.23309  22045557.49209  22045561.29909 -14173196.61209 -10390363.38509
      2337.977        1821.800
  22828212.82807  22828212.41707  22828216.99807  10911168.89607   9591653.17507
     -3248.570       -2531.344
  21353459.12109  21353458.42809  21353462.13409 -13615890.57909  -9030112.46209
      2533.073        1973.820
  24872191.61905  24872191.07605  24872196.01705  17458015.63205  13767074.48405
     -3493.237       -2722.006
  23980011.49106  23980011.26406  23980018.21606  16963902.06306  14308067.68806
     -3540.472       -2758.817
  21854928.23708  21854929.14808  21854931.19608   7980246.78308   7138956.77108
     -2859.656       -2224.171
  20132499.96809  20132501.14609  20132498.12509 -13977279.59909  -8541014.02509
      1306.265        1015.984
          .00007          .00007          .00007  -8781166.27217  -5431609.43817
      4430.025        3445.572
  19451098.15009  19451099.66409  19451101.92409  -9122934.05609  -7095583.29709
      1500.053        1166.708
  22921424.05606  22921425.20806  22921430.43306  -7108350.46106  -5062361.74506
      4158.624        3234.480
 04  4 28 23 48 30.0000000  0 13G06G10G13G16G17G21G25G30R04R05R06R21
                                R22
  21053600.47509  21053600.17209  21053604.33309   5779817.43109   6519217.37609
     -2014.446       -1569.699
  22297468.58908  22297467.61408  22297472.10208  -4460832.59308   -970260.63208
      -373.895        -291.349
  24527657.59805  24527659.13005  24527663.86705   3064595.02005   -226627.13105
     -1385.871       -1079.875
  22032256.35408  22032255.68308  22032259.40308 -14243098.60708 -10444832.45808
      2322.078        1809.407
  22846783.77207  22846782.97107  22846787.63307  11008757.10607   9667695.94207
     -3257.390       -2538.226
  21339040.64209  21339039.57409  21339043.02509 -13691662.54709  -9089155.53009
      2518.311        1962.319
  24892145.64905  24892144.75305  24892150.07705  17562871.75705  13848780.52105
     -3497.209       -2725.062
  24000237.01106  24000236.41406  24000242.08606  17070180.57506  14390882.08206
     -3544.794       -2762.166
  21871000.65008  21871001.78108  21871004.65608   8066315.11108   7205898.80908
     -2878.298       -2238.674
  20125248.36009  20125248.76509  20125245.86009 -14016061.61409  -8571177.81309
      1279.123         994.874
          .00007          .00007          .00007  -8913926.46617  -5534867.37317
      4420.542        3438.201
  19442744.59509  19442746.08509  19442748.18409  -9167652.21809  -7130364.08909
      1481.088        1151.959
  22898170.15706  22898172.30606  22898176.18206  -7233046.22706  -5159347.24606
      4154.344        3231.167
 04  4 28 23 49  0.0000000  0 13G06G10G13G16G17G21G25G30R04R05R06R21
                                R22
  21065142.18509  21065141.78009  21065146.08809   5840469.12209   6566478.43309
     -2029.118       -1581.127
  22299663.01008  22299662.13708  22299666.35208  -4449299.99008   -961274.18908
      -395.156        -307.911
  24535621.03304  24535621.54904  24535625.65304   3106447.58004   -194014.74704
     -1404.531       -1094.478
  22019047.62809  22019047.07609  22019050.72409 -14312510.12409 -10498919.34509
      2305.128        1796.208
  22865405.60807  22865405.53307  22865410.78807  11106621.13407   9743953.62007
     -3267.098       -2545.778
  21324707.78609  21324707.33309  21324710.82009 -13766978.43809  -9147843.21309
      2502.523        1950.017
  24912122.26304  24912121.25804  24912129.59304  17667857.63104  13930587.65004
     -3502.073       -2728.879
  24020489.71206  24020487.97906  24020493.64206  17176600.62406  14473806.77106
     -3550.017       -2766.253
  21887178.96508  21887179.53208  21887182.94108   8152951.58108   7273282.72508
     -2897.602       -2253.698
  20118149.74309  20118150.79509  20118147.85409 -14054016.95409  -8600698.62209
      1250.989         972.988
          .00007          .00007          .00007  -9046386.60917  -5637891.89117
      4409.919        3429.932
  19434499.26809  19434500.80609  19434503.08109  -9211788.28409  -7164692.13509
      1461.061        1136.382
  22874943.64906  22874944.85706  22874949.01206  -7357599.69606  -5256222.15106
      4148.976        3226.980
 04  4 28 23 49 30.0000000  0 13G06G10G13G16G17G21G25G30R04R05R06R21
                                R22
  21076765.98709  21076765.36909  21076769.79409   5901551.88109   6614075.37609
     -2042.953       -1591.910
  22301977.36808  22301976.23808  22301980.43808  -4437138.58508   -951797.76808
      -415.576        -323.827
  24543693.71805  24543690.52905  24543693.74205   3148848.31305   -160975.20905
     -1422.201       -1108.275
  22005934.47509  22005933.98909  22005937.53209 -14381420.49909 -10552615.73009
      2288.922        1783.576
  22884082.64807  22884081.93807  22884087.18707  11204766.48407   9820430.52307
     -3275.908       -2552.658
  21310464.59509  21310463.88809  21310467.28709 -13841828.47709  -9206167.91009
      2487.506        1938.315
  24932127.19805  24932126.48105  24932132.13205  17772978.27305  14012499.74305
     -3505.918       -2731.892
  24040768.44106  24040768.11506  24040770.90606  17283168.20906  14556846.38906
     -3554.397       -2769.650
  21903465.17608  21903466.62408  21903467.66408   8240160.36508   7341111.78608
     -2916.185       -2268.144
  20111208.62709  20111209.52309  20111206.42109 -14091136.19309  -8629569.14009
      1223.634         951.713
          .00008          .00008          .00008  -9178534.62418  -5740673.64618
      4399.965        3422.200
  19426365.23009  19426366.52809  19426368.79809  -9255332.43809  -7198559.80809
      1441.927        1121.500
  22851746.75506  22851746.85106  22851751.11706  -7482000.65206  -5352978.38006
      4144.429        3223.441
 04  4 28 23 50  0.0000000  0 13G06G10G13G16G17G21G25G30R04R05R06R21
                                R22
  21088469.65009  21088469.12009  21088473.50309   5963054.86309   6661999.77509
     -2057.088       -1602.928
  22304409.27008  22304408.07408  22304412.43008  -4424358.19608   -941839.01508
      -436.336        -340.006
  24551865.75205  24551861.94205  24551866.54005   3191786.59205   -127516.83405
     -1440.129       -1122.184
  21992914.79708  21992914.62008  21992918.33108 -14449836.97308 -10605927.25808
      2272.285        1770.618
  22902810.30507  22902809.01607  22902814.47807  11303181.80407   9897117.77107
     -3284.993       -2559.730
  21296308.68909  21296307.74209  21296310.88109 -13916220.61709  -9264135.79009
      2472.075        1926.296
  24952151.97005  24952152.36205  24952155.66905  17878221.11005  14094507.21505
     -3510.087       -2735.139
  24061073.53406  24061072.35006  24061074.88606  17389871.75406  14639991.95106
     -3559.022       -2773.263
  21919855.56408  21919856.76308  21919858.64608   8327929.45208   7409376.61808
     -2935.014       -2282.783
  20104421.39809  20104422.57909  20104419.74009 -14127427.71309  -8657795.87609
      1195.895         930.141
          .00008          .00008          .00008  -9310376.63918  -5843217.40518
      4389.560        3414.104
  19418339.91809  19418341.23709  19418343.08109  -9298293.47709  -7231973.94709
      1422.235        1106.184
  22828573.10706  22828575.13906  22828579.63906  -7606256.43006  -5449621.71206
      4139.405        3219.536
 04  4 28 23 50 30.0000000  0 14G06G10G13G15G16G17G21G25G30R04R05R06
                                R21R22
  21100251.49109  21100251.28109  21100255.73609   6024970.63509   6710245.83009
     -2071.013       -1613.777
  22306958.14708  22306956.75008  22306961.18408  -4410965.62908   -931403.25508
      -456.943        -356.057
  24560136.70505  24560133.86305  24560136.24005   3235254.46805    -93645.77305
     -1458.006       -1136.116
  25034523.64404  25034524.53404  25034530.73704   1533924.93714   1848914.00914
      3969.570        3093.182
  21979989.18508  21979988.53808  21979992.17708 -14517763.54508 -10658857.04108
      2255.687        1757.677
  22921588.01007  22921586.58907  22921591.89807  11401857.71007   9974008.10007
     -3293.844       -2566.633
  21282237.97509  21282237.43309  21282240.93409 -13990159.20209  -9321750.25609
      2456.703        1914.315
  24972199.61003  24972201.11503  24972206.91603  17983577.12903  14176602.78103
     -3514.097       -2738.305
  24081400.89905  24081400.77005  24081403.38105  17496702.97305  14723237.03805
     -3563.510       -2776.758
  21936347.46208  21936348.91308  21936351.70108   8416247.66708   7478068.56608
     -2953.513       -2297.178
  20097789.27209  20097790.09009  20097786.83809 -14162896.25509  -8685382.51209
      1168.198         908.597
          .00007          .00007          .00007  -9441914.17317  -5945524.34917
      4379.142        3405.997
  19410422.49809  19410423.74809  19410426.02109  -9340675.44609  -7264937.69309
      1402.718        1091.004
  22805427.75305  22805429.72005  22805435.39805  -7730370.51105  -5546154.80005
      4134.407        3215.651
 04  4 28 23 51  0.0000000  0 14G06G10G13G15G16G17G21G25G30R04R05R06
                                R21R22
  21112113.75109  21112113.59509  21112117.89409   6087306.81609   6758819.47109
     -2085.029       -1624.695
  22309624.60008  22309623.52408  22309627.98208  -4396952.55208   -920483.97608
      -477.581        -372.138
  24568507.92705  24568505.34905  24568509.47105   3279258.98505    -59356.53605
     -1475.904       -1150.061
  25011865.73201  25011867.88101  25011875.25001   1414868.84101   1756143.13301
      3967.049        3091.225
  21967158.69409  21967157.79809  21967161.78509 -14585188.81709 -10711396.20509
      2238.986        1744.666
  22940415.46506  22940414.88906  22940420.08206  11500800.75306  10051106.58306
     -3302.689       -2573.516
  21268256.72809  21268255.85609  21268259.16909 -14063633.62709  -9379003.04109
      2441.242        1902.267
  24992273.05904  24992273.33804  24992278.16804  18089052.09904  14258790.99004
     -3517.939       -2741.257
  24101755.91705  24101755.04705  24101758.18905  17603668.63105  14806586.88905
     -3567.898       -2780.172
  21952944.24808  21952945.27308  21952948.13308   8505121.41008   7547192.58908
     -2971.737       -2311.357
  20091311.88409  20091312.88309  20091309.77709 -14197531.48309  -8712321.01609
      1140.450         887.014
          .00007          .00007          .00007  -9573134.27817  -6047584.42017
      4368.523        3397.742
  19402615.30309  19402616.57709  19402618.58009  -9382468.13209  -7297443.11509
      1383.051        1075.707
  22782312.57306  22782313.86206  22782317.93906  -7854332.19606  -5642569.38206
      4129.294        3211.675
 04  4 28 23 51 30.0000000  0 14G06G10G13G15G16G17G21G25G30R04R05R06
                                R21R22
  21124054.81409  21124054.45709  21124058.95409   6150057.61209   6807716.18509
     -2098.825       -1635.446
  22312408.79708  22312407.37908  22312411.46508  -4382324.24108   -909085.28808
      -498.106        -388.134
  24576984.19905  24576983.57505  24576985.91405   3323793.73005    -24654.14605
     -1493.561       -1163.822
  24989224.52103  24989226.30503  24989231.60803   1295881.69603   1663425.95603
      3964.827        3089.436
  21954423.03709  21954422.17409  21954426.11309 -14652115.09309 -10763546.52909
      2222.275        1731.644
  22959292.61006  22959292.81106  22959298.01006  11600004.10806  10128407.89906
     -3311.312       -2580.229
  21254362.81409  21254361.88709  21254365.26009 -14136646.77109  -9435896.37909
      2425.806        1890.235
  25012365.75004  25012365.93204  25012370.21904  18194638.35904  14341065.99404
     -3521.578       -2744.081
  24122133.79905  24122134.67805  24122138.75205  17710762.14905  14890036.37705
     -3572.177       -2783.487
  21969642.64608  21969644.16608  21969646.68408   8594541.81308   7616741.79708
     -2989.904       -2325.477
  20084989.84009  20084991.29409  20084987.99609 -14231336.94309  -8738614.14609
      1112.737         865.461
          .00007          .00007          .00007  -9704038.34117  -6149398.63417
      4357.874        3389.454
  19394917.73309  19394919.13009  19394921.21009  -9423673.76809  -7329491.93809
      1363.458        1060.467
  22759222.95406  22759224.93206  22759228.22106  -7978143.26206  -5738866.82206
      4124.260        3207.766
 04  4 28 23 52  0.0000000  0 14G06G10G13G15G16G17G21G25G30R04R05R06
                                R21R22
  21136074.59109  21136074.34809  21136078.74309   6213221.90309   6856935.10709
     -2112.726       -1646.282
  22315308.48809  22315307.76609  22315312.37409  -4367080.97809   -897207.42709
      -518.751        -404.222
  24585554.45303  24585556.53303  24585560.47603   3368857.47403     10460.40603
     -1511.258       -1177.512
  24966596.23103  24966596.52203  24966603.75603   1176966.02103   1570764.34603
      3962.349        3087.538
  21941782.90909  21941782.10509  21941785.91309 -14718539.87209 -10815306.08609
      2205.371        1718.469
  22978220.29507  22978219.77907  22978224.90907  11699465.28807  10205910.10907
     -3320.066       -2587.059
  21240556.45409  21240555.86609  21240559.27509 -14209196.73609  -9492428.80909
      2410.192        1878.071
  25032479.02604  25032477.68604  25032484.01804  18300333.46504  14423425.81304
     -3525.363       -2747.025
  24142538.33605  24142537.34105  24142542.34805  17817981.50305  14973583.90105
     -3576.434       -2786.838
  21986444.16908  21986445.00908  21986446.32508   8684506.01408   7686713.94408
     -3008.165       -2339.684
  20078823.89109  20078824.90209  20078821.88309 -14264310.97809  -8764260.61109
      1084.842         843.764
          .00007          .00007          .00007  -9834620.99717  -6250962.88617
      4346.934        3380.948
  19387330.03709  19387331.47309  19387333.51409  -9464290.10109  -7361082.41109
      1343.639        1045.053
  22736163.50006  22736165.31006  22736169.84906  -8101801.21906  -5835045.22706
      4118.920        3203.607
 04  4 28 23 52 30.0000000  0 14G06G10G13G15G16G17G21G25G30R04R05R06
                                R21R22
  21148173.84909  21148173.18309  21148177.24909   6276801.13009   6906477.35909
     -2126.322       -1656.874
  22318326.69409  22318325.93509  22318330.23709  -4351219.79409   -884848.06309
      -539.102        -420.081
  24594231.71205  24594234.05005  24594236.93705   3414451.58005     45988.33605
     -1528.728       -1191.202
  24943984.48704  24943982.07104  24943989.89804   1058126.89304   1478162.60604
      3959.872        3085.591
  21929238.95109  21929238.53709  21929241.77509 -14784457.48709 -10866670.44609
      2188.671        1705.456
  22997196.87007  22997195.89307  22997201.28307  11799185.68807  10283614.30807
     -3328.402       -2593.553
  21226840.13009  21226839.31509  21226842.62509 -14281278.76009  -9548596.60309
      2394.814        1866.089
  25052613.47205  25052612.70105  25052619.34805  18406138.00905  14505870.88105
     -3528.715       -2749.629
  24162964.72605  24162965.11805  24162971.51005  17925328.21505  15057230.62105
     -3580.415       -2789.952
  22003344.50508  22003345.92608  22003348.33608   8775013.31408   7757108.51508
     -3025.967       -2353.532
  20072813.68509  20072814.90509  20072811.96109 -14296448.79009  -8789256.67809
      1057.204         822.268
          .00007          .00007          .00007  -9964875.34417  -6352271.78817
      4336.186        3372.590
  19379853.37809  19379854.92809  19379857.04709  -9504312.88209  -7392211.23409
      1324.027        1029.799
  22713132.77406  22713134.24306  22713138.44306  -8225300.84106  -5931100.38006
      4113.873        3199.678
 04  4 28 23 53  0.0000000  0 14G06G10G13G15G16G17G21G25G30R04R05R06
                                R21R22
  21160351.30209  21160350.89709  21160355.39109   6340796.53109   6956343.90109
     -2140.148       -1667.648
  22321463.33508  22321461.96208  22321466.54908  -4334739.31908   -872006.13108
      -559.756        -436.179
  24603009.38605  24603012.12305  24603014.40805   3460576.16005     81929.49805
     -1546.553       -1205.100
  24921383.82004  24921382.44704  24921386.11004    939368.19304   1385623.35104
      3957.180        3083.544
  21916792.81209  21916792.23609  21916795.60909 -14849863.45809 -10917636.12709
      2171.550        1692.116
  23016222.29607  23016221.46807  23016226.56207  11899164.14707  10361519.59907
     -3336.977       -2600.239
  21213212.88109  21213212.10209  21213215.71409 -14352888.84409  -9604396.64809
      2379.021        1853.784
  25072767.77204  25072766.62404  25072774.69104  18512050.48304  14588400.01404
     -3532.222       -2752.386
  24183416.17705  24183415.79105  24183423.51605  18032802.01405  15140976.41805
     -3584.631       -2793.206
  22020347.13807  22020348.91307  22020352.33307   8866062.34307   7827924.40207
     -3044.085       -2367.622
  20066961.24809  20066961.81709  20066958.89109 -14327747.54409  -8813600.14609
      1029.198         800.491
          .00008          .00008          .00008 -10094795.21818  -6453320.56018
      4324.937        3363.840
  19372488.81409  19372490.26209  19372492.10609  -9543737.15209  -7422874.55309
      1304.069        1014.276
  22690132.98206  22690134.74206  22690138.70806  -8348636.90506  -6027028.41206
      4108.361        3195.399
 04  4 28 23 53 30.0000000  0 14G06G10G13G15G16G17G21G25G30R04R05R06
                                R21R22
  21172607.88509  21172607.48309  21172612.01609   6405204.74909   7006532.12009
     -2153.959       -1678.413
  22324716.66208  22324715.43008  22324720.35008  -4317641.96108   -858683.50708
      -580.354        -452.229
  24611889.93405  24611889.14905  24611892.32005   3507227.98505    118281.52105
     -1563.948       -1218.641
  24898801.35704  24898798.71804  24898806.34204    820690.42604   1293147.17704
      3954.461        3081.395
  21904443.73109  21904443.24809  21904446.87009 -14914757.40009 -10968202.82609
      2154.396        1678.749
  23035295.45506  23035294.47706  23035300.27206  11999397.13706  10439623.24206
     -3345.490       -2606.876
  21199675.66309  21199675.25209  21199678.55309 -14424027.03509  -9659828.99009
      2363.237        1841.481
  25092943.27103  25092940.52803  25092946.60203  18618066.86003  14671010.16103
     -3535.794       -2755.235
  24203891.95105  24203891.42105  24203898.19005  18140399.41105  15224818.52105
     -3588.774       -2796.456
  22037451.73408  22037451.97308  22037453.84708   8957647.50508   7899157.30408
     -3061.824       -2381.422
  20061265.12209  20061265.55709  20061262.89509 -14358207.55609  -8837291.26309
      1001.185         778.698
          .00008          .00008          .00008 -10224378.36518  -6554107.43518
      4313.602        3355.027
  19365235.16809  19365236.76309  19365239.03509  -9582564.68009  -7453073.73509
      1284.109         998.751
  22667163.94807  22667165.84607  22667169.82707  -8471809.03907  -6122828.86507
      4102.829        3191.088
 04  4 28 23 54  0.0000000  0 14G06G10G13G15G16G17G21G25G30R04R05R06
                                R21R22
  21184941.43909  21184941.09109  21184945.48309   6470017.83009   7057035.81109
     -2167.259       -1688.771
  22328085.93107  22328084.81007  22328089.31507  -4299935.57007   -844886.32007
      -600.500        -467.927
  24620865.31305  24620864.44605  24620868.92505   3554398.02205    155037.35505
     -1581.037       -1231.942
  24876231.62505  24876231.01405  24876237.34505    702088.34105   1200730.03305
      3951.986        3079.448
  21892191.21009  21892190.71909  21892194.19009 -14979144.19309 -11018374.34509
      2137.612        1665.675
  23054415.39906  23054415.47106  23054420.31906  12099874.94706  10517917.63606
     -3353.473       -2613.100
  21186227.07209  21186226.72709  21186230.11209 -14494699.13509  -9714898.14209
      2347.819        1829.476
  25113133.10003  25113132.77003  25113139.09603  18724176.55703  14753693.04103
     -3538.572       -2757.365
  24224391.76605  24224390.41605  24224394.02905  18248111.03105  15308749.61505
     -3592.391       -2799.249
  22054652.12808  22054652.94908  22054655.66308   9049758.42808   7970799.12608
     -3079.170       -2394.907
  20055724.13309  20055725.16109  20055722.19309 -14387835.13209  -8860334.92809
       973.542         757.198
          .00008          .00008          .00008 -10353627.74918  -6654634.68818
      4302.564        3346.429
  19358092.37909  19358093.89809  19358095.99409  -9620801.56009  -7482813.52709
      1264.515         983.513
  22644223.75106  22644225.91006  22644228.67406  -8594822.16606  -6218505.73006
      4097.654        3187.074
 04  4 28 23 54 30.0000000  0 14G06G10G13G15G16G17G21G25G30R04R05R06
                                R21R22
  21197351.91809  21197351.84609  21197356.18109   6535236.67909   7107855.68509
     -2180.675       -1699.227
  22331572.09108  22331570.61008  22331575.73108  -4281617.70408   -830612.65508
      -620.729        -483.685
  24629942.78505  24629939.53305  24629943.53205   3602087.74205    192198.19705
     -1598.179       -1245.343
  24853676.50004  24853676.44304  24853681.86604    583567.03804   1108375.82704
      3949.371        3077.398
  21880036.42509  21880035.87609  21880039.44409 -15043018.32809 -11068146.38709
      2120.627        1652.438
  23073583.38907  23073582.14407  23073587.01907  12200598.42007  10596403.46307
     -3361.432       -2619.295
  21172868.05909  21172867.59809  21172871.21309 -14564900.19109  -9769600.25709
      2332.229        1817.320
  25133346.28504  25133341.64804  25133350.19204  18830380.11104  14836449.00204
     -3541.594       -2759.674
  24244909.77105  24244909.40505  24244913.53405  18355938.18305  15392770.74805
     -3596.115       -2802.164
  22071950.30608  22071951.73008  22071955.42308   9142394.33708   8042849.27408
     -3096.506       -2408.392
  20050339.67809  20050341.15009  20050338.26309 -14416625.92509  -8882727.76209
       945.799         735.618
          .00008          .00008          .00008 -10482536.07218  -6754896.67918
      4291.286        3337.668
  19351061.32209  19351062.37709  19351064.59609  -9658440.99509  -7512088.63609
      1244.821         968.195
  22621315.60806  22621316.89406  22621321.22306  -8717670.39106  -6314054.25706
      4092.238        3182.853
 04  4 28 23 55  0.0000000  0 14G06G10G13G15G16G17G21G25G30R04R05R06
                                R21R22
  21209840.32109  21209839.72209  21209843.85609   6600861.13009   7158991.61709
     -2194.093       -1709.683
  22335173.39908  22335172.82408  22335177.69508  -4262688.39608   -815862.54708
      -641.031        -499.499
  24639115.01105  24639113.06205  24639115.73305   3650295.80005    229762.86705
     -1615.411       -1258.746
  24831140.07204  24831138.57604  24831146.87504    465128.82104   1016086.27704
      3946.607        3075.271
  21867980.09109  21867979.28509  21867982.71809 -15106376.84409 -11117516.64109
      2103.460        1639.059
  23092796.08907  23092795.53407  23092800.71807  12301565.24607  10675078.89707
     -3369.465       -2625.551
  21159600.04909  21159599.19409  21159602.39609 -14634627.90509  -9823933.52209
      2316.487        1805.056
  25153571.91605  25153570.48905  25153575.80405  18936675.32505  14919276.29605
     -3544.535       -2761.944
  24265450.89705  24265450.72605  24265453.24705  18463879.07605  15476880.48405
     -3599.771       -2805.024
  22089347.54108  22089349.33108  22089350.64408   9235552.36108   8115305.52108
     -3113.783       -2421.832
  20045112.50809  20045113.90809  20045111.10809 -14444578.29709  -8904468.48909
       917.908         713.927
          .00007          .00007          .00007 -10611099.18817  -6854890.18817
      4279.766        3328.708
  19344141.47109  19344142.85009  19344144.84609  -9695483.05109  -7540899.12209
      1224.904         952.704
  22598436.32906  22598438.31406  22598443.08306  -8840351.53206  -6409472.87006
      4086.698        3178.544
 04  4 28 23 55 30.0000000  0 14G06G10G13G15G16G17G21G25G30R04R05R06
                                R21R22
  21222404.64409  21222404.33209  21222408.17609   6666888.14009   7210441.23409
     -2207.421       -1720.068
  22338891.71008  22338890.78108  22338895.79308  -4243149.88108   -800637.72908
      -661.252        -515.260
  24648385.09105  24648384.75805  24648387.95705   3699018.87505    267728.92005
     -1632.477       -1272.059
  24808614.94403  24808616.36503  24808622.86803    346774.52903    923862.19103
      3943.932        3073.200
  21856021.04909  21856020.88209  21856024.16109 -15169218.94409 -11166484.50309
      2086.289        1625.673
  23112055.48807  23112054.53507  23112059.85307  12402771.90307  10753941.22007
     -3377.342       -2631.697
  21146420.45309  21146420.14709  21146423.82509 -14703882.17309  -9877897.87209
      2300.746        1792.788
  25173814.17805  25173814.84405  25173817.58105  19043057.70305  15002171.81505
     -3547.316       -2764.151
  24286012.53406  24286011.70706  24286013.22706  18571930.38606  15561076.24206
     -3603.320       -2807.780
  22106840.73107  22106842.81107  22106842.90107   9329227.42007   8188163.90507
     -3130.992       -2435.202
  20040042.59509  20040043.60809  20040040.29909 -14471692.83509  -8925557.56609
       890.058         692.263
          .00008          .00008          .00008 -10739314.30818  -6954613.05618
      4268.173        3319.689
  19337333.12409  19337334.55709  19337336.75109  -9731927.46309  -7569244.77309
      1205.055         937.265
  22575591.88307  22575592.82407  22575596.74007  -8962863.64307  -6504760.01607
      4081.080        3174.170
 04  4 28 23 56  0.0000000  0 14G06G10G13G15G16G17G21G25G30R04R05R06
                                R21R22
  21235044.26609  21235044.06809  21235048.51709   6733311.05309   7262199.34509
     -2220.727       -1730.436
  22342724.85608  22342723.81308  22342728.30708  -4223007.77508   -784942.57908
      -681.493        -531.028
  24657754.16605  24657753.52105  24657759.05605   3748250.01805    306090.84005
     -1649.573       -1285.386
  24786107.86703  24786108.44503  24786116.18603    228501.00503    831701.18203
      3941.051        3070.943
  21844160.14509  21844160.04909  21844163.59209 -15231547.53409 -11215052.22709
      2069.000        1612.208
  23131359.07307  23131358.36007  23131362.68307  12504211.13807  10832984.79207
     -3385.186       -2637.801
  21133332.29909  21133331.33409  21133334.55409 -14772666.41109  -9931495.97009
      2284.926        1780.462
  25194076.76404  25194074.54804  25194078.09804  19149519.62604  15085129.09404
     -3550.167       -2766.366
  24306591.37405  24306591.93205  24306596.04505  18680085.11505  15645352.63505
     -3606.909       -2810.573
  22124427.61107  22124429.13107  22124432.13807   9423410.75907   8261417.60107
     -3147.900       -2448.369
  20035127.82209  20035128.84109  20035125.69009 -14497973.83309  -8945998.33209
       862.079         670.502
          .00007          .00007          .00007 -10867182.22917  -7054065.85117
      4256.389        3310.530
  19330636.36009  19330637.85009  19330639.89109  -9767776.14609  -7597127.08009
      1184.926         921.611
  22552774.93106  22552776.56506  22552781.74506  -9085209.92206  -6599918.17206
      4075.359        3169.725
 04  4 28 23 56 30.0000000  0 14G06G10G13G15G16G17G21G25G30R04R05R06
                                R21R22
  21247760.85609  21247760.56809  21247765.27209   6800137.33209   7314271.76009
     -2234.079       -1740.841
  22346673.64808  22346672.79908  22346677.41908  -4202254.81308   -768771.44008
      -701.753        -546.811
  24667217.42405  24667220.30205  24667224.35205   3797995.41405    344853.44905
     -1666.643       -1298.693
  24763620.46104  24763618.66604  24763627.36604    110318.24004    739610.62204
      3938.089        3068.648
  21832399.33109  21832398.91509  21832402.40109 -15293352.30709 -11263211.77309
      2051.605        1598.651
  23150707.15106  23150706.53006  23150711.18006  12605888.54006  10912213.94606
     -3393.007       -2643.902
  21120333.90409  21120333.39709  21120336.57209 -14840970.97009  -9984720.28109
      2268.990        1768.043
  25214346.81104  25214348.29504  25214354.47104  19256065.73804  15168151.89604
     -3552.695       -2768.330
  24327193.78305  24327192.71305  24327198.79905  18788348.97805  15729714.03705
     -3610.406       -2813.299
  22142111.76307  22142113.83807  22142115.49807   9518107.09607   8335070.31007
     -3164.900       -2461.589
  20030370.41209  20030371.60209  20030368.28409 -14523412.20109  -8965783.72309
       834.087         648.733
          .00007          .00007          .00007 -10994690.80717  -7153239.16717
      4244.458        3301.245
  19324052.54909  19324054.10209  19324056.13709  -9803019.01209  -7624538.19109
      1164.904         906.037
  22529993.13207  22529994.89207  22529998.23207  -9207379.54107  -6694938.94207
      4069.561        3165.219
 04  4 28 23 57  0.0000000  0 14G06G10G13G15G16G17G21G25G30R04R05R06
                                R21R22
  21260553.75609  21260553.29409  21260557.58409   6867362.65509   7366655.11509
     -2247.423       -1751.233
  22350738.88108  22350737.52908  22350742.38608  -4180893.61708   -752126.34908
      -722.091        -562.669
  24676783.97805  24676782.01405  24676785.14705   3848251.49005    384014.00705
     -1683.589       -1311.897
  24741149.94004  24741147.17304  24741155.33104     -7773.81704    647590.97704
      3934.936        3066.209
  21820738.06409  21820737.44109  21820741.07409 -15354633.02609 -11310962.98209
      2034.009        1584.944
  23170100.22706  23170099.42406  23170104.51706  12707799.36906  10991624.98406
     -3400.818       -2649.991
  21107426.72709  21107426.34909  21107429.86209 -14908796.21609 -10037571.11309
      2252.923        1755.522
  25234637.59804  25234639.54404  25234640.71604  19362691.39304  15251236.82004
     -3555.443       -2770.467
  24347814.79505  24347815.86205  24347820.35905  18896718.30905  15814157.65005
     -3613.996       -2816.083
  22159891.48207  22159892.20207  22159894.63907   9613310.02907   8409117.01807
     -3181.737       -2474.681
  20025771.03509  20025771.84809  20025768.68809 -14548008.94509  -8984914.52309
       805.954         626.852
          .00008          .00008          .00008 -11121837.82318  -7252131.27718
      4232.246        3291.740
  19317581.87609  19317583.19209  19317585.36009  -9837657.94509  -7651479.58209
      1144.673         890.302
  22507242.67706  22507244.68606  22507249.68606  -9329371.92506  -6789821.84506
      4063.541        3160.526
 04  4 28 23 57 30.0000000  0 13G06G10G13G15G16G17G21G30R04R05R06R21
                                R22
  21273420.96809  21273420.70709  21273424.82609   6934980.95109   7419344.69609
     -2260.615       -1761.517
  22354918.64808  22354917.15808  22354921.93108  -4158930.61808   -735012.32508
      -742.271        -578.398
  24686443.21904  24686443.19804  24686447.09204   3899010.41604    423566.38804
     -1700.421       -1324.982
  24718693.67404  24718692.45704  24718699.89804   -125778.64804    555639.27804
      3931.876        3063.778
  21809176.10109  21809175.48609  21809178.89209 -15415392.78309 -11358308.24109
      2016.486        1571.288
  23189535.33206  23189535.70306  23189540.68306  12809936.18106  11071212.11006
     -3408.450       -2655.923
  21094611.14509  21094610.27809  21094613.63609 -14976146.32409 -10090051.69709
      2236.919        1743.050
  24368455.08604  24368456.24004  24368460.76104  19005185.36104  15898677.39804
     -3617.290       -2818.686
  22177762.09007  22177763.91607  22177766.63807   9709011.18707   8483551.25607
     -3198.407       -2487.655
  20021327.31709  20021328.72609  20021325.62009 -14571768.80309  -9003394.40709
       777.902         605.035
          .00008          .00008          .00008 -11248625.23918  -7350743.67618
      4220.070        3282.278
  19311222.68809  19311224.33709  19311226.46809  -9871697.19609  -7677954.54909
      1124.428         874.557
  22484527.04607  22484528.67407  22484532.22007  -9451190.88107  -6884569.86807
      4057.561        3155.883
 04  4 28 23 58  0.0000000  0 13G06G10G13G15G16G17G21G30R04R05R06R21
                                R22
  21286364.27409  21286363.79109  21286368.19209   7002997.86109   7472344.88809
     -2273.820       -1771.808
  22359213.26508  22359212.13508  22359217.05108  -4136359.08008   -717424.10508
      -762.451        -594.122
  24696196.27104  24696198.96004  24696200.10504   3950277.99804    463515.18004
     -1717.370       -1338.189
  24696255.82505  24696255.16805  24696261.26005   -243686.41605    463763.04105
      3928.648        3061.255
  21797714.79509  21797714.26709  21797717.70609 -15475621.89709 -11405240.00909
      1998.841        1557.539
  23209016.09406  23209015.89706  23209021.05606  12912304.15806  11150979.35806
     -3416.005       -2661.816
  21081886.56809  21081885.88409  21081889.52409 -15043011.90909 -10142154.74009
      2220.821        1730.507
  24389115.52305  24389115.12705  24389120.20805  19113755.73605  15983277.65105
     -3620.683       -2821.307
  22195727.32107  22195729.41307  22195731.43707   9805214.07707   8558375.70807
     -3215.111       -2500.655
  20017042.88409  20017043.66909  20017040.38009 -14594683.38509  -9021216.85809
       749.805         583.181
          .00008          .00008          .00008 -11375041.11718  -7449067.09918
      4207.690        3272.648
  19304977.73509  19304979.36909  19304981.65009  -9905126.93509  -7703955.45609
      1104.283         858.887
  22461843.81606  22461845.21306  22461850.28006  -9572825.39806  -6979174.43506
      4051.499        3151.166
 04  4 28 23 58 30.0000000  0 13G06G10G13G15G16G17G21G30R04R05R06R21
                                R22
  21299381.91909  21299381.53809  21299385.91209   7071406.65509   7525650.43509
     -2286.653       -1781.809
  22363623.16708  22363622.02208  22363626.92308  -4113185.21508   -699366.55408
      -782.310        -609.594
  24706051.31904  24706050.18804  24706053.86104   4002046.78504    503854.52604
     -1733.744       -1350.968
  24673835.97504  24673834.77604  24673842.42604   -361501.06904    371959.49204
      3925.833        3059.111
  21786353.96509  21786353.26609  21786356.73509 -15535323.92709 -11451761.06309
      1981.440        1543.979
  23228539.25107  23228538.05507  23228542.96507  13014895.18107  11230920.39507
     -3423.196       -2667.420
  21069254.48609  21069253.52909  21069256.69209 -15109396.88509 -10193883.27809
      2205.000        1718.183
  24409795.17905  24409793.54305  24409798.90605  19222421.86505  16067952.56405
     -3623.542       -2823.551
  22213784.26107  22213785.76307  22213788.12807   9901909.68607   8633583.39107
     -3231.180       -2513.151
  20012914.39109  20012915.56609  20012912.48709 -14616757.54209  -9038385.64109
       721.968         561.531
          .00008          .00008          .00008 -11501086.96718  -7547102.72618
      4195.521        3263.180
  19298846.45509  19298847.80109  19298849.66509  -9937951.18209  -7729485.42209
      1084.217         843.279
  22439195.33207  22439197.08007  22439200.65407  -9694279.20207  -7073638.44607
      4045.552        3146.545
 04  4 28 23 59  0.0000000  0 13G06G10G13G15G16G17G21G30R04R05R06R21
                                R22
  21312473.22009  21312472.72209  21312477.42609   7140201.99909   7579257.18609
     -2299.525       -1791.841
  22368146.28008  22368145.74908  22368150.81808  -4089413.84808   -680843.41208
      -802.230        -625.108
  24715993.83704  24715993.46504  24715998.10604   4054310.85804    544579.73804
     -1750.293       -1363.858
  24651435.32905  24651434.24405  24651439.89505   -479224.26005    280227.21105
      3922.593        3056.524
  21775092.93609  21775092.37209  21775095.82909 -15594500.24209 -11497872.47309
      1963.854        1530.280
  23248102.28906  23248101.56906  23248106.35706  13117703.21006  11311030.55106
     -3430.444       -2673.076
  21056712.29609  21056711.77509  21056715.10209 -15175303.82609 -10245239.32209
      2189.009        1705.719
  24430490.01505  24430487.96405  24430493.93005  19331177.89605  16152697.47105
     -3626.531       -2825.866
  22231932.32707  22231933.37307  22231935.87607   9999090.29807   8709168.30807
     -3247.277       -2525.650
  20008943.22609  20008944.15509  20008940.98009 -14637994.44509  -9054903.22909
       694.041         539.807
          .00009          .00009          .00009 -11626762.73219  -7644850.51619
      4183.048        3253.485
  19292827.01809  19292828.40309  19292830.71109  -9970171.91109  -7754545.98609
      1064.100         827.633
  22416578.87207  22416581.06707  22416585.21907  -9815553.53107  -7167962.88007
      4039.587        3141.905
